Date StartTime U_cm/s V_cm/s W_cm/s Ustd_cm/s Vstd_cm/s Wstd_cm/s Uvar_(cm/s)^2 Vvar_(cm/s)^2 Wvar_(cm/s)^2 KE_(m/s)^2 TurbulentKE_(m/s)^2 HorizWindSpeed_cm/s FrictionSpeec_cm/s DragCoef SpeedOfSound_m/s SonicTemperature_C Pressure_mb 
10/04/2014  00:00:00     -101.853      -43.580       -6.160       19.870       22.924       12.624      394.821      525.525      159.354        0.670        0.054      110.785        4.110        0.001      339.254       12.462      869.397
10/04/2014  00:01:00      -91.416      -14.565       -6.777       32.766       24.203       13.410     1073.626      585.787      179.826        0.523        0.092       92.569       14.364        0.024      339.231       12.423      869.398
10/04/2014  00:02:00     -116.790      -15.580      -11.141       27.774       20.105       16.801      771.414      404.220      282.272        0.773        0.073      117.825       15.170        0.017      339.143       12.274      869.386
10/04/2014  00:03:00      -97.426      -22.193       -2.423       32.705       25.368       18.666     1069.597      643.554      348.407        0.603        0.103       99.922       16.270        0.027      339.113       12.223      869.384
10/04/2014  00:04:00     -100.759      -24.848       -6.106       33.570       19.969       17.621     1126.921      398.767      310.505        0.632        0.092      103.778       15.148        0.021      339.094       12.191      869.378
10/04/2014  00:05:00      -89.914      -18.868       -3.293       32.621       25.128       16.219     1064.137      631.435      263.048        0.520        0.098       91.873       16.151        0.031      339.032       12.089      869.372
10/04/2014  00:06:00      -90.934      -25.977       -2.646       21.863       21.426       15.418      477.983      459.083      237.700        0.506        0.059       94.572       12.735        0.018      339.065       12.143      869.370
10/04/2014  00:07:00      -92.425      -24.184       -3.891       26.764       18.500       16.211      716.303      342.238      262.793        0.523        0.066       95.536       14.512        0.023      339.081       12.170      869.378
10/04/2014  00:08:00     -112.173      -37.339       -5.641       24.783       21.011       16.696      614.210      441.448      278.765        0.767        0.067      118.224       16.054        0.018      339.164       12.309      869.376
10/04/2014  00:09:00     -104.056      -25.846       -8.069       19.398       19.530       14.807      376.276      381.423      219.251        0.627        0.049      107.218       10.553        0.010      339.173       12.324      869.369
10/04/2014  00:10:00      -99.312      -30.599       -5.713       31.738       20.431       15.104     1007.272      417.442      228.134        0.624        0.083      103.919       18.428        0.031      339.143       12.274      869.373
10/04/2014  00:11:00     -108.781      -20.526       -4.110       29.006       17.168       14.237      841.358      294.731      202.697        0.680        0.067      110.700       13.209        0.014      339.117       12.229      869.363
10/04/2014  00:12:00     -120.676      -35.911       -6.352       19.237       18.337       15.136      370.061      336.256      229.087        0.841        0.047      125.906       12.014        0.009      339.146       12.279      869.360
10/04/2014  00:13:00     -120.338      -34.394       -9.110       13.700       16.513       10.772      187.690      272.667      116.034        0.816        0.029      125.156        7.978        0.004      339.043       12.106      869.367
10/04/2014  00:14:00      -98.833      -39.884       -1.155       28.788       29.630       21.268      828.726      877.932      452.339        0.676        0.108      106.577       18.448        0.030      338.961       11.967      869.362
10/04/2014  00:15:00      -81.947      -52.489       -0.825       32.274       29.920       21.078     1041.613      895.236      444.289        0.593        0.119       97.316       20.421        0.044      339.001       12.034      869.362
10/04/2014  00:16:00     -100.152      -53.934       -4.965       24.963       20.973       15.224      623.130      439.877      231.772        0.713        0.065      113.751        8.596        0.006      339.007       12.046      869.369
10/04/2014  00:17:00      -76.064      -62.645        4.576       40.514       28.716       18.463     1641.411      824.581      340.873        0.627        0.140       98.540       10.342        0.011      339.015       12.059      869.379
10/04/2014  00:18:00     -106.922      -22.682       -5.395       48.847       21.034       17.531     2386.071      442.422      307.337        0.756        0.157      109.302       22.979        0.044      339.064       12.141      869.379
10/04/2014  00:19:00     -111.351      -63.915       -8.762       22.118       26.095       17.627      489.198      680.969      310.720        0.902        0.074      128.391       13.077        0.010      338.982       12.003      869.374
10/04/2014  00:20:00      -96.694      -48.037       -6.885       21.034       17.946       18.191      442.433      322.046      330.929        0.640        0.055      107.969       12.302        0.013      339.004       12.039      869.377
10/04/2014  00:21:00      -74.380      -50.222       -3.228       35.769       23.205       24.227     1279.395      538.480      586.925        0.523        0.120       89.747       23.673        0.070      339.055       12.125      869.380
10/04/2014  00:22:00      -80.220      -59.673       -2.302       42.082       26.878       23.596     1770.872      722.451      556.785        0.653        0.153       99.981       20.465        0.042      338.981       12.001      869.381
10/04/2014  00:23:00      -98.737      -54.464       -5.779       33.585       25.775       20.573     1127.942      664.355      423.261        0.748        0.111      112.762        8.332        0.005      339.055       12.125      869.377
10/04/2014  00:24:00      -94.328      -61.903       -5.326       37.068       29.861       18.641     1374.000      891.700      347.494        0.769        0.131      112.826       16.059        0.020      339.088       12.181      869.386
10/04/2014  00:25:00      -60.102      -60.056       -4.536       47.862       28.480       22.463     2290.801      811.091      504.569        0.542        0.180       84.965       18.431        0.047      339.091       12.185      869.399
10/04/2014  00:26:00      -63.030      -54.636       -1.898       43.424       40.545       20.804     1885.660     1643.910      432.826        0.546        0.198       83.414       16.335        0.038      339.051       12.120      869.406
10/04/2014  00:27:00      -93.294      -66.777        0.299       32.576       49.064       23.480     1061.164     2407.267      551.334        0.859        0.201      114.730       20.518        0.032      339.128       12.249      869.409
10/04/2014  00:28:00      -83.855      -79.565       -0.188       42.318       35.360       19.992     1790.848     1250.324      399.677        0.840        0.172      115.595       20.154        0.030      339.129       12.250      869.414
10/04/2014  00:29:00      -69.298      -66.913       10.035       45.115       34.981       26.520     2035.319     1223.661      703.305        0.667        0.198       96.330       24.834        0.066      339.021       12.068      869.408
10/04/2014  00:30:00     -115.039      -83.711      -10.339       22.302       32.214       18.354      497.393     1037.721      336.865        1.111        0.094      142.273        9.412        0.004      339.090       12.185      869.401
10/04/2014  00:31:00      -91.862      -45.476        0.858       43.793       27.476       20.577     1917.840      754.911      423.412        0.680        0.155      102.502       20.676        0.041      339.037       12.094      869.395
10/04/2014  00:32:00      -77.455      -46.658        5.722       32.941       28.762       21.345     1085.106      827.231      455.626        0.529        0.118       90.423       18.157        0.040      339.010       12.052      869.392
10/04/2014  00:33:00      -31.952      -27.206       16.323       62.298       34.040       23.471     3881.009     1158.715      550.900        0.381        0.280       41.966       28.980        0.477      338.967       11.978      869.377
10/04/2014  00:34:00      -97.650      -50.756        6.559       51.416       34.793       25.795     2643.622     1210.555      665.380        0.834        0.226      110.053       27.394        0.062      338.967       11.977      869.356
10/04/2014  00:35:00      -87.152      -64.788        0.690       44.927       40.740       22.003     2018.425     1659.714      484.124        0.798        0.208      108.595       19.797        0.033      339.001       12.035      869.346
10/04/2014  00:36:00     -102.220      -75.986       -3.178       40.940       29.788       15.202     1676.109      887.315      231.091        0.951        0.140      127.369       14.260        0.013      338.940       11.934      869.332
10/04/2014  00:37:00      -85.875      -57.340        0.379       36.135       30.716       17.353     1305.761      943.463      301.143        0.661        0.128      103.259       13.988        0.018      338.933       11.920      869.308
10/04/2014  00:38:00      -68.574      -59.435       -1.353       27.825       32.912       16.630      774.245     1083.178      276.553        0.519        0.107       90.746       14.821        0.027      338.940       11.932      869.302
10/04/2014  00:39:00      -31.206      -19.618        7.646       21.593       22.594       15.731      466.257      510.467      247.455        0.132        0.061       36.860       15.478        0.176      338.921       11.901      869.299
10/04/2014  00:40:00      -72.263      -48.737       -4.023       33.483       28.733       14.985     1121.087      825.596      224.556        0.489        0.109       87.163        8.636        0.010      339.007       12.046      869.288
10/04/2014  00:41:00      -95.222      -34.537       -5.236       38.191       22.073       13.975     1458.538      487.213      195.300        0.621        0.107      101.292       16.003        0.025      338.916       11.891      869.277
10/04/2014  00:42:00     -123.207      -62.916       -7.529       21.647       17.789        9.741      468.586      316.457       94.887        1.004        0.044      138.341        6.316        0.002      338.934       11.924      869.272
10/04/2014  00:43:00     -129.323      -53.729       -8.357       21.833       22.424       15.888      476.694      502.832      252.434        1.046        0.062      140.040       10.536        0.006      338.870       11.814      869.274
10/04/2014  00:44:00     -105.578      -49.126        2.989       42.613       25.342       18.356     1815.869      642.213      336.961        0.818        0.140      116.448       19.810        0.029      338.856       11.790      869.264
10/04/2014  00:45:00     -109.250      -63.878        5.505       33.284       31.429       23.764     1107.796      987.752      564.736        0.935        0.133      126.555       20.620        0.027      338.806       11.708      869.256
10/04/2014  00:46:00     -126.919      -57.822        0.050       35.357       22.887       18.466     1250.086      523.836      340.997        1.078        0.106      139.470       17.432        0.016      338.851       11.784      869.253
10/04/2014  00:47:00     -123.295      -67.221        0.614       31.889       31.671       16.397     1016.904     1003.067      268.875        1.100        0.114      140.429       15.369        0.012      338.858       11.795      869.250
10/04/2014  00:48:00     -127.438      -64.098        0.982       32.003       31.480       20.772     1024.175      990.976      431.475        1.140        0.122      142.650       16.344        0.013      338.846       11.776      869.251
10/04/2014  00:49:00     -125.439      -64.096        3.943       54.583       28.365       23.709     2979.319      804.558      562.122        1.210        0.217      140.866       26.329        0.035      338.787       11.675      869.247
10/04/2014  00:50:00     -154.261      -57.257       -0.986       31.744       22.180       18.155     1007.678      491.945      329.614        1.445        0.091      164.544       16.672        0.010      338.739       11.597      869.254
10/04/2014  00:51:00     -130.897      -60.737        3.177       28.648       27.372       19.210      820.704      749.226      369.034        1.139        0.097      144.302       14.477        0.010      338.697       11.524      869.264
10/04/2014  00:52:00     -135.464      -44.256        0.140       36.839       25.906       20.962     1357.075      671.122      439.393        1.139        0.123      142.510       17.309        0.015      338.680       11.496      869.267
10/04/2014  00:53:00     -109.060      -64.814       -1.636       32.617       24.326       19.370     1063.864      591.765      375.208        0.906        0.102      126.866       17.974        0.020      338.705       11.536      869.277
10/04/2014  00:54:00      -85.093      -38.103        1.522       33.420       21.709       17.258     1116.929      471.263      297.833        0.529        0.094       93.234       13.700        0.022      338.723       11.567      869.294
10/04/2014  00:55:00     -101.896      -50.769       -2.552       23.293       27.306       14.481      542.567      745.628      209.694        0.723        0.075      113.843       12.307        0.012      338.691       11.515      869.292
10/04/2014  00:56:00      -94.989      -35.414       -3.989       17.050       17.512       12.810      290.707      306.683      164.105        0.553        0.038      101.376        7.403        0.005      338.651       11.448      869.290
10/04/2014  00:57:00      -94.216      -44.544       -0.860       31.492       17.217       17.564      991.774      296.409      308.497        0.623        0.080      104.215       15.318        0.022      338.647       11.441      869.286
10/04/2014  00:58:00      -78.950      -46.235       -1.185       35.661       16.482       14.064     1271.713      271.649      197.792        0.506        0.087       91.492       15.646        0.029      338.679       11.494      869.289
10/04/2014  00:59:00      -86.758      -48.584       -6.561       18.769       14.711       10.510      352.284      216.404      110.464        0.530        0.034       99.435        3.082        0.001      338.744       11.602      869.294
10/04/2014  01:00:00      -83.057      -42.127       -0.829       26.047       19.825       17.310      678.461      393.032      299.638        0.502        0.069       93.130       11.645        0.016      338.798       11.693      869.298
10/04/2014  01:01:00      -65.730      -51.476        0.119       31.562       23.209       17.813      996.156      538.647      317.298        0.441        0.093       83.488       13.353        0.026      338.760       11.631      869.294
10/04/2014  01:02:00      -75.964      -59.456        0.193       25.318       16.149       12.182      640.995      260.804      148.405        0.518        0.053       96.465       11.350        0.014      338.769       11.646      869.302
10/04/2014  01:03:00     -103.897      -55.271      -13.011        8.851       11.361        8.631       78.344      129.082       74.501        0.715        0.014      117.684        5.728        0.002      338.809       11.713      869.310
10/04/2014  01:04:00     -102.288      -53.933      -14.816       12.040       11.853        9.541      144.964      140.499       91.028        0.698        0.019      115.635        7.209        0.004      338.773       11.652      869.300
10/04/2014  01:05:00      -97.042      -48.528      -10.321       15.368       15.034       12.842      236.184      226.017      164.914        0.625        0.031      108.499       10.102        0.009      338.711       11.547      869.299
10/04/2014  01:06:00     -106.690      -58.798      -12.169       11.769        9.620        7.317      138.502       92.537       53.534        0.764        0.014      121.820        4.420        0.001      338.710       11.547      869.307
10/04/2014  01:07:00     -102.618      -62.847       -8.418       17.313       14.277       12.431      299.751      203.838      154.518        0.760        0.033      120.334        4.506        0.001      338.657       11.457      869.309
10/04/2014  01:08:00     -107.917      -62.912      -14.213       14.453       13.008       11.203      208.888      169.201      125.508        0.815        0.025      124.915        5.547        0.002      338.632       11.415      869.299
10/04/2014  01:09:00     -112.236      -60.907      -15.317       15.533       15.720       11.728      241.262      247.116      137.548        0.858        0.031      127.697        6.277        0.002      338.595       11.354      869.289
10/04/2014  01:10:00      -98.478      -55.584      -13.041       21.000       14.516       13.524      441.019      210.707      182.893        0.690        0.042      113.082       12.517        0.012      338.621       11.396      869.287
10/04/2014  01:11:00      -93.889      -48.523      -14.283       16.173       13.914       10.483      261.581      193.603      109.898        0.597        0.028      105.687        6.712        0.004      338.623       11.400      869.290
10/04/2014  01:12:00      -84.310      -49.070      -10.151       17.770       16.162       14.672      315.755      261.217      215.256        0.521        0.040       97.550       11.547        0.014      338.605       11.371      869.287
10/04/2014  01:13:00     -101.489      -44.962      -11.288       18.686       15.709       13.996      349.175      246.764      195.892        0.662        0.040      111.003       12.436        0.013      338.633       11.417      869.280
10/04/2014  01:14:00      -82.809      -30.266       -7.553       12.888       12.400       10.520      166.090      153.760      110.676        0.413        0.022       88.167        6.396        0.005      338.692       11.515      869.281
10/04/2014  01:15:00      -83.073      -38.185       -9.102       19.937       14.801        9.986      397.471      219.059       99.721        0.458        0.036       91.429        6.715        0.005      338.749       11.611      869.284
10/04/2014  01:16:00      -91.046      -40.693      -11.615       13.308       15.704       10.504      177.096      246.605      110.344        0.531        0.027       99.726        7.368        0.005      338.768       11.644      869.288
10/04/2014  01:17:00      -87.646      -45.779       -8.626       20.230       19.863       12.297      409.255      394.540      151.218        0.540        0.048       98.881       11.240        0.013      338.790       11.680      869.273
10/04/2014  01:18:00      -72.286      -48.601       -2.397       31.466       23.367       16.969      990.082      546.022      287.942        0.471        0.091       87.105       15.268        0.031      338.682       11.499      869.266
10/04/2014  01:19:00      -54.681      -35.389       -0.674       26.201       22.820       17.858      686.487      520.756      318.906        0.288        0.076       65.134       13.103        0.040      338.571       11.312      869.263
10/04/2014  01:20:00      -66.111      -43.976       -7.707       27.098       24.277       15.356      734.300      589.379      235.797        0.396        0.078       79.401       12.184        0.024      338.631       11.412      869.267
10/04/2014  01:21:00      -55.197      -31.085        0.628       28.893       18.348       14.191      834.802      336.631      201.385        0.269        0.069       63.349        9.554        0.023      338.516       11.221      869.267
10/04/2014  01:22:00      -39.130      -29.384        4.391       33.151       19.088       13.476     1099.013      364.333      181.611        0.203        0.082       48.935       14.628        0.089      338.519       11.226      869.266
10/04/2014  01:23:00      -68.903      -37.975       -4.377       20.780       11.441       11.419      431.811      130.900      130.389        0.345        0.035       78.675       11.103        0.020      338.590       11.346      869.258
10/04/2014  01:24:00      -74.384      -44.828       -6.216       23.119       15.538       12.159      534.479      241.415      147.844        0.425        0.046       86.848       10.491        0.015      338.625       11.403      869.256
10/04/2014  01:25:00      -83.160      -46.762       -9.558       12.178       12.430       10.370      148.308      154.495      107.544        0.480        0.021       95.406        4.102        0.002      338.644       11.435      869.259
10/04/2014  01:26:00      -60.189      -43.186       -2.673       31.427       17.773       13.552      987.632      315.894      183.663        0.349        0.074       74.079       14.507        0.038      338.613       11.383      869.254
10/04/2014  01:27:00      -25.177      -22.336        3.918       27.642       21.980       16.206      764.090      483.141      262.633        0.133        0.075       33.657       14.631        0.189      338.431       11.078      869.248
10/04/2014  01:28:00      -73.554      -61.390       -4.696       37.341       32.834       20.829     1394.379     1078.102      433.832        0.605        0.145       95.807       13.048        0.019      338.515       11.219      869.252
10/04/2014  01:29:00      -69.727      -67.368       -3.211       32.140       19.913       17.750     1032.981      396.518      315.046        0.558        0.087       96.955       15.687        0.026      338.558       11.291      869.271
10/04/2014  01:30:00      -97.854      -49.016       -7.436       28.893       27.563       18.233      834.790      759.734      332.444        0.698        0.096      109.444        9.127        0.007      338.513       11.217      869.272
10/04/2014  01:31:00     -115.455      -35.012      -14.230       28.134       25.962       18.324      791.523      674.014      335.762        0.828        0.090      120.647       14.564        0.015      338.530       11.244      869.274
10/04/2014  01:32:00      -89.868      -48.238        1.082       42.403       24.918       19.277     1797.996      620.891      371.604        0.660        0.140      101.996       16.594        0.026      338.468       11.140      869.275
10/04/2014  01:33:00      -85.652      -67.308       -2.170       36.823       35.052       20.592     1355.901     1228.645      424.015        0.744        0.150      108.934       17.965        0.027      338.449       11.107      869.283
10/04/2014  01:34:00     -101.806      -59.437       -8.807       19.660       26.630       14.006      386.515      709.142      196.180        0.763        0.065      117.886        7.750        0.004      338.452       11.114      869.292
10/04/2014  01:35:00     -103.605      -59.657      -13.962       30.561       27.397       18.012      933.947      750.577      324.439        0.825        0.100      119.553       16.566        0.019      338.461       11.128      869.292
10/04/2014  01:36:00      -97.982      -41.114       -7.548       39.331       26.212       24.918     1546.925      687.094      620.924        0.710        0.143      106.259       21.067        0.039      338.458       11.125      869.297
10/04/2014  01:37:00     -101.455      -50.312       -3.521       42.794       25.605       23.297     1831.301      655.619      542.766        0.793        0.151      113.245       20.745        0.034      338.500       11.194      869.305
10/04/2014  01:38:00      -59.146      -49.355       -4.459       40.135       23.663       20.058     1610.803      559.954      402.325        0.426        0.129       77.034       18.564        0.058      338.503       11.198      869.317
10/04/2014  01:39:00      -66.480      -49.824       -1.422       48.841       42.783       20.043     2385.402     1830.364      401.726        0.576        0.231       83.078       23.045        0.077      338.484       11.168      869.330
10/04/2014  01:40:00     -119.717     -108.207      -17.894       39.983       32.637       23.527     1598.674     1065.159      553.509        1.479        0.161      161.372       22.817        0.020      338.499       11.193      869.337
10/04/2014  01:41:00      -86.580      -93.389       -2.169       27.774       31.124       21.357      771.405      968.679      456.118        0.921        0.110      127.348       12.148        0.009      338.466       11.137      869.338
10/04/2014  01:42:00      -97.919      -71.416      -13.828       40.354       46.018       25.217     1628.428     2117.647      635.895        0.963        0.219      121.196       22.379        0.034      338.464       11.133      869.348
10/04/2014  01:43:00     -114.787      -75.148       -8.704       28.507       33.936       23.134      812.647     1151.620      535.187        1.070        0.125      137.198       17.179        0.016      338.473       11.149      869.359
10/04/2014  01:44:00     -108.021      -52.692      -10.720       32.920       22.515       19.723     1083.711      506.941      389.013        0.827        0.099      120.187       13.677        0.013      338.454       11.117      869.359
10/04/2014  01:45:00     -111.488      -56.863       -6.630       18.496       18.748       14.752      342.087      351.496      217.618        0.831        0.046      125.152       12.448        0.010      338.334       10.916      869.355
10/04/2014  01:46:00      -93.489      -39.663       -2.473       20.956       14.974       13.232      439.134      224.234      175.093        0.558        0.042      101.555        9.567        0.009      338.300       10.859      869.359
10/04/2014  01:47:00      -98.611      -31.246      -10.795       12.228       10.626        9.395      149.513      112.910       88.272        0.558        0.018      103.443        4.990        0.002      338.313       10.880      869.365
10/04/2014  01:48:00      -93.600      -41.826       -7.485       11.131        8.160        9.924      123.895       66.585       98.487        0.543        0.014      102.520        4.312        0.002      338.308       10.869      869.351
10/04/2014  01:49:00     -117.024      -30.095      -16.815       13.914       11.231        9.326      193.598      126.132       86.972        0.764        0.020      120.832        5.113        0.002      338.271       10.809      869.336
10/04/2014  01:50:00      -89.130      -22.188        0.741       28.656       21.853       17.362      821.171      477.566      301.442        0.502        0.080       91.851       14.338        0.024      338.246       10.766      869.322
10/04/2014  01:51:00     -125.697      -32.167       -2.657       27.812       19.442       15.191      773.506      377.999      230.772        0.911        0.069      129.747       17.547        0.018      338.171       10.641      869.318
10/04/2014  01:52:00     -133.029      -43.582       -5.083       23.621       14.268       13.026      557.969      203.570      169.666        1.028        0.047      139.986       13.807        0.010      338.218       10.720      869.314
10/04/2014  01:53:00     -115.358      -30.345      -14.596       17.906       16.828       15.749      320.614      283.193      248.024        0.765        0.043      119.282       13.008        0.012      338.306       10.868      869.303
10/04/2014  01:54:00      -96.687      -34.843       -9.976        9.325       13.779        9.007       86.955      189.849       81.123        0.551        0.018      102.773        3.846        0.001      338.329       10.906      869.292
10/04/2014  01:55:00      -85.546      -29.620       -9.242       18.169       14.046       11.542      330.116      197.298      133.223        0.447        0.033       90.529        7.689        0.007      338.280       10.825      869.301
10/04/2014  01:56:00      -61.293      -41.496       -8.192       18.335       17.791       15.406      336.167      316.511      237.339        0.322        0.045       74.019       11.452        0.024      338.236       10.750      869.297
10/04/2014  01:57:00      -54.494      -37.332      -10.680       21.486       17.436       15.071      461.667      304.002      227.121        0.273        0.050       66.055       10.943        0.027      338.194       10.680      869.288
10/04/2014  01:58:00      -72.598      -16.484      -10.046       17.834       19.786       14.003      318.057      391.479      196.091        0.327        0.045       74.445        5.972        0.006      338.152       10.610      869.276
10/04/2014  01:59:00      -84.362      -22.796      -13.525       15.490       20.565       15.771      239.951      422.937      248.737        0.437        0.046       87.387       12.118        0.019      338.189       10.670      869.272
10/04/2014  02:00:00      -74.395       -7.132      -16.700       14.358       14.367       13.539      206.154      206.412      183.294        0.323        0.030       74.736       10.615        0.020      338.142       10.593      869.268
10/04/2014  02:01:00      -53.033       -6.935      -16.800       14.596       14.125       12.407      213.029      199.515      153.937        0.185        0.028       53.484       12.551        0.055      338.153       10.610      869.273
10/04/2014  02:02:00      -36.361      -17.813       -6.880       10.846       14.175        9.772      117.643      200.938       95.495        0.105        0.021       40.489        9.911        0.060      338.276       10.817      869.270
10/04/2014  02:03:00      -25.645      -18.879       -2.371        9.983       14.594       12.378       99.659      212.994      153.204        0.074        0.023       31.844        6.908        0.047      338.549       11.273      869.277
10/04/2014  02:04:00      -31.970      -30.494       -5.398       23.803       14.295       15.663      566.591      204.356      245.333        0.150        0.051       44.181        9.965        0.051      338.561       11.297      869.290
10/04/2014  02:05:00      -50.594      -35.552       -5.006       16.271       15.271       12.818      264.759      233.202      164.294        0.226        0.033       61.836       10.985        0.032      338.413       11.048      869.288
10/04/2014  02:06:00      -76.771      -18.462      -12.439       19.260       12.279        9.165      370.952      150.774       83.997        0.350        0.030       78.960        3.068        0.002      338.234       10.747      869.287
10/04/2014  02:07:00      -69.130      -13.184      -13.076       16.497       13.516        9.890      272.148      182.692       97.815        0.284        0.028       70.376        9.036        0.016      338.171       10.642      869.293
10/04/2014  02:08:00      -69.233      -13.706      -11.906       12.223       14.033       11.533      149.408      196.937      133.010        0.280        0.024       70.577        7.149        0.010      338.216       10.717      869.295
10/04/2014  02:09:00      -47.641      -29.946      -10.315       12.676       15.457        9.505      160.681      238.908       90.347        0.188        0.024       56.271        4.524        0.006      338.209       10.703      869.291
10/04/2014  02:10:00      -60.551      -20.207      -10.195        9.979       12.328        7.621       99.577      151.985       58.086        0.224        0.015       63.834        3.507        0.003      338.282       10.828      869.292
10/04/2014  02:11:00      -67.948      -30.744      -11.793       10.361       16.581       10.555      107.358      274.946      111.409        0.310        0.025       74.580        5.218        0.005      338.225       10.732      869.284
10/04/2014  02:12:00      -92.141      -14.970      -13.729       18.829       12.704       11.703      354.541      161.382      136.956        0.478        0.033       93.349       10.270        0.012      338.133       10.578      869.286
10/04/2014  02:13:00     -103.883       -9.509      -19.594       17.319       12.330       10.886      299.958      152.035      118.509        0.592        0.029      104.317       10.703        0.011      338.076       10.481      869.284
10/04/2014  02:14:00      -99.726      -27.947      -14.422       15.381       14.092        9.139      236.582      198.587       83.520        0.573        0.026      103.568        6.239        0.004      338.052       10.440      869.280
10/04/2014  02:15:00     -105.102      -24.340      -12.358       13.415       12.881        9.436      179.975      165.914       89.045        0.611        0.022      107.884        6.054        0.003      338.072       10.475      869.270
10/04/2014  02:16:00     -100.935      -23.390      -14.341       16.633       14.650       10.321      276.659      214.632      106.517        0.577        0.030      103.609        7.392        0.005      338.116       10.550      869.265
10/04/2014  02:17:00      -91.568      -32.069      -11.332       16.064       15.292       11.456      258.037      233.846      131.250        0.508        0.031       97.022        3.817        0.002      338.119       10.554      869.262
10/04/2014  02:18:00      -85.349      -41.762      -10.024       21.788       14.282       11.566      474.732      203.969      133.765        0.497        0.041       95.019        5.533        0.003      338.050       10.440      869.266
10/04/2014  02:19:00      -98.227      -57.526      -10.741       27.618       15.190       13.411      762.742      230.728      179.861        0.712        0.059      113.832        5.020        0.002      338.035       10.414      869.262
10/04/2014  02:20:00      -73.700      -69.963       -2.145       30.182       33.365       19.574      910.966     1113.211      383.130        0.637        0.120      101.620       12.587        0.015      338.075       10.479      869.254
10/04/2014  02:21:00      -83.305      -61.783       -0.875       32.029       29.404       17.675     1025.843      864.593      312.408        0.648        0.110      103.715       15.911        0.024      338.038       10.418      869.239
10/04/2014  02:22:00     -119.862      -56.446       -9.303       23.920       20.284       14.086      572.169      411.454      198.413        0.941        0.059      132.488        9.428        0.005      337.948       10.266      869.239
10/04/2014  02:23:00     -130.404      -61.730       -5.643       21.420       20.249       16.929      458.805      410.024      286.595        1.100        0.058      144.277       10.345        0.005      337.956       10.280      869.242
10/04/2014  02:24:00     -130.018      -45.570       -9.800       19.794       17.079       16.583      391.816      291.678      274.999        1.002        0.048      137.772       10.880        0.006      337.912       10.207      869.230
10/04/2014  02:25:00     -108.441      -28.127       -2.242       30.893       25.255       15.937      954.360      637.829      253.980        0.720        0.092      112.029       12.985        0.013      337.849       10.101      869.218
10/04/2014  02:26:00      -84.987      -11.017       -0.609       35.352       22.806       21.648     1249.779      520.095      468.637        0.479        0.112       85.698       22.021        0.066      337.756        9.944      869.212
10/04/2014  02:27:00      -88.555      -19.497        2.809       25.253       22.853       18.804      637.722      522.262      353.602        0.487        0.076       90.676       16.578        0.033      337.861       10.121      869.211
10/04/2014  02:28:00     -111.537      -34.401        0.925       32.610       25.398       14.674     1063.419      645.048      215.338        0.777        0.096      116.721       17.945        0.024      337.895       10.179      869.219
10/04/2014  02:29:00     -128.306      -63.266       -6.402       24.672       19.787       13.115      608.717      391.525      172.002        1.084        0.059      143.056       10.052        0.005      337.980       10.320      869.214
10/04/2014  02:30:00     -131.561      -68.295       -4.338       26.040       26.812       18.779      678.106      718.872      352.659        1.187        0.087      148.231       15.395        0.011      337.923       10.225      869.211
10/04/2014  02:31:00     -130.141      -65.581       -4.389       30.490       26.536       17.233      929.640      704.164      296.971        1.159        0.097      145.731       11.968        0.007      337.912       10.206      869.220
10/04/2014  02:32:00     -129.877      -32.762       -5.468       25.818       21.558       16.717      666.569      464.748      279.456        0.969        0.071      133.945       14.748        0.012      337.861       10.121      869.228
10/04/2014  02:33:00     -112.380      -31.749       -3.657       29.409       19.484       18.694      864.890      379.613      349.464        0.762        0.080      116.778       17.812        0.023      337.793       10.007      869.225
10/04/2014  02:34:00      -92.204      -18.765        0.312       32.285       24.575       17.815     1042.316      603.917      317.360        0.541        0.098       94.094       17.581        0.035      337.792       10.006      869.223
10/04/2014  02:35:00      -98.268      -20.670        0.427       39.779       25.344       18.856     1582.390      642.319      355.564        0.633        0.129      100.419       20.788        0.043      337.804       10.025      869.229
10/04/2014  02:36:00     -117.280      -27.669       -5.500       21.238       20.273       15.709      451.043      410.999      246.782        0.783        0.055      120.499        9.972        0.007      337.769        9.967      869.217
10/04/2014  02:37:00     -125.836      -27.272      -11.636       28.397       18.765       17.361      806.367      352.126      301.411        0.909        0.073      128.757       14.615        0.013      337.644        9.757      869.201
10/04/2014  02:38:00      -36.846       -1.639        7.226       31.436       39.953       21.691      988.221     1596.229      470.506        0.223        0.153       36.883       17.352        0.221      337.613        9.706      869.189
10/04/2014  02:39:00      -82.368       29.726        1.181       56.067       31.247       25.000     3143.521      976.362      624.987        0.621        0.237       87.568       26.441        0.091      337.975       10.311      869.188
10/04/2014  02:40:00     -160.038       30.320      -16.668       27.196       31.112       18.072      739.622      967.982      326.585        1.442        0.102      162.885       12.403        0.006      338.093       10.510      869.178
10/04/2014  02:41:00     -168.863       29.841      -10.505       29.798       31.857       21.163      887.899     1014.839      447.864        1.593        0.118      171.480       15.364        0.008      338.118       10.551      869.168
10/04/2014  02:42:00     -111.800       14.016      -15.183       46.281       43.043       22.828     2141.935     1852.669      521.138        0.872        0.226      112.675       22.513        0.040      338.104       10.528      869.160
10/04/2014  02:43:00      -76.148      -18.369        1.343       31.540       32.448       16.524      994.743     1052.854      273.033        0.423        0.116       78.333       13.330        0.029      337.937       10.248      869.157
10/04/2014  02:44:00      -76.955      -30.896       -0.089       34.421       31.466       20.961     1184.832      990.117      439.382        0.475        0.131       82.925       17.323        0.044      337.798       10.016      869.153
10/04/2014  02:45:00      -74.623      -49.291       -6.732       37.218       25.146       17.097     1385.203      632.325      292.301        0.518        0.115       89.433        6.928        0.006      337.734        9.908      869.147
10/04/2014  02:46:00      -89.140      -49.097       -0.667       56.210       38.719       19.158     3159.545     1499.193      367.011        0.769        0.251      101.766       22.975        0.051      337.776        9.978      869.136
10/04/2014  02:47:00      -98.697      -28.777        3.599       41.977       34.301       21.232     1762.038     1176.549      450.787        0.699        0.169      102.807       20.923        0.041      337.788        9.999      869.140
10/04/2014  02:48:00      -63.399       -6.055        4.197       51.629       22.705       19.480     2665.565      515.517      379.479        0.382        0.178       63.687       23.165        0.132      337.740        9.918      869.135
10/04/2014  02:49:00     -111.548      -11.009       -7.668       33.633       32.654       19.726     1131.203     1066.258      389.114        0.760        0.129      112.090       17.410        0.024      337.842       10.087      869.121
10/04/2014  02:50:00      -95.351      -14.941       -1.807       39.647       28.604       22.661     1571.870      818.203      513.531        0.611        0.145       96.514       19.518        0.041      337.797       10.013      869.124
10/04/2014  02:51:00      -85.379      -23.491        3.061       34.646       21.498       15.814     1200.372      462.153      250.084        0.488        0.096       88.552       12.271        0.019      337.838       10.083      869.124
10/04/2014  02:52:00     -117.924      -45.609       -0.124       30.334       24.486       19.161      920.141      599.587      367.131        0.894        0.094      126.437       19.326        0.023      337.895       10.176      869.117
10/04/2014  02:53:00      -92.001      -41.416        1.776       33.385       20.534       17.493     1114.547      421.644      306.012        0.601        0.092      100.893       13.509        0.018      337.820       10.052      869.109
10/04/2014  02:54:00      -61.021      -29.213        6.328       30.194       14.989       18.610      911.661      224.684      346.314        0.305        0.074       67.653       13.783        0.042      337.753        9.941      869.109
10/04/2014  02:55:00      -44.579      -35.769        4.219       33.372       21.425       15.203     1113.701      459.027      231.122        0.254        0.090       57.155       15.717        0.076      337.771        9.969      869.100
10/04/2014  02:56:00      -45.221      -40.248        6.268       42.889       29.940       22.355     1839.445      896.398      499.749        0.347        0.162       60.538       23.772        0.154      337.709        9.866      869.092
10/04/2014  02:57:00      -29.645      -30.535       17.650       38.351       29.068       20.297     1470.777      844.962      411.978        0.242        0.136       42.558       23.244        0.298      337.670        9.801      869.089
10/04/2014  02:58:00      -84.386      -66.611       -5.174       30.069       34.698       22.728      904.137     1203.945      516.574        0.710        0.131      107.508       17.536        0.027      337.871       10.137      869.087
10/04/2014  02:59:00      -72.815      -67.043        0.746       40.738       32.030       22.728     1659.623     1025.898      516.546        0.650        0.160       98.978       21.997        0.049      337.850       10.103      869.084
10/04/2014  03:00:00      -94.460      -56.358       -6.256       30.775       20.035       18.128      947.095      401.418      328.633        0.691        0.084      109.995       17.309        0.025      337.871       10.139      869.085
10/04/2014  03:01:00      -72.152      -61.586        2.322       32.726       27.138       23.462     1070.973      736.459      550.468        0.568        0.118       94.862       22.441        0.056      337.784        9.992      869.097
10/04/2014  03:02:00      -97.552      -55.975        0.475       25.478       28.241       16.032      649.151      797.567      257.032        0.718        0.085      112.471       15.141        0.018      337.730        9.901      869.100
10/04/2014  03:03:00     -100.821      -53.334       -2.983       20.100       28.348       14.787      404.008      803.622      218.669        0.722        0.071      114.059       11.913        0.011      337.750        9.935      869.097
10/04/2014  03:04:00      -80.944      -50.637       -4.097       24.364       16.560       14.453      593.623      274.247      208.888        0.510        0.054       95.478       10.226        0.011      337.725        9.892      869.101
10/04/2014  03:05:00      -77.873      -47.895       -5.084       34.569       23.177       19.561     1194.990      537.181      382.624        0.525        0.106       91.423       13.654        0.022      337.814       10.042      869.096
10/04/2014  03:06:00      -57.186      -43.232        0.538       33.586       24.874       19.048     1128.010      618.701      362.809        0.362        0.105       71.689       19.350        0.073      337.741        9.920      869.083
10/04/2014  03:07:00      -72.684      -47.226        0.914       26.907       20.283       14.083      723.979      411.400      198.318        0.442        0.067       86.680       10.240        0.014      337.714        9.875      869.078
10/04/2014  03:08:00      -45.281      -32.176        6.975       35.627       28.254       17.759     1269.305      798.277      315.391        0.276        0.119       55.549       20.414        0.135      337.710        9.869      869.081
10/04/2014  03:09:00      -26.650      -21.340       -1.528       28.048       23.948       17.452      786.692      573.491      304.580        0.142        0.083       34.141       13.353        0.153      337.726        9.895      869.088
10/04/2014  03:10:00      -48.794      -36.977        2.049       35.753       15.009       15.750     1278.287      225.266      248.061        0.275        0.088       61.222       15.285        0.062      337.717        9.881      869.092
10/04/2014  03:11:00      -47.390      -33.435       -1.893       39.568       21.508       19.743     1565.631      462.591      389.801        0.289        0.121       57.997       19.396        0.112      337.742        9.922      869.086
10/04/2014  03:12:00      -50.781      -43.157       -1.115       36.929       29.906       15.531     1363.744      894.362      241.207        0.347        0.125       66.643       16.775        0.063      337.709        9.866      869.076
10/04/2014  03:13:00      -47.623      -32.065        1.102       36.175       23.120       12.294     1308.655      534.555      151.133        0.265        0.100       57.412       13.998        0.059      337.627        9.730      869.078
10/04/2014  03:14:00      -55.730      -40.630        5.358       43.855       21.199       18.337     1923.273      449.393      336.257        0.375        0.135       68.968       23.582        0.117      337.586        9.659      869.064
10/04/2014  03:15:00      -69.076      -36.557        3.736       39.896       24.653       18.098     1591.721      607.761      327.547        0.432        0.126       78.153       16.021        0.042      337.630        9.736      869.060
10/04/2014  03:16:00      -59.898      -36.664        7.017       34.475       22.565       22.479     1188.550      509.169      505.303        0.359        0.110       70.229       22.483        0.102      337.596        9.677      869.053
10/04/2014  03:17:00      -86.035      -35.627       -0.402       17.058       18.556       11.247      290.991      344.322      126.500        0.472        0.038       93.119        8.889        0.009      337.666        9.795      869.057
10/04/2014  03:18:00      -91.532      -48.501       -1.549       15.716       11.534       10.900      246.982      133.033      118.799        0.562        0.025      103.588        9.166        0.008      337.749        9.933      869.049
10/04/2014  03:19:00      -84.015      -51.434       -3.656       27.469       20.361       15.406      754.572      414.571      237.355        0.556        0.070       98.509       13.203        0.018      337.718        9.881      869.038
10/04/2014  03:20:00      -66.692      -38.801        5.017       23.112       18.888       15.482      534.171      356.769      239.680        0.355        0.057       77.158       14.306        0.034      337.698        9.846      869.030
10/04/2014  03:21:00      -63.165      -18.944       -0.796       23.129       18.339       11.647      534.953      336.313      135.649        0.268        0.050       65.945        9.543        0.021      337.519        9.548      869.026
10/04/2014  03:22:00      -83.894      -27.901       -5.111       10.649       17.874        7.559      113.403      319.471       57.138        0.417        0.025       88.412        5.492        0.004      337.625        9.725      869.027
10/04/2014  03:23:00      -78.501      -25.149       -1.947       15.748       14.913       12.279      247.990      222.408      150.773        0.371        0.031       82.431        9.060        0.012      337.593        9.671      869.031
10/04/2014  03:24:00      -79.837      -31.547       -0.853       10.657        9.538        7.401      113.572       90.969       54.773        0.381        0.013       85.844        5.682        0.004      337.664        9.791      869.029
10/04/2014  03:25:00      -80.600      -25.283       -4.995       10.993        8.959        6.771      120.843       80.268       45.848        0.370        0.012       84.473        3.633        0.002      337.685        9.825      869.024
10/04/2014  03:26:00      -89.697      -34.449       -9.832       14.246       12.920        5.798      202.940      166.914       33.614        0.487        0.020       96.084        2.821        0.001      337.697        9.846      869.034
10/04/2014  03:27:00     -101.809      -40.457       -7.977        9.732       10.320        6.913       94.702      106.507       47.789        0.616        0.012      109.553        3.829        0.001      337.620        9.717      869.034
10/04/2014  03:28:00      -88.115      -32.273      -13.030       11.167       17.126        7.790      124.698      293.315       60.677        0.473        0.024       93.840        6.971        0.006      337.574        9.638      869.031
10/04/2014  03:29:00      -84.736      -52.883      -10.254       19.894       14.268       11.759      395.754      203.585      138.278        0.541        0.037       99.884        3.853        0.001      337.534        9.574      869.028
10/04/2014  03:30:00      -73.008      -57.124       -6.315       23.675       16.022       11.987      560.523      256.709      143.694        0.480        0.048       92.700        6.952        0.006      337.497        9.511      869.036
10/04/2014  03:31:00      -99.534      -58.885      -12.366       27.297       17.438       16.116      745.115      304.090      259.717        0.742        0.065      115.648        9.664        0.007      337.509        9.530      869.043
10/04/2014  03:32:00     -105.726      -35.649       -7.835       28.278       22.475       11.349      799.644      505.146      128.793        0.697        0.072      111.574        8.241        0.005      337.478        9.479      869.049
10/04/2014  03:33:00     -114.993      -36.353       -8.764       21.083       14.142       10.544      444.513      200.009      111.174        0.769        0.038      120.602        9.274        0.006      337.488        9.498      869.045
10/04/2014  03:34:00     -123.907      -36.909       -8.677       12.920       16.198       11.323      166.937      262.377      128.201        0.867        0.028      129.288        5.499        0.002      337.480        9.481      869.040
10/04/2014  03:35:00     -111.572      -40.331       -1.803       28.137       17.293       16.229      791.676      299.039      263.369        0.772        0.068      118.638       12.976        0.012      337.457        9.444      869.042
10/04/2014  03:36:00     -103.456      -33.192       -4.180       41.921       19.761       17.464     1757.329      390.489      304.989        0.714        0.123      108.650       20.671        0.036      337.362        9.285      869.050
10/04/2014  03:37:00      -97.828      -25.198       -3.553       26.416       18.864       13.428      697.784      355.835      180.301        0.573        0.062      101.022       13.939        0.019      337.264        9.120      869.053
10/04/2014  03:38:00     -111.922      -30.420      -12.503       16.648       14.228       10.981      277.172      202.422      120.591        0.710        0.030      115.983        7.624        0.004      337.214        9.038      869.052
10/04/2014  03:39:00      -99.257      -17.210       -7.961       24.670       16.207       15.852      608.604      262.671      251.287        0.567        0.056      100.738       14.011        0.019      337.274        9.138      869.048
10/04/2014  03:40:00      -90.518      -38.437       -3.617       19.280       18.221        9.010      371.729      332.020       81.174        0.523        0.039       98.341        6.563        0.004      337.382        9.319      869.049
10/04/2014  03:41:00      -99.554      -34.753       -7.279       17.880       17.796        8.238      319.710      316.692       67.866        0.594        0.035      105.446        7.478        0.005      337.538        9.578      869.045
10/04/2014  03:42:00      -99.380      -27.399       -3.820       22.053       13.134       11.862      486.320      172.492      140.710        0.572        0.040      103.087       12.792        0.015      337.500        9.517      869.035
10/04/2014  03:43:00      -87.740      -26.712       -2.033       16.511       13.979       10.348      272.617      195.422      107.090        0.450        0.029       91.716        4.381        0.002      337.510        9.533      869.025
10/04/2014  03:44:00      -78.341      -39.167       -6.896       12.398       11.203        8.497      153.706      125.510       72.206        0.404        0.018       87.586        3.381        0.001      337.445        9.422      869.017
10/04/2014  03:45:00      -79.080      -33.973      -10.832       11.093        9.721        8.781      123.054       94.494       77.103        0.391        0.015       86.069        4.748        0.003      337.412        9.368      869.014
10/04/2014  03:46:00      -89.335      -40.159      -12.993        8.095        9.996        7.126       65.529       99.927       50.774        0.499        0.011       97.946        4.148        0.002      337.373        9.303      869.020
10/04/2014  03:47:00      -86.671      -34.249      -10.305        9.280       10.239        8.168       86.121      104.847       66.712        0.452        0.013       93.193        2.399        0.001      337.389        9.329      869.024
10/04/2014  03:48:00      -82.483      -31.503      -12.996        8.001        9.496        6.854       64.020       90.169       46.976        0.408        0.010       88.294        2.276        0.001      337.419        9.378      869.009
10/04/2014  03:49:00      -80.062      -29.635      -12.140        8.869        9.659        7.179       78.666       93.299       51.533        0.383        0.011       85.371        3.640        0.002      337.388        9.328      868.994
10/04/2014  03:50:00      -89.030      -35.343      -10.497       11.337       12.573        7.968      128.517      158.077       63.494        0.482        0.018       95.789        5.445        0.003      337.406        9.358      868.984
10/04/2014  03:51:00      -90.366      -33.839       -8.481       13.608       13.651       10.346      185.187      186.338      107.031        0.493        0.024       96.494        6.571        0.005      337.379        9.313      868.980
10/04/2014  03:52:00      -89.469      -30.954      -16.878       13.759       13.073        8.549      189.299      170.914       73.080        0.484        0.022       94.673        4.255        0.002      337.360        9.283      868.980
10/04/2014  03:53:00      -97.771      -33.423       -7.865       15.942       20.314       10.709      254.155      412.649      114.682        0.576        0.039      103.326        9.276        0.008      337.332        9.235      868.975
10/04/2014  03:54:00     -103.849      -47.784       -9.066       11.503       12.013        8.675      132.322      144.321       75.264        0.675        0.018      114.315        3.657        0.001      337.325        9.222      868.981
10/04/2014  03:55:00      -83.662      -51.006       -7.202       21.234       13.931       12.566      450.888      194.061      157.908        0.523        0.040       97.984        5.129        0.003      337.335        9.238      868.977
10/04/2014  03:56:00      -91.953      -56.421       -9.088       20.789       17.240       14.562      432.184      297.227      212.055        0.633        0.047      107.882        9.537        0.008      337.401        9.350      868.977
10/04/2014  03:57:00     -107.173      -34.157      -10.222       14.815       20.617        9.635      219.473      425.066       92.843        0.675        0.037      112.484        2.706        0.001      337.447        9.427      868.978
10/04/2014  03:58:00     -102.248      -25.073      -12.607       10.531       12.444        9.910      110.912      154.859       98.208        0.580        0.018      105.277        5.294        0.003      337.368        9.296      868.984
10/04/2014  03:59:00      -91.578      -19.321      -13.400       14.257       12.835       11.803      203.262      164.741      139.306        0.472        0.025       93.594        4.798        0.003      337.363        9.285      868.986
10/04/2014  04:00:00     -102.053      -18.570       -9.485       17.224       13.791       10.496      296.672      190.180      110.176        0.572        0.030      103.729        7.760        0.006      337.307        9.194      868.999
10/04/2014  04:01:00     -109.909      -20.177       -9.492       25.145       16.357       14.047      632.247      267.557      197.307        0.684        0.055      111.746       14.796        0.018      337.288        9.161      869.006
10/04/2014  04:02:00     -115.163      -27.789       -8.986       19.691       13.833       12.461      387.723      191.341      155.273        0.742        0.037      118.468        9.991        0.007      337.255        9.105      869.017
10/04/2014  04:03:00     -111.832      -24.249      -10.270       28.188       15.860       15.472      794.582      251.532      239.377        0.724        0.064      114.431       15.903        0.019      337.229        9.062      869.025
10/04/2014  04:04:00     -116.457      -17.115      -10.801       28.616       18.513       15.673      818.900      342.740      245.636        0.769        0.070      117.708       13.333        0.013      337.177        8.974      869.012
10/04/2014  04:05:00     -126.684      -22.145      -15.052       18.710       14.409       14.679      350.073      207.617      215.484        0.877        0.039      128.605       12.279        0.009      337.118        8.876      869.003
10/04/2014  04:06:00     -127.427      -39.065      -16.589       11.100       10.525       10.253      123.201      110.774      105.134        0.919        0.017      133.280        6.563        0.002      337.183        8.984      868.992
10/04/2014  04:07:00     -110.931      -32.702       -9.394       22.687       17.991       16.841      514.693      323.688      283.631        0.729        0.056      115.651       15.117        0.017      337.125        8.888      868.989
10/04/2014  04:08:00     -118.205      -23.727       -9.908       17.469       16.143       11.402      305.176      260.593      130.012        0.766        0.035      120.562        7.599        0.004      337.154        8.935      868.990
10/04/2014  04:09:00     -115.990      -25.510      -11.479       23.268       20.678       11.876      541.384      427.565      141.045        0.767        0.055      118.762       13.495        0.013      337.078        8.808      868.993
10/04/2014  04:10:00     -101.613      -16.842       -7.501       30.478       15.046       14.314      928.932      226.394      204.883        0.601        0.068      103.000       15.528        0.023      337.098        8.843      868.990
10/04/2014  04:11:00     -101.758      -20.783       -6.650       37.569       21.864       17.299     1411.440      478.051      299.244        0.651        0.109      103.859       19.025        0.034      337.062        8.780      868.978
10/04/2014  04:12:00     -139.836      -27.509      -13.747       13.571       11.808       12.697      184.160      139.424      161.213        1.049        0.024      142.516        7.479        0.003      336.997        8.672      868.976
10/04/2014  04:13:00     -131.260      -41.595      -12.757       21.292       15.819       13.792      453.337      250.238      190.220        1.001        0.045      137.693       13.010        0.009      337.011        8.698      868.973
10/04/2014  04:14:00     -135.983      -47.226      -19.002       19.775       15.610       14.775      391.067      243.672      218.306        1.097        0.043      143.950        5.997        0.002      337.090        8.828      868.961
10/04/2014  04:15:00     -125.317      -35.994       -9.121       21.464       15.698       14.500      460.697      246.439      210.240        0.900        0.046      130.384       13.460        0.011      337.088        8.825      868.948
10/04/2014  04:16:00     -129.836      -37.697      -14.632       12.018       15.506       11.991      144.427      240.421      143.780        0.951        0.026      135.198        5.662        0.002      337.062        8.780      868.951
10/04/2014  04:17:00     -118.582      -36.641      -14.923       20.864       21.649       13.516      435.289      468.674      182.695        0.836        0.054      124.113        8.422        0.005      337.056        8.771      868.952
10/04/2014  04:18:00     -117.063      -40.954      -10.373        9.882       13.664       11.790       97.661      186.697      139.001        0.796        0.021      124.020        4.719        0.001      337.065        8.787      868.952
10/04/2014  04:19:00     -104.906      -38.516       -9.393       12.275       17.623       11.152      150.681      310.562      124.368        0.658        0.029      111.753        7.717        0.005      337.067        8.790      868.961
10/04/2014  04:20:00     -102.884      -51.686       -6.479       14.826       16.801       11.684      219.818      282.281      136.519        0.697        0.032      115.137        7.173        0.004      337.097        8.841      868.962
10/04/2014  04:21:00      -99.110      -31.901      -10.199       10.050       15.964       10.451      101.002      254.857      109.232        0.570        0.023      104.118        4.115        0.002      337.061        8.779      868.975
10/04/2014  04:22:00     -119.991      -43.510      -11.289       13.571       10.780        9.420      184.170      116.204       88.743        0.840        0.019      127.636        5.134        0.002      337.123        8.883      868.987
10/04/2014  04:23:00     -110.431      -34.412       -8.835       17.872       17.092       11.168      319.408      292.140      124.718        0.710        0.037      115.668        8.191        0.005      337.112        8.865      868.981
10/04/2014  04:24:00     -110.954      -60.413       -5.137       19.603       14.593       11.798      384.287      212.960      139.198        0.836        0.037      126.334       11.046        0.008      337.109        8.861      868.977
10/04/2014  04:25:00     -108.483      -56.260       -4.429       14.560       16.810       11.668      211.983      282.576      136.135        0.779        0.032      122.204        9.543        0.006      337.170        8.963      868.989
10/04/2014  04:26:00     -105.775      -35.778       -9.062       10.345       13.214        7.697      107.021      174.611       59.239        0.645        0.017      111.662        4.321        0.001      337.119        8.876      868.986
10/04/2014  04:27:00     -109.225      -17.975       -9.602       22.599       12.976       10.071      510.731      168.369      101.431        0.656        0.039      110.694        8.785        0.006      337.119        8.879      868.982
10/04/2014  04:28:00      -95.772      -19.296      -10.106       24.410       14.724       10.723      595.837      216.794      114.975        0.529        0.046       97.697        9.616        0.010      337.095        8.837      868.985
10/04/2014  04:29:00      -90.163      -25.571       -9.214       22.248       19.329       13.057      494.980      373.615      170.489        0.495        0.052       93.719        9.630        0.011      337.021        8.713      868.998
10/04/2014  04:30:00      -96.901      -39.804      -10.355       10.417       12.885        9.371      108.519      166.036       87.812        0.572        0.018      104.758        5.410        0.003      337.070        8.795      869.007
10/04/2014  04:31:00      -96.908      -38.815      -12.214        7.279        9.133       11.748       52.988       83.408      138.007        0.566        0.014      104.392        5.583        0.003      337.021        8.712      869.007
10/04/2014  04:32:00      -89.559      -32.208       -6.404       14.921       17.155       10.883      222.649      294.306      118.430        0.487        0.032       95.174        9.734        0.010      337.039        8.743      869.008
10/04/2014  04:33:00      -81.760      -36.620       -7.861       17.584       17.608       12.568      309.184      310.053      157.963        0.443        0.039       89.587       11.424        0.016      337.135        8.904      869.007
10/04/2014  04:34:00     -103.971      -37.156      -10.471       12.224       17.811       10.752      149.425      317.219      115.608        0.644        0.029      110.410        5.265        0.002      337.210        9.031      869.015
10/04/2014  04:35:00      -95.770      -33.324      -11.628       15.280       15.740       14.905      233.491      247.741      222.172        0.556        0.035      101.402       11.360        0.013      337.178        8.978      869.017
10/04/2014  04:36:00      -96.373      -23.071      -12.613       15.577       12.077        9.961      242.658      145.858       99.227        0.523        0.024       99.096        7.802        0.006      337.172        8.967      869.013
10/04/2014  04:37:00      -94.981      -17.684      -11.663       12.279       12.169        9.290      150.776      148.092       86.307        0.493        0.019       96.613        6.265        0.004      337.132        8.899      869.027
10/04/2014  04:38:00     -101.725       -7.556      -11.425       10.294       11.612       10.606      105.974      134.827      112.496        0.544        0.018      102.005        5.559        0.003      337.062        8.781      869.036
10/04/2014  04:39:00     -108.275      -22.558      -15.995       13.151       12.531        8.761      172.947      157.030       76.752        0.645        0.020      110.600        6.801        0.004      337.077        8.806      869.030
10/04/2014  04:40:00     -109.188      -12.532      -13.787       20.751       12.310       11.502      430.619      151.532      132.303        0.649        0.036      109.905       10.009        0.008      337.051        8.762      869.020
10/04/2014  04:41:00     -133.767      -12.421      -17.394        9.473       12.858       11.222       89.742      165.326      125.936        0.937        0.019      134.343        3.622        0.001      337.009        8.692      869.027
10/04/2014  04:42:00     -128.039      -22.953      -22.056        9.862       18.534       10.765       97.255      343.513      115.886        0.898        0.028      130.080        7.436        0.003      336.976        8.637      869.031
10/04/2014  04:43:00     -135.563      -44.724      -22.729        9.180       12.107       10.014       84.280      146.589      100.270        1.061        0.017      142.750        4.913        0.001      336.925        8.554      869.041
10/04/2014  04:44:00     -123.454      -40.917      -11.917       13.451       13.714       13.271      180.925      188.070      176.116        0.880        0.027      130.058        8.473        0.004      336.876        8.471      869.043
10/04/2014  04:45:00     -131.742      -45.875      -19.110       11.508       13.842        9.386      132.440      191.597       88.094        1.012        0.021      139.501        6.854        0.002      336.873        8.467      869.039
10/04/2014  04:46:00     -126.384      -39.940      -14.438       13.193       12.645        8.816      174.067      159.901       77.716        0.909        0.021      132.545        3.318        0.001      336.865        8.452      869.041
10/04/2014  04:47:00     -116.139      -33.854       -7.211       28.637       18.070       16.296      820.091      326.509      265.566        0.805        0.071      120.973       17.984        0.022      336.853        8.433      869.042
10/04/2014  04:48:00     -119.544      -30.357       -6.578       18.008       20.471       11.275      324.272      419.079      127.117        0.806        0.044      123.339        7.087        0.003      336.862        8.448      869.047
10/04/2014  04:49:00     -120.289      -35.748       -5.645       19.937       19.472       13.753      397.487      379.166      189.153        0.837        0.048      125.489       11.036        0.008      336.815        8.371      869.051
10/04/2014  04:50:00     -111.502      -46.309       -5.618       16.928       18.912       14.313      286.554      357.649      204.858        0.773        0.042      120.736       10.733        0.008      336.781        8.314      869.049
10/04/2014  04:51:00     -102.333      -58.622       -4.675       21.889       16.800       10.705      479.148      282.251      114.607        0.740        0.044      117.935       10.971        0.009      336.742        8.249      869.056
10/04/2014  04:52:00     -107.430      -65.612       -0.999       25.676       22.510       17.510      659.259      506.709      306.602        0.866        0.074      125.882       15.886        0.016      336.673        8.135      869.052
10/04/2014  04:53:00     -102.321      -59.595        2.436       44.314       33.852       21.090     1963.708     1145.943      444.788        0.879        0.178      118.411       20.984        0.031      336.720        8.212      869.041
10/04/2014  04:54:00      -91.708      -48.672        4.281       38.820       29.224       21.864     1506.973      854.042      478.031        0.682        0.142      103.824       21.489        0.043      336.771        8.297      869.038
10/04/2014  04:55:00     -115.386      -61.089        1.879       29.495       21.090       17.899      869.980      444.808      320.361        0.934        0.082      130.559       14.300        0.012      336.798        8.342      869.046
10/04/2014  04:56:00     -113.487      -55.738        0.021       30.469       26.763       20.318      928.368      716.258      412.815        0.902        0.103      126.436       19.627        0.024      336.818        8.376      869.052
10/04/2014  04:57:00      -96.681      -44.770        1.077       28.653       22.850       16.210      820.982      522.112      262.771        0.648        0.080      106.543       16.635        0.024      336.785        8.319      869.050
10/04/2014  04:58:00     -117.304      -47.859       -3.615       17.853       22.472       10.169      318.717      505.013      103.403        0.850        0.046      126.691        8.773        0.005      336.836        8.404      869.052
10/04/2014  04:59:00      -95.477      -42.438       -1.170       28.054       19.055       15.723      787.030      363.075      247.222        0.616        0.070      104.484       11.531        0.012      336.794        8.335      869.060
10/04/2014  05:00:00      -93.229      -45.179       -0.236       23.983       19.090       14.866      575.181      364.418      221.008        0.595        0.058      103.599       14.619        0.020      336.755        8.271      869.060
10/04/2014  05:01:00      -89.140      -49.028        2.284       26.478       20.707       16.259      701.086      428.798      264.358        0.587        0.070      101.733       14.972        0.022      336.773        8.300      869.048
10/04/2014  05:02:00      -86.717      -44.316        2.432       34.985       20.172       17.040     1223.953      406.927      290.372        0.571        0.096       97.385       19.899        0.042      336.783        8.317      869.047
10/04/2014  05:03:00      -95.725      -47.658       -4.767       21.755       17.931       15.891      473.271      321.507      252.521        0.625        0.052      106.933       11.777        0.012      336.876        8.472      869.047
10/04/2014  05:04:00     -105.676      -53.798       -2.837       22.674       19.899       12.066      514.115      395.980      145.592        0.756        0.053      118.582        6.509        0.003      336.905        8.519      869.045
10/04/2014  05:05:00      -96.497      -51.813       -3.473       21.618       21.462       12.154      467.322      460.627      147.721        0.654        0.054      109.528       10.205        0.009      336.936        8.571      869.040
10/04/2014  05:06:00     -112.749      -43.472       -0.786       15.847       19.915        9.334      251.142      396.610       87.126        0.767        0.037      120.839        7.538        0.004      336.939        8.576      869.030
10/04/2014  05:07:00      -95.075      -36.056       -0.304       14.699       15.378       10.776      216.072      236.469      116.122        0.545        0.028      101.682        8.591        0.007      336.900        8.510      869.030
10/04/2014  05:08:00      -98.097      -47.709       -7.386       17.535        9.809       11.072      307.479       96.208      122.587        0.624        0.026      109.083        9.158        0.007      336.917        8.540      869.032
10/04/2014  05:09:00      -62.810      -38.003        2.744       28.393       22.811       17.323      806.188      520.347      300.073        0.351        0.081       73.412       18.914        0.066      336.846        8.422      869.040
10/04/2014  05:10:00      -87.786      -54.294        0.126       19.643       13.206       12.326      385.832      174.399      151.926        0.568        0.036      103.220       10.159        0.010      336.875        8.469      869.042
10/04/2014  05:11:00     -100.626      -58.930       -2.516       14.070       12.195        9.601      197.952      148.712       92.178        0.702        0.022      116.612        8.199        0.005      336.903        8.516      869.045
10/04/2014  05:12:00      -90.708      -53.557      -10.967       23.279       15.011       13.195      541.934      225.326      174.103        0.608        0.047      105.339        7.190        0.005      336.830        8.394      869.056
10/04/2014  05:13:00      -84.546      -63.416       -2.276       26.127       23.110       19.193      682.609      534.086      368.381        0.638        0.079      105.686       15.384        0.021      336.861        8.446      869.061
10/04/2014  05:14:00      -95.729      -60.905       -7.057       29.767       20.474       16.613      886.100      419.181      275.998        0.725        0.079      113.461        7.595        0.004      336.895        8.503      869.066
10/04/2014  05:15:00      -57.710      -41.253        4.622       36.735       30.137       22.408     1349.493      908.218      502.128        0.391        0.138       70.938       20.533        0.084      336.798        8.341      869.070
10/04/2014  05:16:00      -52.004      -45.715        1.982       38.288       29.970       17.646     1465.946      898.193      311.369        0.374        0.134       69.240       18.201        0.069      336.716        8.205      869.079
10/04/2014  05:17:00      -95.047      -59.772        0.303       37.357       23.052       23.307     1395.524      531.373      543.197        0.754        0.124      112.279       17.602        0.025      336.782        8.315      869.083
10/04/2014  05:18:00      -49.672      -40.222        4.423       43.478       33.533       24.876     1890.302     1124.492      618.816        0.387        0.182       63.914       25.826        0.163      336.699        8.176      869.089
10/04/2014  05:19:00      -73.074      -43.135        2.170       43.487       24.947       22.541     1891.140      622.364      508.079        0.511        0.151       84.856       23.669        0.078      336.699        8.179      869.092
10/04/2014  05:20:00      -73.128      -40.212        5.861       47.850       24.133       20.750     2289.582      582.395      430.567        0.515        0.165       83.455       22.654        0.074      336.675        8.137      869.080
10/04/2014  05:21:00      -75.700      -70.443       -3.413       43.921       30.200       16.674     1929.079      912.011      278.024        0.691        0.156      103.405       21.581        0.044      336.689        8.160      869.079
10/04/2014  05:22:00      -99.597      -68.913        0.729       28.336       32.208       17.254      802.929     1037.340      297.693        0.840        0.107      121.114       14.372        0.014      336.747        8.258      869.083
10/04/2014  05:23:00      -95.739      -66.029        3.609       28.619       26.559       17.378      819.026      705.395      301.982        0.768        0.091      116.301       12.818        0.012      336.786        8.322      869.078
10/04/2014  05:24:00     -126.264      -72.137      -10.030       30.051       29.598       22.143      903.080      876.028      490.334        1.176        0.113      145.418       18.112        0.016      336.768        8.293      869.075
10/04/2014  05:25:00     -103.598      -76.090       -5.457       42.010       33.391       19.859     1764.800     1114.972      394.379        0.991        0.164      128.539       15.195        0.014      336.763        8.284      869.070
10/04/2014  05:26:00     -100.985      -48.380        2.550       45.071       36.902       28.439     2031.412     1361.794      808.799        0.837        0.210      111.976       30.068        0.072      336.775        8.303      869.075
10/04/2014  05:27:00      -71.208      -48.451        3.363       53.590       24.558       18.845     2871.924      603.091      355.130        0.563        0.192       86.128       21.820        0.064      336.737        8.241      869.091
10/04/2014  05:28:00      -46.407      -46.149        5.692       45.339       30.598       26.875     2055.592      936.242      722.272        0.401        0.186       65.447       25.067        0.147      336.677        8.140      869.092
10/04/2014  05:29:00      -81.550      -46.257       -1.582       49.174       30.733       20.761     2418.114      944.543      431.040        0.629        0.190       93.756       21.994        0.055      336.695        8.170      869.083
10/04/2014  05:30:00      -96.671      -38.665       -0.656       26.074       22.508       17.456      679.847      506.614      304.695        0.617        0.075      104.116       16.487        0.025      336.649        8.094      869.079
10/04/2014  05:31:00      -75.529      -43.524        6.994       30.218       25.722       20.825      913.145      661.627      433.679        0.483        0.100       87.172       19.694        0.051      336.621        8.046      869.079
10/04/2014  05:32:00      -86.525      -47.073        2.886       33.223       19.353       16.647     1103.766      374.552      277.125        0.573        0.088       98.501       13.395        0.018      336.640        8.078      869.081
10/04/2014  05:33:00      -68.837      -44.996        1.025       35.093       27.240       17.071     1231.510      742.020      291.417        0.451        0.113       82.238       17.639        0.046      336.590        7.995      869.082
10/04/2014  05:34:00      -91.822      -42.995       -3.039       32.985       24.877       17.606     1088.010      618.849      309.955        0.615        0.101      101.390       17.509        0.030      336.626        8.055      869.081
10/04/2014  05:35:00      -96.949      -50.600       -5.342       26.683       22.199       15.280      711.983      492.812      233.478        0.671        0.072      109.359       11.917        0.012      336.652        8.099      869.080
10/04/2014  05:36:00      -97.139      -34.708       -7.564       20.159       21.481       11.727      406.394      461.427      137.515        0.585        0.050      103.153        4.180        0.002      336.631        8.063      869.089
10/04/2014  05:37:00      -91.615      -44.936       -1.684       34.006       21.193       16.572     1156.387      449.149      274.623        0.615        0.094      102.042       16.038        0.025      336.547        7.923      869.102
10/04/2014  05:38:00      -89.687      -23.447       -6.738       29.189       27.163       12.966      851.969      737.809      168.121        0.520        0.088       92.702        9.736        0.011      336.493        7.832      869.109
10/04/2014  05:39:00      -86.681      -14.108       -0.600       37.886       22.563       18.926     1435.356      509.085      358.185        0.501        0.115       87.822       17.492        0.040      336.376        7.635      869.114
10/04/2014  05:40:00     -108.071      -17.110       -0.093       35.612       21.285       19.816     1268.247      453.055      392.672        0.704        0.106      109.417       20.639        0.036      336.312        7.528      869.116
10/04/2014  05:41:00     -100.737      -16.246       -1.725       34.789       23.263       18.606     1210.290      541.175      346.189        0.626        0.105      102.039       19.043        0.035      336.339        7.573      869.123
10/04/2014  05:42:00     -117.857      -22.966       -5.976       29.183       19.615       20.515      851.624      384.742      420.866        0.806        0.083      120.073       15.819        0.017      336.326        7.552      869.135
10/04/2014  05:43:00      -85.135      -17.099       -1.147       31.600       30.189       19.937      998.583      911.358      397.472        0.492        0.115       86.835       17.090        0.039      336.273        7.463      869.143
10/04/2014  05:44:00      -92.876      -20.846        0.051       30.340       19.353       18.133      920.513      374.557      328.813        0.534        0.081       95.187       19.481        0.042      336.302        7.514      869.139
10/04/2014  05:45:00      -97.519      -45.405       -4.023       29.291       20.675       17.775      857.957      427.442      315.954        0.659        0.080      107.571       17.322        0.026      336.462        7.780      869.138
10/04/2014  05:46:00     -112.024      -39.426       -9.175       22.136       24.856       15.450      490.019      617.841      238.716        0.777        0.067      118.760        9.016        0.006      336.486        7.821      869.144
10/04/2014  05:47:00      -88.856      -43.808       -7.805       21.114       20.881       12.888      445.808      435.999      166.109        0.546        0.052       99.068        7.102        0.005      336.558        7.941      869.152
10/04/2014  05:48:00     -103.508      -33.325       -3.860       22.113       16.918       11.190      489.004      286.223      125.212        0.637        0.045      108.740       10.497        0.009      336.529        7.892      869.161
10/04/2014  05:49:00      -98.349      -50.740       -2.808       19.266       22.876       12.376      371.191      523.318      153.168        0.665        0.052      110.667        9.893        0.008      336.539        7.910      869.166
10/04/2014  05:50:00     -101.963      -46.266       -5.189       17.611       16.852       12.213      310.164      283.995      149.169        0.665        0.037      111.969        9.657        0.007      336.508        7.858      869.162
10/04/2014  05:51:00      -89.955      -43.146       -3.386       20.185       21.001       13.477      407.428      441.054      181.635        0.550        0.052       99.767        9.355        0.009      336.497        7.839      869.166
10/04/2014  05:52:00      -55.503      -39.319        8.736       29.493       22.182       16.865      869.860      492.028      284.428        0.317        0.082       68.019       17.078        0.063      336.509        7.859      869.167
10/04/2014  05:53:00      -60.464      -48.900        0.925       27.255       22.271       14.059      742.849      495.976      197.654        0.374        0.072       77.763       13.450        0.030      336.523        7.883      869.173
10/04/2014  05:54:00      -41.173      -32.998        5.072       42.972       22.598       16.477     1846.611      510.673      271.479        0.272        0.131       52.764       16.209        0.094      336.490        7.826      869.187
10/04/2014  05:55:00      -22.321      -21.935        1.870       28.424       17.358       15.727      807.950      301.287      247.352        0.117        0.068       31.295       13.304        0.181      336.406        7.685      869.192
10/04/2014  05:56:00      -31.585      -29.184        1.860       24.761       15.908       14.315      613.083      253.067      204.918        0.146        0.054       43.004       15.537        0.131      336.442        7.746      869.196
10/04/2014  05:57:00      -51.290      -28.993       -1.394       24.849       15.415       11.834      617.472      237.632      140.035        0.223        0.050       58.917        9.793        0.028      336.484        7.817      869.198
10/04/2014  05:58:00      -41.590      -35.514        0.060       28.763       21.186       14.411      827.301      448.862      207.689        0.224        0.074       54.690       15.435        0.080      336.401        7.678      869.210
10/04/2014  05:59:00      -86.521      -80.731       -4.166       23.602       22.766       13.602      557.070      518.312      185.004        0.764        0.063      118.335       10.326        0.008      336.481        7.813      869.217
10/04/2014  06:00:00      -71.904      -55.804       -1.042       31.478       28.033       17.903      990.895      785.831      320.516        0.519        0.105       91.018       16.833        0.034      336.477        7.805      869.220
10/04/2014  06:01:00      -54.330      -45.102        3.919       27.857       16.783       16.863      776.008      281.663      284.364        0.317        0.067       70.612       17.696        0.063      336.467        7.788      869.217
10/04/2014  06:02:00      -82.903      -41.242       -7.868       18.887       15.672       11.582      356.705      245.597      134.146        0.469        0.037       92.595        6.657        0.005      336.564        7.951      869.212
10/04/2014  06:03:00      -82.716      -56.161      -11.157       15.623       22.909       16.008      244.074      524.834      256.244        0.557        0.051       99.980        7.541        0.006      336.512        7.862      869.208
10/04/2014  06:04:00      -64.037      -54.172      -10.557       23.436       21.702       12.827      549.230      470.975      164.529        0.417        0.059       83.877       10.275        0.015      336.489        7.826      869.209
10/04/2014  06:05:00      -66.722      -45.089       -1.863       36.208       16.468       17.308     1311.000      271.202      299.574        0.418        0.094       80.529       18.519        0.053      336.375        7.635      869.211
10/04/2014  06:06:00      -61.185      -42.732       -7.367       16.893       10.704       11.934      285.381      114.582      142.414        0.308        0.027       74.630        4.917        0.004      336.474        7.800      869.201
10/04/2014  06:07:00      -63.295      -44.129       -5.004       20.414       18.076       10.625      416.716      326.730      112.901        0.342        0.043       77.160        7.518        0.009      336.502        7.848      869.201
10/04/2014  06:08:00      -66.136      -55.557       -1.652       20.052       19.467       11.765      402.080      378.982      138.407        0.419        0.046       86.375        7.809        0.008      336.515        7.868      869.209
10/04/2014  06:09:00      -52.031      -44.061       -1.694       19.375       15.499       10.920      375.401      240.204      119.239        0.269        0.037       68.180        9.091        0.018      336.556        7.937      869.206
10/04/2014  06:10:00      -65.466      -41.164       -6.510       21.592       14.580       10.266      466.216      212.581      105.399        0.340        0.039       77.332        4.662        0.004      336.497        7.840      869.201
10/04/2014  06:11:00      -78.489      -38.930      -10.323       16.645       10.388       10.760      277.053      107.916      115.774        0.414        0.025       87.613        7.475        0.007      336.498        7.839      869.195
10/04/2014  06:12:00      -77.735      -41.513       -3.541       18.460       13.539       11.346      340.769      183.316      128.724        0.422        0.033       88.125        8.556        0.009      336.392        7.663      869.186
10/04/2014  06:13:00      -54.494      -44.131       -3.699       32.761       26.751       16.449     1073.273      715.636      270.583        0.349        0.103       70.122       15.433        0.048      336.412        7.697      869.181
10/04/2014  06:14:00      -89.676      -61.221       -3.863       18.380       15.219       14.776      337.822      231.631      218.337        0.630        0.039      108.580       12.625        0.014      336.459        7.775      869.174
10/04/2014  06:15:00      -74.417      -52.376       -9.111       28.793       24.035       14.004      829.055      577.691      196.117        0.498        0.080       91.001       11.085        0.015      336.392        7.662      869.175
10/04/2014  06:16:00      -76.249      -57.119       -0.632       26.631       16.292       15.305      709.195      265.415      234.248        0.514        0.060       95.271       12.826        0.018      336.396        7.669      869.178
10/04/2014  06:17:00      -92.475      -61.263       -6.580       31.846       20.127       15.661     1014.182      405.090      245.253        0.701        0.083      110.927       13.183        0.014      336.395        7.668      869.182
10/04/2014  06:18:00      -89.891      -65.022       -5.499       32.254       21.059       16.305     1040.288      443.501      265.844        0.704        0.087      110.942       12.644        0.013      336.396        7.669      869.194
10/04/2014  06:19:00      -71.819      -54.572       -3.974       38.516       27.851       22.170     1483.493      775.653      491.522        0.545        0.138       90.201       20.385        0.051      336.378        7.638      869.209
10/04/2014  06:20:00      -71.007      -52.305       -4.140       38.478       23.559       17.345     1480.545      555.043      300.859        0.507        0.117       88.192       14.472        0.027      336.413        7.699      869.221
10/04/2014  06:21:00      -57.502      -81.892        2.469       44.702       42.927       23.166     1998.255     1842.760      536.671        0.720        0.219      100.064       22.175        0.049      336.485        7.819      869.230
10/04/2014  06:22:00      -86.153      -63.057        0.820       48.222       37.876       21.883     2325.345     1434.584      478.845        0.782        0.212      106.764       23.370        0.048      336.441        7.745      869.238
10/04/2014  06:23:00      -91.450      -85.393        0.585       34.070       29.984       20.164     1160.735      899.054      406.568        0.906        0.123      125.120       17.284        0.019      336.468        7.789      869.233
10/04/2014  06:24:00      -62.967      -36.355       10.562       33.924       25.606       19.952     1150.853      655.686      398.095        0.380        0.110       72.709       20.015        0.076      336.348        7.589      869.237
10/04/2014  06:25:00      -92.210      -44.154        4.096       40.080       26.195       23.748     1606.408      686.152      563.951        0.666        0.143      102.236       20.126        0.039      336.361        7.611      869.233
10/04/2014  06:26:00      -94.684      -49.897        3.325       38.244       26.331       16.637     1462.614      693.312      276.777        0.695        0.122      107.027       20.124        0.035      336.371        7.627      869.228
10/04/2014  06:27:00      -91.721      -50.281        0.115       23.885       24.388       16.492      570.472      594.784      271.982        0.619        0.072      104.599       13.551        0.017      336.357        7.604      869.222
10/04/2014  06:28:00      -83.262      -36.633        3.956       28.022       24.293       18.854      785.249      590.172      355.474        0.501        0.087       90.964       16.469        0.033      336.381        7.644      869.215
10/04/2014  06:29:00     -100.948      -28.508       -5.577       17.430       20.425       14.826      303.813      417.193      219.816        0.599        0.047      104.896       11.141        0.011      336.400        7.677      869.204
10/04/2014  06:30:00      -77.210      -25.011       -4.210       21.304       18.499       12.008      453.860      342.217      144.187        0.377        0.047       81.160        9.561        0.014      336.462        7.780      869.200
10/04/2014  06:31:00      -80.190       -8.745       -1.396       31.345       13.743       13.751      982.530      188.858      189.099        0.393        0.068       80.665       16.270        0.041      336.323        7.549      869.205
10/04/2014  06:32:00     -101.050       -9.545      -10.245       16.463       12.926       12.982      271.033      167.069      168.530        0.551        0.030      101.500        6.561        0.004      336.285        7.484      869.203
10/04/2014  06:33:00     -103.050       -9.086       -6.312       20.910       14.681       13.352      437.212      215.519      178.280        0.579        0.042      103.450       11.743        0.013      336.235        7.401      869.202
10/04/2014  06:34:00      -85.638       -9.015       -7.821       35.874       18.564       12.636     1286.948      344.628      159.658        0.463        0.090       86.111       15.080        0.031      336.300        7.510      869.198
10/04/2014  06:35:00     -115.912       -6.503      -17.099       19.001       19.037       10.634      361.046      362.413      113.084        0.730        0.042      116.094        6.968        0.004      336.291        7.494      869.199
10/04/2014  06:36:00      -82.710      -13.045      -10.220       19.783       20.957       14.343      391.378      439.188      205.710        0.408        0.052       83.733       11.072        0.017      336.266        7.452      869.198
10/04/2014  06:37:00      -86.656      -29.515       -7.383       22.117       22.983       13.292      489.148      528.225      176.667        0.481        0.060       91.544       10.557        0.013      336.225        7.383      869.202
10/04/2014  06:38:00     -103.595      -28.475      -12.851       11.159       10.413        9.813      124.518      108.433       96.303        0.602        0.016      107.437        8.363        0.006      336.213        7.363      869.200
10/04/2014  06:39:00      -92.191      -35.826       -9.418       11.586       13.040       11.551      134.238      170.044      133.417        0.515        0.022       98.907        6.907        0.005      336.202        7.346      869.203
10/04/2014  06:40:00      -86.457      -44.045      -12.158       12.708        9.916        8.352      161.503       98.332       69.759        0.495        0.016       97.030        4.490        0.002      336.215        7.368      869.207
10/04/2014  06:41:00      -80.924      -32.745       -0.029       29.210       11.741       13.533      853.229      137.852      183.155        0.440        0.059       87.298       16.969        0.038      336.146        7.252      869.216
10/04/2014  06:42:00      -49.578      -35.395       -5.840       23.769       16.407       13.216      564.966      269.187      174.665        0.238        0.050       60.917       11.432        0.035      336.281        7.477      869.217
10/04/2014  06:43:00      -56.837      -37.952        2.506       22.903       24.305       15.090      524.538      590.712      227.696        0.301        0.067       68.344       14.172        0.043      336.252        7.429      869.222
10/04/2014  06:44:00      -45.664      -35.931        4.365       21.936       15.527       12.609      481.196      241.077      158.978        0.214        0.044       58.106       10.070        0.030      336.284        7.482      869.228
10/04/2014  06:45:00      -60.685      -54.548       -2.145       23.684       21.560       17.827      560.918      464.851      317.785        0.400        0.067       81.597       14.302        0.031      336.352        7.596      869.234
10/04/2014  06:46:00      -80.432      -40.125       -4.480       18.784       16.890       12.443      352.833      285.281      154.823        0.445        0.040       89.885        6.934        0.006      336.290        7.491      869.243
10/04/2014  06:47:00      -67.251      -53.535        1.433       34.899       26.131       16.328     1217.941      682.814      266.614        0.478        0.108       85.958       14.205        0.027      336.231        7.394      869.252
10/04/2014  06:48:00      -86.275      -52.724        3.015       25.541       25.526       13.934      652.323      651.592      194.145        0.586        0.075      101.110       10.432        0.011      336.301        7.510      869.261
10/04/2014  06:49:00      -75.688      -48.513        0.645       30.222       21.990       13.392      913.362      483.582      179.355        0.483        0.079       89.901       12.159        0.018      336.343        7.582      869.268
10/04/2014  06:50:00      -56.379      -35.886        3.653       36.543       25.716       17.517     1335.367      661.289      306.856        0.339        0.115       66.831       17.434        0.068      336.309        7.523      869.280
10/04/2014  06:51:00      -93.549      -55.553       -2.568       18.863       17.071       14.730      355.827      291.431      216.983        0.635        0.043      108.801        8.564        0.006      336.295        7.501      869.289
10/04/2014  06:52:00      -49.086      -35.215        6.225       41.605       25.711       19.770     1730.994      661.037      390.834        0.324        0.139       60.411       12.042        0.040      336.213        7.363      869.300
10/04/2014  06:53:00      -78.739      -41.628       -0.511       38.880       23.311       17.950     1511.684      543.424      322.218        0.515        0.119       89.066       16.757        0.035      336.266        7.452      869.307
10/04/2014  06:54:00      -73.465      -60.374        0.261       37.201       42.511       21.777     1383.941     1807.206      474.256        0.635        0.183       95.090       21.903        0.053      336.247        7.419      869.318
10/04/2014  06:55:00      -26.085      -28.852       19.779       29.620       29.361       22.566      877.368      862.040      509.233        0.208        0.112       38.896       16.753        0.186      336.270        7.460      869.330
10/04/2014  06:56:00      -74.507      -47.142       -3.868       29.013       23.084       12.085      841.753      532.858      146.043        0.465        0.076       88.168        8.522        0.009      336.319        7.539      869.344
10/04/2014  06:57:00      -50.517      -38.497        0.506       31.809       18.568       17.677     1011.843      344.780      312.479        0.285        0.083       63.514       16.918        0.071      336.257        7.438      869.357
10/04/2014  06:58:00      -81.206      -56.236       -8.876       31.294       22.100       15.357      979.323      488.416      235.845        0.577        0.085       98.777       10.253        0.011      336.274        7.466      869.366
10/04/2014  06:59:00      -84.501      -50.195       -6.895       26.194       19.852       13.821      686.151      394.108      191.031        0.549        0.064       98.285        5.146        0.003      336.271        7.462      869.370
10/04/2014  07:00:00      -61.755      -46.959       -1.997       34.327       21.564       15.895     1178.361      465.002      252.663        0.396        0.095       77.582       15.242        0.039      336.219        7.373      869.369
10/04/2014  07:01:00      -46.314      -48.226       -1.784       23.591       20.577       14.892      556.516      423.404      221.760        0.284        0.060       66.863       13.846        0.043      336.285        7.483      869.374
10/04/2014  07:02:00      -54.363      -26.320       -4.508       29.824       17.803       13.130      889.470      316.951      172.392        0.252        0.069       60.400       12.484        0.043      336.206        7.352      869.376
10/04/2014  07:03:00      -73.615      -34.370       -6.920       17.242       18.276       12.701      297.281      334.023      161.327        0.372        0.040       81.243        8.627        0.011      336.238        7.405      869.379
10/04/2014  07:04:00      -44.744      -20.284       -2.646       20.006       15.591        8.820      400.244      243.093       77.789        0.157        0.036       49.127        4.960        0.010      336.238        7.406      869.383
10/04/2014  07:05:00      -53.295      -30.028       -4.197       14.811       13.610        9.823      219.378      185.226       96.482        0.213        0.025       61.172        6.423        0.011      336.286        7.486      869.385
10/04/2014  07:06:00      -42.691      -21.312        2.604       28.809       13.173       14.086      829.974      173.537      198.414        0.174        0.060       47.715       13.147        0.076      336.221        7.377      869.387
10/04/2014  07:07:00      -66.397      -30.994       -8.040       13.056       10.029       10.695      170.450      100.585      114.373        0.291        0.019       73.275        4.779        0.004      336.165        7.285      869.384
10/04/2014  07:08:00      -43.681      -27.218        0.410       25.729       13.571        9.953      661.999      184.162       99.060        0.180        0.047       51.467       12.510        0.059      336.125        7.215      869.381
10/04/2014  07:09:00      -60.656      -37.784       -7.037       29.845       19.195       12.293      890.716      368.431      151.117        0.328        0.071       71.462       11.296        0.025      336.221        7.377      869.376
10/04/2014  07:10:00      -99.084      -67.715       -6.071       29.283       32.016       18.355      857.476     1025.004      336.896        0.833        0.111      120.012       16.439        0.019      336.242        7.412      869.371
10/04/2014  07:11:00      -80.723      -56.609       -9.806       31.326       21.938       13.628      981.321      481.277      185.720        0.573        0.082       98.594       12.620        0.016      336.174        7.298      869.369
10/04/2014  07:12:00      -85.187      -48.544        2.594       32.696       24.383       18.880     1069.022      594.544      356.453        0.582        0.101       98.048       17.725        0.033      336.187        7.320      869.369
10/04/2014  07:13:00      -39.861      -23.630        4.979       45.097       29.954       17.822     2033.724      897.264      317.625        0.271        0.162       46.338       20.288        0.192      336.181        7.311      869.368
10/04/2014  07:14:00      -94.863      -58.567       -3.748       35.515       40.291       20.790     1261.306     1623.325      432.229        0.788        0.166      111.486       16.364        0.022      336.274        7.466      869.370
10/04/2014  07:15:00      -88.294      -61.989       -2.409       42.743       29.834       20.483     1826.943      890.094      419.543        0.739        0.157      107.881       16.738        0.024      336.270        7.459      869.375
10/04/2014  07:16:00      -92.379      -38.913       -2.226       26.523       17.439       12.544      703.467      304.116      157.340        0.561        0.058      100.240       11.163        0.012      336.265        7.450      869.382
10/04/2014  07:17:00      -58.163      -31.621       -2.208       22.856       15.744        9.968      522.418      247.862       99.366        0.263        0.043       66.203        3.517        0.003      336.230        7.392      869.391
10/04/2014  07:18:00      -34.331      -38.917        2.242       32.390       24.653       17.331     1049.097      607.758      300.354        0.233        0.098       51.895       17.269        0.111      336.306        7.517      869.400
10/04/2014  07:19:00      -84.886      -62.395      -13.823       25.280       18.301       14.172      639.088      334.928      200.839        0.623        0.059      105.351       10.140        0.009      336.231        7.393      869.402
10/04/2014  07:20:00      -77.736      -64.973       -4.054       28.878       30.306       19.156      833.959      918.448      366.937        0.620        0.106      101.313       15.947        0.025      336.213        7.364      869.402
10/04/2014  07:21:00      -63.788      -40.061        0.581       34.784       17.951       14.366     1209.929      322.249      206.389        0.371        0.087       75.325        6.849        0.008      336.247        7.420      869.402
10/04/2014  07:22:00      -73.335      -32.780        0.579       17.685       16.426       12.692      312.775      269.811      161.098        0.360        0.037       80.328       11.559        0.021      336.258        7.438      869.416
10/04/2014  07:23:00      -74.867      -28.655      -10.781        8.455        9.542        7.139       71.488       91.054       50.960        0.338        0.011       80.163        4.745        0.004      336.286        7.485      869.432
10/04/2014  07:24:00      -91.708      -39.046      -11.454        9.825       10.489        8.915       96.526      110.020       79.469        0.518        0.014       99.675        2.589        0.001      336.254        7.432      869.433
10/04/2014  07:25:00      -84.965      -28.376       -6.440       14.733       18.223       10.413      217.049      332.073      108.438        0.436        0.033       89.578        7.216        0.006      336.261        7.443      869.443
10/04/2014  07:26:00      -66.212      -35.213       -7.110       19.203       22.855        8.794      368.746      522.349       77.331        0.332        0.048       74.993        8.276        0.012      336.309        7.524      869.445
10/04/2014  07:27:00      -93.156      -16.347       -5.612       17.216       12.710       13.386      296.374      161.532      179.190        0.481        0.032       94.579       12.088        0.016      336.281        7.477      869.445
10/04/2014  07:28:00     -100.345      -14.224      -12.790       12.231       10.848        7.645      149.596      117.682       58.439        0.538        0.016      101.348        4.392        0.002      336.318        7.540      869.460
10/04/2014  07:29:00      -86.601       -5.081      -10.005       10.249       11.602        8.953      105.043      134.607       80.156        0.397        0.016       86.750        3.423        0.002      336.385        7.652      869.463
10/04/2014  07:30:00      -81.788      -27.154      -10.679       13.728       16.013       13.238      188.467      256.406      175.233        0.408        0.031       86.178       10.068        0.014      336.421        7.711      869.466
10/04/2014  07:31:00      -83.600      -17.454       -7.495       12.346       16.960        9.497      152.436      287.630       90.191        0.394        0.027       85.403        5.027        0.003      336.363        7.614      869.470
10/04/2014  07:32:00      -69.138      -24.481      -10.938       11.857       11.912        8.412      140.583      141.908       70.754        0.293        0.018       73.344        6.076        0.007      336.381        7.645      869.478
10/04/2014  07:33:00      -39.243      -11.358        0.916       12.543       11.251        9.149      157.337      126.589       83.702        0.102        0.018       40.854        5.228        0.016      336.404        7.684      869.477
10/04/2014  07:34:00      -48.074       -9.618       -7.580       13.538       17.209        7.645      183.273      296.159       58.453        0.150        0.027       49.026        8.159        0.028      336.431        7.727      869.481
10/04/2014  07:35:00      -58.934       -6.451      -11.074       15.848        8.173        8.256      251.163       66.796       68.161        0.201        0.019       59.286        6.786        0.013      336.444        7.749      869.479
10/04/2014  07:36:00      -43.011        4.238       -9.282       15.008       13.119       12.077      225.236      172.108      145.847        0.125        0.027       43.219       10.461        0.059      336.468        7.789      869.485
10/04/2014  07:37:00      -35.013      -11.758       -9.730        8.271        8.808        8.140       68.416       77.588       66.268        0.084        0.011       36.935        6.073        0.027      336.624        8.052      869.486
10/04/2014  07:38:00      -36.528      -12.562       -8.965       11.015       12.717        7.021      121.330      161.728       49.291        0.095        0.017       38.628        4.184        0.012      336.706        8.187      869.495
10/04/2014  07:39:00      -18.702       -6.757       -0.511       14.892        9.314        6.838      221.778       86.755       46.756        0.038        0.018       19.886        5.167        0.068      337.062        8.783      869.516
10/04/2014  07:40:00      -18.495      -10.536        6.075        5.233        4.425        4.197       27.387       19.583       17.616        0.028        0.003       21.286        0.742        0.001      337.006        8.687      869.519
10/04/2014  07:41:00       -9.905       -7.706        2.184       11.289        6.319        8.470      127.443       39.924       71.749        0.020        0.012       12.550        4.377        0.122      337.164        8.953      869.523
10/04/2014  07:42:00      -29.824       -6.808       -2.557        6.802        5.786        5.898       46.265       33.477       34.781        0.053        0.006       30.591        1.081        0.001      336.875        8.469      869.530
10/04/2014  07:43:00      -24.088       -9.900       -1.063       12.113        9.541        8.818      146.723       91.027       77.760        0.050        0.016       26.043        7.375        0.080      336.994        8.667      869.531
10/04/2014  07:44:00      -21.319        8.572        5.634        7.956        6.581        6.657       63.303       43.311       44.312        0.036        0.008       22.978        2.571        0.013      337.066        8.788      869.546
10/04/2014  07:45:00       -7.195       -1.374        8.351       13.749        5.294        7.962      189.046       28.022       63.391        0.020        0.014        7.325        6.334        0.748      337.397        9.344      869.560
10/04/2014  07:46:00      -10.674       -3.994       10.651        7.391       10.556        8.861       54.624      111.440       78.521        0.024        0.012       11.397        7.814        0.470      337.371        9.300      869.561
10/04/2014  07:47:00       -4.171      -11.942        5.648        7.806        8.783        8.710       60.938       77.138       75.859        0.020        0.011       12.649        3.117        0.061      337.168        8.959      869.561
10/04/2014  07:48:00      -20.143      -10.587        4.157       12.620        6.942        9.185      159.268       48.192       84.371        0.041        0.015       22.756        4.729        0.043      337.070        8.795      869.560
10/04/2014  07:49:00      -29.934      -12.947       -6.133        8.828        5.439        5.485       77.941       29.586       30.085        0.062        0.007       32.614        1.752        0.003      337.118        8.876      869.565
10/04/2014  07:50:00      -31.571      -11.251       -4.921        5.772        4.496        3.849       33.314       20.217       14.814        0.061        0.003       33.516        2.330        0.005      337.117        8.874      869.564
10/04/2014  07:51:00      -32.727       -6.121       -3.570        7.195        5.038        5.201       51.768       25.386       27.050        0.061        0.005       33.295        3.786        0.013      337.135        8.905      869.572
10/04/2014  07:52:00      -36.609        0.704       -1.024        8.582        6.649        3.794       73.643       44.214       14.395        0.074        0.007       36.616        2.970        0.007      337.157        8.942      869.574
10/04/2014  07:53:00      -30.006       -0.976       -2.950        5.421        4.619        4.462       29.383       21.339       19.908        0.049        0.004       30.022        2.769        0.009      337.192        9.004      869.591
10/04/2014  07:54:00      -30.133        4.244       -3.489        7.103        4.066        5.487       50.450       16.532       30.107        0.052        0.005       30.430        4.790        0.025      337.206        9.024      869.599
10/04/2014  07:55:00      -35.531        0.645        0.393        4.978        4.517        6.717       24.777       20.406       45.112        0.068        0.005       35.537        2.309        0.004      337.187        8.995      869.617
10/04/2014  07:56:00      -29.040       -4.162       -2.395        5.143        4.326        7.846       26.454       18.716       61.554        0.049        0.005       29.337        1.595        0.003      337.236        9.075      869.634
10/04/2014  07:57:00      -26.587       -1.725       -2.619        4.250        5.566        4.619       18.063       30.986       21.334        0.039        0.004       26.643        2.906        0.012      337.261        9.115      869.638
10/04/2014  07:58:00      -29.496        5.758       -4.529        5.808        7.870        4.124       33.732       61.941       17.010        0.052        0.006       30.053        2.854        0.009      337.288        9.159      869.650
10/04/2014  07:59:00      -25.195       11.958        4.021       10.425        7.873       15.109      108.671       61.980      228.287        0.060        0.020       27.888        9.710        0.121      337.597        9.679      869.663
10/04/2014  08:00:00      -12.052       12.974       17.274        9.635       10.589        9.142       92.824      112.133       83.575        0.045        0.014       17.708        4.380        0.061      337.821       10.054      869.673
10/04/2014  08:01:00      -22.418        9.057        0.038       14.005       11.712        8.161      196.146      137.165       66.594        0.049        0.020       24.178        7.382        0.093      337.450        9.430      869.681
10/04/2014  08:02:00      -29.669        4.881        2.697        8.264        6.109        4.420       68.295       37.320       19.536        0.052        0.006       30.068        3.579        0.014      337.377        9.309      869.687
10/04/2014  08:03:00      -40.562        7.725       -2.154        6.642        6.107        5.941       44.119       37.289       35.297        0.091        0.006       41.291        3.335        0.007      337.428        9.396      869.689
10/04/2014  08:04:00      -34.109       15.054       -2.740       12.832       10.240        6.592      164.651      104.867       43.460        0.086        0.016       37.284        4.257        0.013      337.483        9.487      869.687
10/04/2014  08:05:00      -26.279        7.650        4.634        6.813        7.564        7.264       46.416       57.221       52.766        0.046        0.008       27.370        4.389        0.026      337.569        9.630      869.694
10/04/2014  08:06:00      -17.784        3.385       11.208        8.932        9.441        9.910       79.776       89.124       98.203        0.036        0.013       18.103        7.818        0.187      337.798       10.017      869.688
10/04/2014  08:07:00       -7.299        8.193       29.161        6.516       11.752        6.209       42.453      138.101       38.556        0.059        0.011       10.973        4.776        0.189      338.487       11.171      869.680
10/04/2014  08:08:00       14.507       21.509       20.362       11.976       14.050       13.015      143.417      197.414      169.379        0.080        0.026       25.944       10.170        0.154      337.973       10.309      869.674
10/04/2014  08:09:00       16.303       21.199       14.632       15.012       12.455       15.956      225.360      155.128      254.584        0.078        0.032       26.743       14.768        0.305      337.837       10.081      869.671
10/04/2014  08:10:00        3.450       17.339       20.191        9.692       11.969        8.857       93.927      143.252       78.440        0.052        0.016       17.679        4.328        0.060      338.094       10.513      869.675
10/04/2014  08:11:00      -14.215       -9.781        6.132        7.488        6.711        8.211       56.069       45.040       67.425        0.025        0.008       17.255        3.850        0.050      337.946       10.263      869.676
10/04/2014  08:12:00      -14.560       -4.581       -6.232       10.499        8.273       11.408      110.227       68.446      130.150        0.029        0.015       15.264        8.240        0.291      337.969       10.303      869.687
10/04/2014  08:13:00      -36.088       -4.130       -3.088        8.147        5.779        6.387       66.366       33.393       40.795        0.073        0.007       36.324        1.721        0.002      337.699        9.851      869.693
10/04/2014  08:14:00      -28.234        1.015        0.208        6.063        6.821        4.626       36.757       46.523       21.399        0.045        0.005       28.253        3.261        0.013      337.778        9.981      869.705
10/04/2014  08:15:00       -6.347        2.196        0.778       21.316        6.829       10.301      454.362       46.631      106.105        0.033        0.030        6.716        5.486        0.667      337.997       10.349      869.715
10/04/2014  08:16:00       -9.706       12.638        7.919       10.909       17.847       10.134      118.999      318.517      102.695        0.043        0.027       15.935        5.177        0.106      338.307       10.869      869.721
10/04/2014  08:17:00       18.979       11.743       22.660       20.184       13.212       13.982      407.378      174.553      195.498        0.089        0.039       22.319        8.183        0.134      338.518       11.224      869.726
10/04/2014  08:18:00       38.582       23.769        9.225       20.987       13.957       15.300      440.439      194.784      234.082        0.150        0.043       45.316       12.941        0.082      338.371       10.978      869.730
10/04/2014  08:19:00        9.607        7.503        4.472       10.549       17.069       13.186      111.281      291.351      173.870        0.037        0.029       12.190       11.130        0.834      338.522       11.231      869.736
10/04/2014  08:20:00        1.183        5.747       18.832        9.016       13.455       16.045       81.287      181.043      257.452        0.045        0.026        5.867        9.213        2.466      338.809       11.714      869.743
10/04/2014  08:21:00        0.036      -14.239       21.481       17.585       26.536       22.169      309.217      704.140      491.461        0.108        0.075       14.239       20.640        2.101      338.445       11.102      869.746
10/04/2014  08:22:00        1.599        2.477       25.730       18.266       26.384       20.075      333.646      696.137      402.991        0.105        0.072        2.948       18.023       37.371      338.627       11.407      869.755
10/04/2014  08:23:00        9.936      -50.667        6.795       22.767       18.121       22.176      518.335      328.360      491.780        0.203        0.067       51.632       17.390        0.113      338.173       10.644      869.752
10/04/2014  08:24:00       10.201      -54.203       -0.859       11.947       26.729       16.797      142.735      714.435      282.147        0.209        0.057       55.154       13.220        0.057      338.242       10.761      869.744
10/04/2014  08:25:00       16.024        2.954       17.501       23.574       22.440       19.441      555.746      503.540      377.966        0.100        0.072       16.294       14.300        0.770      338.511       11.213      869.746
10/04/2014  08:26:00       -9.478       10.560       29.842       12.896       26.069       17.634      166.299      679.578      310.958        0.112        0.058       14.190       15.495        1.192      338.736       11.591      869.748
10/04/2014  08:27:00      -11.219      -31.307       10.106       24.256       22.070       13.456      588.370      487.083      181.075        0.123        0.063       33.256       10.468        0.099      338.439       11.091      869.745
10/04/2014  08:28:00      -16.853       -0.113        9.735       18.229       10.816       15.563      332.281      116.996      242.194        0.054        0.035       16.853       13.467        0.639      338.670       11.480      869.750
10/04/2014  08:29:00      -23.549      -19.399       -1.035       22.358       17.890       16.675      499.899      320.048      278.050        0.101        0.055       30.511        9.551        0.098      338.318       10.889      869.747
10/04/2014  08:30:00      -20.186      -42.793       -7.719       15.339       14.691       15.117      235.287      215.816      228.538        0.149        0.034       47.315        6.752        0.020      338.275       10.816      869.745
10/04/2014  08:31:00      -28.274      -26.920      -12.383       24.679       21.968       17.443      609.033      482.598      304.275        0.154        0.070       39.039        8.974        0.053      338.329       10.906      869.738
10/04/2014  08:32:00      -49.890      -38.674        3.292       29.513       29.976       17.717      870.991      898.536      313.889        0.304        0.104       63.124       19.665        0.097      338.298       10.853      869.743
10/04/2014  08:33:00      -22.115       -3.372        1.541       11.084       15.456       14.932      122.858      238.876      222.962        0.054        0.029       22.370        8.253        0.136      338.418       11.055      869.747
10/04/2014  08:34:00      -21.412      -14.749       -4.113       14.561       13.043        6.729      212.016      170.124       45.279        0.056        0.021       26.000        2.805        0.012      338.384       10.998      869.755
10/04/2014  08:35:00      -46.791      -36.431      -10.169       24.266       21.312       12.980      588.844      454.193      168.481        0.242        0.061       59.302       11.067        0.035      338.362       10.961      869.758
10/04/2014  08:36:00      -34.824        4.308       -2.117       17.633       12.322       13.871      310.906      151.839      192.409        0.095        0.033       35.089        7.468        0.045      338.417       11.053      869.766
10/04/2014  08:37:00      -35.794      -12.659       -2.237       15.842       22.637        9.463      250.980      512.445       89.546        0.115        0.043       37.966        6.977        0.034      338.404       11.031      869.768
10/04/2014  08:38:00      -30.192      -21.586        1.664       22.870       20.471        9.571      523.053      419.050       91.605        0.121        0.052       37.115       10.426        0.079      338.467       11.138      869.774
10/04/2014  08:39:00      -44.510      -41.464        0.421       19.267       16.847       12.680      371.221      283.838      160.778        0.226        0.041       60.831        9.802        0.026      338.456       11.120      869.789
10/04/2014  08:40:00      -46.621      -54.757       -6.180       14.218       17.653       10.106      202.143      311.612      102.123        0.291        0.031       71.916        2.078        0.001      338.445       11.101      869.802
10/04/2014  08:41:00      -34.357      -49.363        3.306       16.722       15.115       11.067      279.635      228.472      122.481        0.213        0.032       60.142        3.419        0.003      338.442       11.097      869.807
10/04/2014  08:42:00      -42.494      -45.191       -1.429       14.009       31.796       14.935      196.250     1011.005      223.044        0.264        0.072       62.032        9.337        0.023      338.584       11.336      869.813
10/04/2014  08:43:00      -35.082      -36.195        5.706       15.528       17.302       13.128      241.116      299.374      172.353        0.164        0.036       50.407       10.758        0.046      338.668       11.476      869.812
10/04/2014  08:44:00      -33.931       -2.937       -3.051       17.559       11.386        8.918      308.305      129.642       79.526        0.084        0.026       34.058        4.196        0.015      338.693       11.517      869.824
10/04/2014  08:45:00      -12.070      -14.705       -4.011       18.052        7.850        8.958      325.870       61.630       80.250        0.042        0.023       19.024        4.471        0.055      338.817       11.726      869.825
10/04/2014  08:46:00      -20.984      -42.324        0.486       10.688       13.557       14.418      114.229      183.797      207.889        0.137        0.025       47.241       11.059        0.055      338.593       11.352      869.824
10/04/2014  08:47:00      -30.158      -12.139      -11.489       12.075        8.194        6.187      145.794       67.138       38.279        0.072        0.013       32.509        4.539        0.019      338.675       11.488      869.825
10/04/2014  08:48:00      -42.977       -3.303       -6.651       10.125       10.213        9.065      102.524      104.309       82.172        0.110        0.014       43.104        6.906        0.026      338.689       11.511      869.824
10/04/2014  08:49:00      -24.454        5.298      -11.661       14.228       16.510       12.001      202.448      272.564      144.031        0.069        0.031       25.021       11.533        0.212      339.000       12.034      869.827
10/04/2014  08:50:00      -19.779       -8.109       -0.987       11.117       10.338        8.694      123.598      106.884       75.589        0.038        0.015       21.377        5.339        0.062      338.945       11.941      869.825
10/04/2014  08:51:00      -47.762      -12.470       -2.349       16.077       10.004       11.553      258.455      100.081      133.481        0.147        0.025       49.363        9.138        0.034      338.824       11.737      869.835
10/04/2014  08:52:00      -36.546       -3.576       -6.519        8.970       11.332        4.588       80.458      128.407       21.049        0.081        0.011       36.720        1.994        0.003      338.860       11.797      869.837
10/04/2014  08:53:00      -19.280       -2.136       -6.937        5.514        5.664        6.323       30.402       32.077       39.981        0.026        0.005       19.398        3.834        0.039      339.054       12.123      869.840
10/04/2014  08:54:00      -33.388       -7.254      -10.803       16.451       10.382        6.402      270.637      107.787       40.988        0.085        0.021       34.167        6.602        0.037      339.060       12.136      869.833
10/04/2014  08:55:00      -38.840       -2.841        3.081       14.101       12.352       11.103      198.846      152.572      123.286        0.100        0.024       38.944        7.501        0.037      339.173       12.324      869.829
10/04/2014  08:56:00      -28.678      -18.582       -1.784       10.785       13.790       10.142      116.314      190.165      102.864        0.079        0.020       34.172        7.378        0.047      339.110       12.219      869.826
10/04/2014  08:57:00      -13.073      -21.833       -0.784       15.296       14.823       12.462      233.958      219.709      155.290        0.063        0.030       25.447       10.184        0.160      339.195       12.362      869.821
10/04/2014  08:58:00      -15.100      -10.960        4.194       12.406       15.222        9.627      153.913      231.713       92.673        0.042        0.024       18.658        4.022        0.046      339.163       12.308      869.818
10/04/2014  08:59:00       -2.233       -3.595        1.700       12.922       11.007       10.828      166.969      121.157      117.246        0.021        0.020        4.232        5.523        1.703      339.484       12.849      869.813
10/04/2014  09:00:00      -25.328      -14.796       -7.546        9.637       14.833        9.646       92.873      220.030       93.048        0.066        0.020       29.333       10.272        0.123      339.268       12.484      869.811
10/04/2014  09:01:00       -9.168       -9.991       -8.506        8.325       12.134        5.817       69.311      147.222       33.837        0.025        0.013       13.560        5.580        0.169      339.523       12.914      869.818
10/04/2014  09:02:00      -12.960       -7.691       -6.768        8.254       14.229        7.559       68.125      202.459       57.137        0.030        0.016       15.070        5.232        0.121      339.473       12.831      869.818
10/04/2014  09:03:00       -9.265       -0.125       -4.386        8.338        9.344        6.697       69.520       87.312       44.856        0.015        0.010        9.266        6.177        0.444      339.644       13.118      869.820
10/04/2014  09:04:00      -15.146      -13.643        0.779       12.402       14.956        6.491      153.803      223.692       42.135        0.042        0.021       20.384        4.676        0.053      339.656       13.139      869.830
10/04/2014  09:05:00      -26.133      -20.012       -3.588       11.629       12.474       10.075      135.222      155.605      101.497        0.074        0.020       32.915        4.637        0.020      339.454       12.797      869.837
10/04/2014  09:06:00      -16.174       12.736       16.215       15.011       15.425       15.991      225.338      237.930      255.727        0.070        0.036       20.587        3.022        0.022      339.984       13.692      869.838
10/04/2014  09:07:00      -21.110      -14.852       -1.926       13.902       14.879        8.721      193.264      221.376       76.055        0.058        0.025       25.811        5.267        0.042      339.671       13.164      869.834
10/04/2014  09:08:00      -30.943      -48.294       -4.833       33.384       25.498       15.717     1114.484      650.169      247.037        0.266        0.101       57.357       13.403        0.055      339.393       12.695      869.830
10/04/2014  09:09:00      -18.999      -53.474       -1.123       33.862       22.977       16.703     1146.633      527.935      278.994        0.259        0.098       56.749        6.501        0.013      339.509       12.891      869.828
10/04/2014  09:10:00      -32.931      -40.976        2.670       30.741       19.676       17.375      944.996      387.146      301.875        0.220        0.082       52.569       18.545        0.124      339.620       13.079      869.821
10/04/2014  09:11:00      -32.935        9.067       13.559       22.865       20.236       20.078      522.821      409.499      403.107        0.134        0.067       34.161       17.776        0.271      339.970       13.668      869.816
10/04/2014  09:12:00      -36.774        4.803        1.526       25.588       18.021       13.137      654.721      324.754      172.591        0.126        0.058       37.087       13.465        0.132      339.840       13.450      869.811
10/04/2014  09:13:00      -46.858        0.535       -5.601       10.904       14.763        7.298      118.894      217.950       53.263        0.131        0.020       46.861        4.684        0.010      339.624       13.085      869.808
10/04/2014  09:14:00      -12.353       23.650       26.805       16.357       18.590       18.701      267.567      345.587      349.736        0.120        0.048       26.682       15.039        0.318      340.346       14.304      869.804
10/04/2014  09:15:00        1.829       22.754        7.749       29.825       26.112       27.231      889.539      681.843      741.527        0.145        0.116       22.828        7.881        0.119      340.189       14.038      869.806
10/04/2014  09:16:00      -20.805       13.622      -15.440       22.444       21.806       10.367      503.750      475.497      107.467        0.097        0.054       24.868        6.332        0.065      339.974       13.674      869.807
10/04/2014  09:17:00      -37.181      -14.486        3.140       25.063       25.481       13.127      628.172      649.274      172.320        0.153        0.072       39.903       11.848        0.088      339.850       13.466      869.812
10/04/2014  09:18:00      -39.580      -26.965       12.429       38.624       28.842       18.654     1491.784      831.878      347.957        0.256        0.134       47.892       15.960        0.111      340.047       13.799      869.817
10/04/2014  09:19:00      -63.292       -5.534       -7.118       28.160       25.925       15.038      792.990      672.102      226.136        0.289        0.085       63.533       17.442        0.075      339.792       13.369      869.816
10/04/2014  09:20:00      -36.343      -29.451        0.824       15.514       13.375        9.660      240.669      178.899       93.318        0.135        0.026       46.778        6.682        0.020      339.815       13.406      869.816
10/04/2014  09:21:00      -17.583      -12.372        5.664       10.119        7.962        9.355      102.388       63.386       87.517        0.037        0.013       21.500        5.839        0.074      340.125       13.930      869.812
10/04/2014  09:22:00      -13.540      -43.539       -6.243       16.282       18.143       14.331      265.104      329.179      205.372        0.146        0.040       45.596        9.556        0.044      339.893       13.538      869.813
10/04/2014  09:23:00      -23.802      -14.753       -0.968       14.583       10.403        9.222      212.674      108.222       85.054        0.060        0.020       28.003        6.594        0.055      340.084       13.862      869.804
10/04/2014  09:24:00       -9.162      -16.028        6.817       18.418       24.516       14.035      339.218      601.020      196.976        0.076        0.057       18.462        7.924        0.184      340.369       14.343      869.794
10/04/2014  09:25:00      -20.156      -34.164        5.793       38.246       28.665       23.060     1462.768      821.682      531.781        0.221        0.141       39.666       23.858        0.362      340.116       13.914      869.787
10/04/2014  09:26:00      -33.527      -17.219       -3.266       24.052       22.830       12.296      578.513      521.190      151.200        0.134        0.063       37.691       11.316        0.090      340.100       13.889      869.773
10/04/2014  09:27:00      -25.013      -38.322        1.373       35.714       21.832       17.578     1275.498      476.630      308.972        0.208        0.103       45.763       16.095        0.124      340.094       13.878      869.768
10/04/2014  09:28:00      -33.750      -53.878       -0.151       38.596       29.467       23.958     1489.641      868.288      574.002        0.349        0.147       63.576       23.694        0.139      340.084       13.860      869.770
10/04/2014  09:29:00      -56.229      -15.396        8.458       26.880       16.878       15.570      722.516      284.873      242.435        0.236        0.062       58.299       16.144        0.077      340.137       13.950      869.768
10/04/2014  09:30:00      -21.663      -22.409        4.081       25.208       30.650       20.174      635.467      939.427      406.976        0.148        0.099       31.168       18.159        0.339      340.322       14.262      869.762
10/04/2014  09:31:00      -54.579      -80.341       -9.004       31.499       23.229       23.708      992.212      539.598      562.077        0.580        0.105       97.127       11.979        0.015      340.105       13.896      869.755
10/04/2014  09:32:00      -72.782      -51.189      -12.986       41.448       25.612       19.160     1717.907      655.986      367.104        0.541        0.137       88.981       10.208        0.013      340.103       13.893      869.756
10/04/2014  09:33:00      -45.408      -35.857        3.217       34.149       37.591       22.407     1166.159     1413.047      502.064        0.322        0.154       57.859       22.446        0.150      340.481       14.532      869.749
10/04/2014  09:34:00       18.179       -3.908        3.334       29.738       22.761       24.851      884.331      518.070      617.578        0.119        0.101       18.594        8.862        0.227      340.534       14.620      869.746
10/04/2014  09:35:00      -28.475      -29.238        3.898       25.414       27.051       16.034      645.892      731.730      257.081        0.166        0.082       40.813       11.094        0.074      340.351       14.309      869.749
10/04/2014  09:36:00      -37.239      -24.724       -6.145       24.507       17.923       14.203      600.582      321.242      201.727        0.158        0.056       44.699        6.749        0.023      340.315       14.250      869.747
10/04/2014  09:37:00       41.008      -46.179      -16.123       56.149       63.618       27.076     3152.698     4047.295      733.121        0.600        0.397       61.759       24.866        0.162      340.500       14.563      869.751
10/04/2014  09:38:00      -27.502      -13.192       40.436       23.577       47.099       32.942      555.854     2218.277     1085.176        0.321        0.193       30.502       33.612        1.214      340.976       15.370      869.749
10/04/2014  09:39:00       10.819       19.339       45.111       36.962       29.539       29.059     1366.171      872.561      844.427        0.280        0.154       22.160       26.953        1.479      340.692       14.888      869.753
10/04/2014  09:40:00       30.879      -19.495       30.845       52.627       47.219       34.641     2769.592     2229.651     1199.988        0.424        0.310       36.518       31.033        0.722      340.591       14.718      869.748
10/04/2014  09:41:00      -58.388      -26.631       -7.874       25.327       41.774       20.215      641.432     1745.049      408.659        0.349        0.140       64.174       13.557        0.045      340.585       14.707      869.751
10/04/2014  09:42:00      -66.333      -23.725        7.926       30.856       47.145       14.529      952.120     2222.694      211.097        0.421        0.169       70.448        8.966        0.016      340.485       14.539      869.753
10/04/2014  09:43:00      -47.104      -14.594      -10.248       17.209       13.120       14.246      296.161      172.143      202.944        0.160        0.034       49.313        5.381        0.012      340.571       14.684      869.755
10/04/2014  09:44:00      -21.048       11.232        2.133       16.013       19.767       22.703      256.428      390.726      515.420        0.087        0.058       23.858       15.300        0.411      340.960       15.343      869.746
10/04/2014  09:45:00      -39.558        1.617       -0.417       17.396       13.336       13.758      302.609      177.853      189.288        0.112        0.033       39.591       10.040        0.064      340.792       15.057      869.744
10/04/2014  09:46:00      -44.320      -26.529        0.285       28.138       22.982       22.068      791.746      528.154      487.015        0.224        0.090       51.653        9.930        0.037      340.643       14.806      869.725
10/04/2014  09:47:00       19.617       26.597       43.997       36.078       22.117       15.718     1301.614      489.157      247.063        0.253        0.102       33.049       14.126        0.183      340.978       15.373      869.713
10/04/2014  09:48:00       21.077       36.416       24.878       21.162       15.855       18.513      447.841      251.391      342.724        0.172        0.052       42.075       13.659        0.105      340.767       15.014      869.700
10/04/2014  09:49:00        0.724      -10.321       24.235       20.803       31.628       25.082      432.779     1000.360      629.129        0.138        0.103       10.346       17.590        2.891      340.929       15.289      869.697
10/04/2014  09:50:00       -1.966       37.255       47.176       21.010       29.988       18.654      441.410      899.301      347.956        0.265        0.084       37.307       14.111        0.143      341.212       15.768      869.686
10/04/2014  09:51:00      -23.903       -6.469       20.118       24.111       22.605       18.545      581.346      511.008      343.909        0.123        0.072       24.763       18.192        0.540      341.300       15.917      869.676
10/04/2014  09:52:00      -23.569       -1.719        9.662       24.543       13.455       14.846      602.362      181.047      220.414        0.083        0.050       23.632       13.950        0.348      341.092       15.567      869.662
10/04/2014  09:53:00      -12.778       -4.967       14.220       24.057       13.302       14.886      578.734      176.934      221.585        0.068        0.049       13.709       12.987        0.897      341.226       15.793      869.651
10/04/2014  09:54:00      -31.592      -16.370       -1.818       16.915       15.885       12.801      286.118      252.332      163.859        0.099        0.035       35.582       10.748        0.091      340.925       15.282      869.633
10/04/2014  09:55:00      -52.836      -22.646       -0.851       38.724       33.849       21.992     1499.573     1145.781      483.669        0.322        0.156       57.485       10.247        0.032      340.876       15.199      869.618
10/04/2014  09:56:00       33.648       -5.197       29.489       49.385       41.913       36.326     2438.903     1756.715     1319.581        0.377        0.276       34.047       29.826        0.767      341.506       16.266      869.611
10/04/2014  09:57:00       28.245       13.766        1.179       24.804       21.287       31.392      615.217      453.132      985.433        0.152        0.103       31.421       14.465        0.212      341.001       15.410      869.599
10/04/2014  09:58:00        6.936        3.111       16.801       27.589       38.230       26.914      761.136     1461.542      724.364        0.164        0.147        7.601       23.663        9.691      341.156       15.673      869.585
10/04/2014  09:59:00       21.236      -30.968       35.520       34.068       48.058       25.939     1160.628     2309.577      672.809        0.341        0.207       37.550       26.284        0.490      341.500       16.255      869.574
10/04/2014  10:00:00       58.762      -31.409       17.859       37.308       34.228       31.713     1391.886     1171.575     1005.709        0.416        0.178       66.629       27.077        0.165      340.914       15.263      869.564
10/04/2014  10:01:00       32.681       14.406       24.965       27.335       39.834       30.654      747.223     1586.716      939.661        0.259        0.164       35.715       19.085        0.286      341.054       15.501      869.550
10/04/2014  10:02:00       72.290      -16.487       21.290       40.202       57.358       41.627     1616.167     3289.899     1732.831        0.629        0.332       74.147       38.106        0.264      340.970       15.357      869.539
10/04/2014  10:03:00       62.427       46.325       10.695       35.450       37.375       28.052     1256.690     1396.854      786.899        0.480        0.172       77.737       14.258        0.034      341.122       15.615      869.535
10/04/2014  10:04:00       42.894       21.956       25.911       39.386       33.521       32.966     1551.249     1123.660     1086.748        0.338        0.188       48.187       31.924        0.439      340.921       15.275      869.528
10/04/2014  10:05:00       37.090        2.794        9.485       28.473       41.812       30.644      810.705     1748.264      939.030        0.249        0.175       37.195       11.473        0.095      340.929       15.288      869.521
10/04/2014  10:06:00       16.538        7.388       38.082       38.576       24.909       23.605     1488.141      620.444      557.187        0.222        0.133       18.113       21.199        1.370      341.716       16.623      869.513
10/04/2014  10:07:00        1.340       14.110       38.283       26.931       40.066       22.285      725.293     1605.278      496.604        0.225        0.141       14.174       14.536        1.052      341.697       16.590      869.507
10/04/2014  10:08:00       19.287        0.584       29.527       30.624       40.114       34.433      937.814     1609.107     1185.656        0.249        0.187       19.296       20.002        1.075      341.720       16.630      869.501
10/04/2014  10:09:00       -9.018      -27.489       17.248       28.178       38.511       23.542      794.017     1483.093      554.240        0.198        0.142       28.930       12.265        0.180      341.606       16.436      869.501
10/04/2014  10:10:00        4.449       35.964       28.893       45.895       22.896       26.827     2106.329      524.223      719.687        0.275        0.168       36.238       16.695        0.212      341.388       16.067      869.497
10/04/2014  10:11:00       -3.989        1.317       -5.241       28.103       18.343       17.976      789.790      336.456      323.146        0.075        0.072        4.200        6.712        2.553      341.212       15.768      869.497
10/04/2014  10:12:00       12.964      -19.720       11.310       21.190       24.529       25.113      449.003      601.673      630.678        0.118        0.084       23.600       17.724        0.564      341.543       16.330      869.491
10/04/2014  10:13:00       16.126       29.361       43.938       43.247       58.314       45.918     1870.342     3400.494     2108.430        0.521        0.369       33.498       43.938        1.720      341.329       15.966      869.487
10/04/2014  10:14:00       56.242       59.434       13.767       23.776       39.444       45.230      565.276     1555.838     2045.739        0.553        0.208       81.826       39.982        0.239      341.095       15.569      869.488
10/04/2014  10:15:00        9.782        8.262       18.509       28.809       28.979       26.347      829.934      839.778      694.179        0.143        0.118       12.804       24.006        3.515      341.630       16.477      869.478
10/04/2014  10:16:00       18.524       38.728       50.413       25.732       41.349       23.127      662.159     1709.748      534.875        0.365        0.145       42.930       23.449        0.298      341.649       16.509      869.468
10/04/2014  10:17:00       75.254       42.368       53.911       40.548       33.999       26.080     1644.107     1155.964      680.158        0.692        0.174       86.361       15.695        0.033      341.407       16.098      869.469
10/04/2014  10:18:00       76.068       52.770        6.246       32.956       33.917       30.137     1086.110     1150.363      908.214        0.588        0.157       92.580       21.460        0.054      341.285       15.892      869.463
10/04/2014  10:19:00       38.457       45.454        3.303       28.856       29.807       20.747      832.678      888.465      430.435        0.285        0.108       59.540       14.755        0.061      341.703       16.599      869.452
10/04/2014  10:20:00        0.281       22.224       38.590       27.942       42.997       30.545      780.750     1848.709      932.980        0.277        0.178       22.226       27.304        1.509      341.686       16.571      869.440
10/04/2014  10:21:00       21.535      -10.167       33.887       40.038       43.962       26.792     1603.032     1932.647      717.837        0.298        0.213       23.815       30.490        1.639      341.828       16.812      869.422
10/04/2014  10:22:00       36.375       16.991       12.413       25.896       22.290       31.203      670.625      496.833      973.649        0.195        0.107       40.148       11.214        0.078      341.444       16.161      869.425
10/04/2014  10:23:00       29.744       28.385        9.471       26.001       25.591       31.486      676.076      654.911      991.366        0.205        0.116       41.115       20.946        0.260      341.703       16.600      869.407
10/04/2014  10:24:00       10.917       18.004       23.787       18.526       20.653       22.555      343.227      426.534      508.738        0.114        0.064       21.056       12.692        0.363      342.108       17.287      869.393
10/04/2014  10:25:00        2.588       12.784       13.621       17.929       19.019       18.036      321.432      361.704      325.312        0.068        0.050       13.043       15.506        1.413      342.371       17.733      869.378
10/04/2014  10:26:00       -6.283      -20.315       19.456       14.841       28.220       18.113      220.248      796.365      328.080        0.109        0.067       21.265       17.931        0.711      341.990       17.088      869.365
10/04/2014  10:27:00       40.273       44.451       29.753       32.210       27.358       21.754     1037.472      748.453      473.234        0.337        0.113       59.982       10.498        0.031      341.899       16.933      869.348
10/04/2014  10:28:00        3.712      -33.450       24.509       40.781       55.331       29.360     1663.081     3061.479      862.027        0.366        0.279       33.655       32.717        0.945      341.786       16.741      869.337
10/04/2014  10:29:00       -5.730        3.755       40.223       20.320       42.989       26.566      412.905     1848.023      705.753        0.232        0.148        6.851       23.315       11.584      342.401       17.786      869.318
10/04/2014  10:30:00       23.934      -32.518       26.823       30.617       53.473       34.058      937.421     2859.364     1159.955        0.365        0.248       40.377       34.969        0.750      341.747       16.677      869.312
10/04/2014  10:31:00       11.479      -43.083       21.971       30.726       47.208       33.328      944.092     2228.555     1110.782        0.338        0.214       44.586       30.483        0.467      341.445       16.163      869.310
10/04/2014  10:32:00        2.002      -21.178       18.934       39.918       32.555       28.705     1593.461     1059.845      824.001        0.214        0.174       21.272       21.846        1.055      341.918       16.965      869.313
10/04/2014  10:33:00       20.563       15.509       49.263       38.200       47.357       33.775     1459.277     2242.718     1140.777        0.397        0.242       25.756       31.888        1.533      342.141       17.343      869.316
10/04/2014  10:34:00       30.035       37.200       38.280       36.393       27.639       25.585     1324.436      763.896      654.590        0.325        0.137       47.812       12.791        0.072      341.788       16.745      869.305
10/04/2014  10:35:00       35.559        7.652       15.774       37.351       27.073       26.723     1395.132      732.946      714.093        0.221        0.142       36.373       19.212        0.279      341.785       16.740      869.312
10/04/2014  10:36:00       48.402       -0.997        4.002       24.854       21.755       23.205      617.707      473.296      538.490        0.199        0.081       48.412        6.975        0.021      341.643       16.498      869.304
10/04/2014  10:37:00       11.649        6.358       20.016       23.516       26.574       25.464      552.999      706.198      648.428        0.124        0.095       13.271       22.659        2.915      342.369       17.730      869.297
10/04/2014  10:38:00       51.826       20.903       21.661       51.926       33.255       25.287     2696.312     1105.927      639.417        0.402        0.222       55.883       15.942        0.081      342.332       17.667      869.297
10/04/2014  10:39:00      103.260       81.092       58.563       46.410       48.120       45.020     2153.891     2315.573     2026.797        1.358        0.325      131.296       38.798        0.087      341.993       17.090      869.288
10/04/2014  10:40:00       61.802       64.180       49.968       36.571       31.632       36.333     1337.431     1000.605     1320.085        0.705        0.183       89.099       24.802        0.077      342.080       17.240      869.283
10/04/2014  10:41:00       37.233        9.274       33.528       24.170       31.118       33.996      584.166      968.349     1155.738        0.265        0.135       38.371       19.557        0.260      342.118       17.305      869.273
10/04/2014  10:42:00       25.005      -20.477       15.221       26.387       35.819       25.993      696.279     1282.998      675.648        0.197        0.133       32.320       26.311        0.663      342.180       17.410      869.262
10/04/2014  10:43:00       24.648       16.030       22.563       25.767       25.011       30.312      663.964      625.575      918.787        0.179        0.110       29.402       20.085        0.467      342.293       17.602      869.248
10/04/2014  10:44:00       48.904       59.043       54.599       26.338       26.913       35.148      693.701      724.329     1235.394        0.576        0.133       76.666       12.317        0.026      342.076       17.233      869.239
10/04/2014  10:45:00      103.645       91.689       41.912       30.129       24.092       34.523      907.765      580.406     1191.811        1.179        0.134      138.380       14.367        0.011      341.945       17.012      869.237
10/04/2014  10:46:00       42.016       14.400        4.653       40.324       33.310       31.648     1626.034     1109.554     1001.609        0.287        0.187       44.415       29.175        0.431      342.147       17.353      869.233
10/04/2014  10:47:00       37.932      -21.577       14.191       38.681       53.923       31.027     1496.230     2907.652      962.648        0.374        0.268       43.640       29.251        0.449      342.165       17.384      869.219
10/04/2014  10:48:00       51.420       58.708        2.203       40.089       42.138       24.148     1607.165     1775.615      583.130        0.503        0.198       78.042       18.198        0.054      342.219       17.475      869.203
10/04/2014  10:49:00      111.847       64.302       13.536       34.412       37.193       24.630     1184.157     1383.283      606.636        1.000        0.159      129.013       11.602        0.008      342.214       17.467      869.198
10/04/2014  10:50:00       66.987       46.447       -3.711       35.178       45.921       28.320     1237.476     2108.715      802.006        0.540        0.207       81.514       17.845        0.048      342.315       17.639      869.196
10/04/2014  10:51:00        8.889      -29.160       25.830       33.751       53.451       39.248     1139.130     2856.963     1540.369        0.357        0.277       30.484       25.845        0.719      342.715       18.319      869.184
10/04/2014  10:52:00       15.225      -22.340       36.021       26.718       42.888       35.018      713.837     1839.365     1226.275        0.290        0.189       27.035       21.819        0.651      343.040       18.871      869.182
10/04/2014  10:53:00       19.236       57.704       40.200       38.222       27.298       25.954     1460.918      745.188      673.587        0.410        0.144       60.825       16.417        0.073      342.439       17.849      869.170
10/04/2014  10:54:00       54.660       58.403       27.185       35.416       24.295       30.638     1254.288      590.252      938.668        0.496        0.139       79.991       21.393        0.072      342.332       17.669      869.169
10/04/2014  10:55:00       12.408       29.662       46.255       35.480       38.815       24.832     1258.824     1506.569      616.622        0.328        0.169       32.153       21.292        0.439      342.792       18.449      869.156
10/04/2014  10:56:00       10.723        8.091       55.061       30.023       46.489       27.364      901.355     2161.212      748.811        0.351        0.191       13.433       27.070        4.061      343.157       19.071      869.154
10/04/2014  10:57:00        3.541       23.768       31.162       26.938       18.479       23.066      725.673      341.487      532.027        0.157        0.080       24.030       14.990        0.389      342.691       18.280      869.142
10/04/2014  10:58:00       11.436       29.804        3.918       13.189       19.347       22.845      173.948      374.324      521.894        0.105        0.054       31.922        8.501        0.071      342.528       18.000      869.137
10/04/2014  10:59:00        4.426       -6.658       -1.703       14.792       28.839       18.297      218.791      831.681      334.781        0.073        0.069        7.995       14.898        3.472      342.532       18.008      869.122
10/04/2014  11:00:00        0.776       10.367        9.257       23.498       19.347       20.170      552.152      374.307      406.827        0.076        0.067       10.396       15.582        2.246      342.955       18.727      869.128
10/04/2014  11:01:00       10.790       18.558       42.087       20.388       16.807       16.319      415.661      282.477      266.303        0.160        0.048       21.467        9.267        0.186      343.256       19.240      869.116
10/04/2014  11:02:00        3.992      -21.055        4.152       35.651       31.374       31.798     1270.979      984.323     1011.121        0.187        0.163       21.430       18.479        0.743      342.545       18.032      869.121
10/04/2014  11:03:00       32.520      -31.746       27.812       28.457       49.946       29.486      809.774     2494.627      869.450        0.351        0.209       45.446       26.660        0.344      342.616       18.151      869.118
10/04/2014  11:04:00       33.872        6.772       32.859       33.046       50.084       27.955     1092.011     2508.370      781.501        0.333        0.219       34.542       24.676        0.510      342.648       18.205      869.120
10/04/2014  11:05:00       42.413        9.803       18.225       24.267       42.562       22.641      588.902     1811.521      512.625        0.257        0.146       43.531        7.819        0.032      342.678       18.256      869.108
10/04/2014  11:06:00       -5.389       40.059       12.239       16.579       52.887       25.356      274.851     2797.064      642.946        0.275        0.186       40.420       29.324        0.526      343.186       19.121      869.098
10/04/2014  11:07:00        2.838       34.333       20.371       20.787       29.863       24.952      432.108      891.819      622.594        0.177        0.097       34.450       21.722        0.398      343.585       19.800      869.071
10/04/2014  11:08:00       31.070       31.137       21.328       31.974       25.199       29.982     1022.324      635.006      898.937        0.247        0.128       43.987       24.843        0.319      343.361       19.420      869.064
10/04/2014  11:09:00        2.683       42.558       20.846       25.536       25.908       19.666      652.093      671.210      386.745        0.198        0.086       42.643       16.901        0.157      343.350       19.400      869.047
10/04/2014  11:10:00       15.411       33.030       18.962       36.232       37.816       31.923     1312.724     1430.045     1019.061        0.272        0.188       36.448       29.793        0.668      343.612       19.847      869.039
10/04/2014  11:11:00       28.909       18.957       12.916       28.551       23.352       29.765      815.167      545.306      885.945        0.180        0.112       34.570       23.615        0.467      343.425       19.528      869.034
10/04/2014  11:12:00        5.477       36.740       28.653       21.412       27.438       30.451      458.494      752.862      927.263        0.217        0.107       37.146       20.170        0.295      343.517       19.685      869.027
10/04/2014  11:13:00        0.522      102.977      -10.132       24.518       26.462       19.242      601.135      700.241      370.239        0.619        0.084      102.978       15.449        0.023      343.408       19.499      869.025
10/04/2014  11:14:00       18.198       49.472        7.673       32.569       23.711       25.325     1060.738      562.195      641.356        0.255        0.113       52.713       15.871        0.091      343.647       19.905      869.021
10/04/2014  11:15:00       23.766       28.924       33.560       26.125       23.079       20.615      682.525      532.650      424.962        0.208        0.082       37.436       15.181        0.164      343.636       19.888      869.021
10/04/2014  11:16:00       49.332       35.285        2.282       23.733       17.715       23.226      563.248      313.828      539.447        0.255        0.071       60.652       13.838        0.052      343.264       19.253      869.024
10/04/2014  11:17:00       40.134       38.207       14.697       26.526       21.635       21.291      703.638      468.081      453.293        0.246        0.081       55.413       10.421        0.035      343.586       19.803      869.027
10/04/2014  11:18:00       14.726       16.525       27.075       33.710       25.593       20.463     1136.375      655.025      418.749        0.172        0.111       22.134        7.460        0.114      343.997       20.503      869.026
10/04/2014  11:19:00       87.265       32.926        2.361       40.828       35.438       32.467     1666.924     1255.863     1054.092        0.634        0.199       93.270       27.896        0.089      343.377       19.446      869.024
10/04/2014  11:20:00       29.134       50.598       21.572       38.714       27.177       26.986     1498.777      738.603      728.267        0.342        0.148       58.386       18.053        0.096      343.460       19.586      869.008
10/04/2014  11:21:00        5.071       23.937       14.064       25.259       35.594       22.909      638.021     1266.908      524.834        0.161        0.121       24.468       19.734        0.650      343.696       19.990      869.007
10/04/2014  11:22:00       16.761       38.256       15.596       30.518       33.932       26.943      931.358     1151.361      725.915        0.240        0.140       41.766       26.823        0.412      343.854       20.260      868.994
10/04/2014  11:23:00        9.737        7.028       19.886       28.047       23.410       27.311      786.637      548.008      745.901        0.131        0.104       12.008       18.308        2.325      343.697       19.993      868.992
10/04/2014  11:24:00       15.269        6.090       19.213       33.221       42.160       37.938     1103.632     1777.498     1439.292        0.248        0.216       16.439       29.480        3.216      343.717       20.025      868.977
10/04/2014  11:25:00       27.546       19.879       20.167       33.342       52.292       31.315     1111.656     2734.493      980.621        0.319        0.241       33.970       23.288        0.470      343.576       19.785      868.966
10/04/2014  11:26:00       12.798        2.598       24.125       20.679       31.628       24.792      427.622     1000.335      614.663        0.140        0.102       13.059       14.519        1.236      343.618       19.858      868.961
10/04/2014  11:27:00       60.163       46.377       20.416       45.337       41.300       28.618     2055.419     1705.681      819.004        0.538        0.229       75.963       24.406        0.103      343.360       19.417      868.948
10/04/2014  11:28:00       89.160       67.465       23.892       33.970       25.963       33.196     1153.947      674.057     1101.993        0.800        0.146      111.808       24.175        0.047      343.535       19.715      868.938
10/04/2014  11:29:00       41.646       48.958       12.476       23.135       26.003       33.730      535.211      676.164     1137.738        0.332        0.117       64.275       19.452        0.092      343.470       19.605      868.916
10/04/2014  11:30:00       25.563       42.009        2.825       22.358       22.111       22.948      499.878      488.883      526.603        0.197        0.076       49.176       12.527        0.065      343.428       19.533      868.905
10/04/2014  11:31:00       42.496       77.312       12.873       27.232       32.899       30.267      741.606     1082.347      916.110        0.534        0.137       88.222       17.407        0.039      343.617       19.855      868.886
10/04/2014  11:32:00       63.192       61.437        7.865       35.087       40.385       36.541     1231.131     1630.985     1335.246        0.601        0.210       88.134       26.754        0.092      343.785       20.142      868.866
10/04/2014  11:33:00       62.924       47.754      -11.003       27.104       30.902       25.265      734.650      954.960      638.318        0.434        0.116       78.993       16.928        0.046      343.611       19.843      868.856
10/04/2014  11:34:00       -1.523       38.866       13.822       25.845       23.352       24.318      667.952      545.304      591.377        0.175        0.090       38.896       12.157        0.098      343.975       20.466      868.850
10/04/2014  11:35:00      -19.037       25.408      -14.982       32.637       20.460       20.997     1065.151      418.609      440.863        0.158        0.096       31.749        5.716        0.032      343.465       19.595      868.834
10/04/2014  11:36:00      -13.379       59.734      -15.347       19.217       38.870       15.607      369.308     1510.860      243.577        0.305        0.106       61.214       11.927        0.038      343.533       19.710      868.819
10/04/2014  11:37:00       18.153       53.813        4.289       25.877       29.457       33.121      669.602      867.736     1096.987        0.294        0.132       56.793       21.840        0.148      344.072       20.631      868.800
10/04/2014  11:38:00       23.679       33.922       31.394       27.518       22.837       24.376      757.248      521.532      594.183        0.228        0.094       41.368       14.544        0.124      344.231       20.902      868.787
10/04/2014  11:39:00       51.557       40.423      -13.776       29.277       26.347       18.767      857.157      694.173      352.187        0.319        0.095       65.515        5.628        0.007      343.709       20.012      868.770
10/04/2014  11:40:00       15.934       13.996        1.976       23.363       38.983       23.276      545.829     1519.677      541.791        0.153        0.130       21.208       17.574        0.687      343.954       20.430      868.751
10/04/2014  11:41:00       27.816       28.050      -11.610       13.290       28.683       14.337      176.614      822.700      205.560        0.145        0.060       39.504       11.577        0.086      343.669       19.942      868.741
10/04/2014  11:42:00       16.646       -2.187       -7.467       10.337        6.910       12.455      106.846       47.748      155.139        0.032        0.015       16.790        8.006        0.227      343.936       20.400      868.723
10/04/2014  11:43:00       31.975       21.057       -3.013       25.492       26.209       19.670      649.855      686.893      386.891        0.160        0.086       38.286        7.466        0.038      343.991       20.493      868.710
10/04/2014  11:44:00        5.423       -3.748       11.163       38.117       37.226       27.290     1452.932     1385.738      744.758        0.188        0.179        6.593       24.718       14.058      344.063       20.617      868.693
10/04/2014  11:45:00       -7.502       -9.912       29.152       17.477       36.385       16.730      305.430     1323.887      279.887        0.146        0.095       12.431        9.574        0.593      344.364       21.131      868.675
10/04/2014  11:46:00       16.897      -10.286       15.531       20.777       22.802       25.422      431.670      519.920      646.281        0.111        0.080       19.782       11.909        0.362      344.039       20.574      868.669
10/04/2014  11:47:00      -17.650       -6.309       10.694       25.047       17.777       18.423      627.343      316.011      339.411        0.087        0.064       18.744       20.148        1.155      344.147       20.761      868.657
10/04/2014  11:48:00       49.347      -30.952        2.895       25.967       19.513       21.927      674.291      380.746      480.803        0.247        0.077       58.251       17.970        0.095      343.593       19.816      868.657
10/04/2014  11:49:00       20.796       24.667       14.993       25.743       28.421       26.555      662.704      807.748      705.152        0.172        0.109       32.264       22.833        0.501      344.107       20.691      868.650
10/04/2014  11:50:00       40.039       38.013       10.518       45.652       41.776       30.079     2084.087     1745.274      904.723        0.395        0.237       55.210       26.971        0.239      344.402       21.196      868.644
10/04/2014  11:51:00       47.205        6.650       27.744       27.944       46.182       34.934      780.859     2132.797     1220.409        0.359        0.207       47.671       35.001        0.539      344.015       20.535      868.645
10/04/2014  11:52:00        1.756      -38.362       16.654       39.668       36.173       38.087     1573.535     1308.476     1450.583        0.304        0.217       38.402       25.284        0.433      344.143       20.753      868.624
10/04/2014  11:53:00       14.047        8.535       47.042       31.762       40.300       34.058     1008.802     1624.069     1159.955        0.314        0.190       16.436       15.131        0.847      344.570       21.484      868.622
10/04/2014  11:54:00        1.987       33.751       47.552       34.931       36.500       30.023     1220.169     1332.272      901.367        0.343        0.173       33.810       16.429        0.236      344.402       21.197      868.614
10/04/2014  11:55:00       -5.532       -5.306       25.942       34.231       45.057       37.997     1171.750     2030.161     1443.746        0.269        0.232        7.665       27.320       12.703      344.354       21.113      868.611
10/04/2014  11:56:00       23.672       19.302       14.059       16.107       14.307       23.010      259.441      204.679      529.474        0.106        0.050       30.544       10.866        0.127      344.227       20.896      868.588
10/04/2014  11:57:00       25.255       25.228       26.553       52.644       50.348       44.852     2771.373     2534.872     2011.678        0.465        0.366       35.696       35.844        1.008      344.051       20.595      868.579
10/04/2014  11:58:00       40.806        1.467       31.584       34.868       42.093       33.540     1215.770     1771.844     1124.928        0.339        0.206       40.832       30.047        0.542      344.065       20.621      868.564
10/04/2014  11:59:00       36.110       -2.765       24.050       33.089       32.316       30.490     1094.850     1044.306      929.642        0.248        0.153       36.216       25.455        0.494      343.969       20.455      868.555
10/04/2014  12:00:00        3.322       10.733       25.432       41.093       24.582       24.670     1688.621      604.251      608.632        0.184        0.145       11.235       13.954        1.542      344.485       21.339      868.530
10/04/2014  12:01:00      -31.720       12.703       17.503       29.410       20.225       23.103      864.954      409.036      533.746        0.164        0.090       34.169       19.316        0.320      344.705       21.714      868.523
10/04/2014  12:02:00        2.941      -20.918       18.780       30.394       37.736       25.440      923.811     1423.995      647.190        0.190        0.150       21.124       12.901        0.373      344.926       22.093      868.505
10/04/2014  12:03:00      -11.107      -33.834       15.067       28.569       54.438       35.188      816.186     2963.519     1238.204        0.326        0.251       35.610       20.129        0.320      344.755       21.799      868.483
10/04/2014  12:04:00       59.472     -122.468      -12.419       46.174       41.400       37.081     2132.049     1713.927     1374.974        1.195        0.261      136.145       33.278        0.060      344.310       21.039      868.466
10/04/2014  12:05:00       26.896      -46.633        5.466       29.048       51.408       36.396      843.790     2642.738     1324.666        0.387        0.241       53.833       33.085        0.378      344.405       21.201      868.454
10/04/2014  12:06:00       -7.953      -96.370        7.016       33.662       53.494       30.972     1133.114     2861.563      959.267        0.718        0.248       96.698       11.913        0.015      344.511       21.382      868.424
10/04/2014  12:07:00       36.204      -48.806        7.475       28.079       65.601       34.560      788.402     4303.508     1194.414        0.502        0.314       60.768       36.666        0.364      344.392       21.179      868.422
10/04/2014  12:08:00        3.407        3.165        5.977       14.526       32.869       26.990      211.010     1080.343      728.451        0.104        0.101        4.650       23.641       25.848      344.626       21.579      868.397
10/04/2014  12:09:00        2.006        7.664       13.860       17.294       16.667       14.305      299.077      277.773      204.639        0.052        0.039        7.922        3.340        0.178      345.127       22.435      868.384
10/04/2014  12:10:00      -24.448      -10.736        0.763       24.623       30.701       21.058      606.282      942.537      443.441        0.135        0.100       26.702       11.969        0.201      345.022       22.255      868.371
10/04/2014  12:11:00       10.488      -11.497      -10.035       26.522       24.964       17.186      703.440      623.218      295.365        0.098        0.081       15.562       13.087        0.707      344.618       21.565      868.348
10/04/2014  12:12:00       -3.146       -2.086       15.477       15.038       18.305       17.375      226.138      335.059      301.896        0.056        0.043        3.775       12.868       11.622      345.370       22.852      868.340
10/04/2014  12:13:00      -11.961        3.369       15.557       19.998       26.119       23.630      399.928      682.210      558.381        0.102        0.082       12.427       13.990        1.268      345.174       22.517      868.325
10/04/2014  12:14:00        9.209       42.389       27.248       31.841       23.237       26.662     1013.824      539.978      710.866        0.244        0.113       43.377       16.327        0.142      344.824       21.917      868.325
10/04/2014  12:15:00       26.977       30.552       14.433       24.619       21.772       26.660      606.089      474.001      710.764        0.183        0.090       40.758       16.763        0.169      344.944       22.122      868.323
10/04/2014  12:16:00       36.278       22.047        7.849       34.095       29.764       21.673     1162.460      885.906      469.708        0.219        0.126       42.452        9.932        0.055      344.792       21.863      868.310
10/04/2014  12:17:00       26.301       -5.379        2.197       18.633       21.527       25.133      347.193      463.430      631.683        0.108        0.072       26.846       14.715        0.300      344.691       21.689      868.302
10/04/2014  12:18:00       19.992        5.435       19.444       15.920       16.316       18.263      253.453      266.224      333.520        0.083        0.043       20.718        8.086        0.152      345.018       22.248      868.283
10/04/2014  12:19:00       30.670        7.907       11.711       31.843       24.608       23.633     1013.983      605.538      558.522        0.166        0.109       31.672       16.773        0.280      344.793       21.863      868.278
10/04/2014  12:20:00       18.909       20.845       41.541       29.917       23.733       25.448      895.027      563.273      647.602        0.231        0.105       28.144       16.670        0.351      345.071       22.340      868.251
10/04/2014  12:21:00       49.669       28.776       52.854       34.822       39.760       28.363     1212.586     1580.855      804.469        0.484        0.180       57.402       23.377        0.166      345.056       22.314      868.246
10/04/2014  12:22:00       77.792       94.028       -9.438       68.961       40.660       31.020     4755.565     1653.201      962.237        1.118        0.369      122.036       19.056        0.024      344.672       21.658      868.227
10/04/2014  12:23:00       84.826       84.649       16.359       76.773       46.216       50.484     5894.136     2135.904     2548.616        1.260        0.529      119.837       35.860        0.090      345.020       22.252      868.210
10/04/2014  12:24:00      132.626       69.691       31.220       53.485       36.245       41.028     2860.666     1313.673     1683.336        1.464        0.293      149.821       31.866        0.045      344.612       21.555      868.192
10/04/2014  12:25:00      119.954       71.291        7.253       38.687       31.529       33.966     1496.677      994.086     1153.713        1.158        0.182      139.540       14.261        0.010      344.531       21.417      868.186
10/04/2014  12:26:00      101.037       88.434       14.363       46.131       32.942       27.364     2128.109     1085.161      748.777        1.110        0.198      134.272       16.024        0.014      344.751       21.792      868.168
10/04/2014  12:27:00       34.907       73.489        6.363       43.010       47.114       35.451     1849.843     2219.747     1256.779        0.599        0.266       81.358       24.875        0.093      345.064       22.327      868.149
10/04/2014  12:28:00       53.006       44.286       10.176       60.309       55.186       39.030     3637.168     3045.444     1523.355        0.654        0.410       69.072        8.239        0.014      345.239       22.627      868.145
10/04/2014  12:29:00       30.706        2.916       -9.205       15.115       17.345       18.876      228.453      300.848      356.303        0.096        0.044       30.844       13.293        0.186      344.739       21.772      868.133
10/04/2014  12:30:00       20.704       13.015        5.766       28.263       21.361       25.899      798.819      456.296      670.764        0.128        0.096       24.455       12.048        0.243      344.497       21.358      868.121
10/04/2014  12:31:00       13.180       10.463       12.671       20.602       19.879       18.748      424.461      395.170      351.505        0.081        0.059       16.828       10.888        0.419      345.057       22.317      868.090
10/04/2014  12:32:00       56.316       71.800        5.986       55.537       39.972       30.445     3084.340     1597.775      926.873        0.698        0.280       91.250       21.870        0.057      344.991       22.204      868.084
10/04/2014  12:33:00        4.907       84.884       -4.213       31.145       50.149       32.513      970.036     2514.934     1057.089        0.589        0.227       85.025       30.959        0.133      345.233       22.618      868.060
10/04/2014  12:34:00       -4.315       86.490        7.684       32.491       58.293       31.374     1055.642     3398.055      984.327        0.650        0.272       86.598       32.180        0.138      345.401       22.907      868.054
10/04/2014  12:35:00       38.168       29.177       31.182       44.648       30.619       29.098     1993.430      937.532      846.712        0.353        0.189       48.043       16.182        0.113      345.535       23.134      868.039
10/04/2014  12:36:00       33.127       25.261        8.066       33.157       18.190       24.648     1099.403      330.875      607.517        0.192        0.102       41.659       10.955        0.069      345.240       22.629      868.032
10/04/2014  12:37:00       43.224       54.937       44.787       26.507       27.505       31.355      702.596      756.541      983.129        0.467        0.122       69.903       14.390        0.042      344.955       22.141      868.009
10/04/2014  12:38:00       54.477       47.891       40.758       59.730       42.857       45.828     3567.660     1836.711     2100.192        0.721        0.375       72.535       43.595        0.361      345.019       22.251      867.998
10/04/2014  12:39:00       75.617       59.651       23.194       40.783       31.592       32.055     1663.222      998.033     1027.530        0.675        0.184       96.312       16.463        0.029      345.253       22.650      867.980
10/04/2014  12:40:00       83.912       60.485       16.649       34.667       37.447       33.176     1201.798     1402.265     1100.664        0.734        0.185      103.439       15.052        0.021      345.079       22.354      867.979
10/04/2014  12:41:00       67.071       45.339      -16.802       17.091       24.583       22.401      292.088      604.310      501.808        0.412        0.070       80.958       15.095        0.035      344.889       22.027      867.970
10/04/2014  12:42:00       41.938       21.767       17.193       23.748       20.550       23.918      563.971      422.316      572.058        0.204        0.078       47.251        6.724        0.020      345.422       22.941      867.959
10/04/2014  12:43:00       67.360      -72.058       -8.278       28.252       61.053       27.846      798.157     3727.520      775.419        0.755        0.265       98.639       24.148        0.060      344.717       21.733      867.944
10/04/2014  12:44:00       88.852       50.302       33.827       61.019       57.172       43.448     3723.367     3268.587     1887.723        1.022        0.444      102.102       27.201        0.071      345.282       22.702      867.919
10/04/2014  12:45:00       49.697       41.427       33.155       62.087       64.930       46.960     3854.855     4215.959     2205.230        0.778        0.514       64.699       28.547        0.195      345.409       22.920      867.917
10/04/2014  12:46:00       88.186       37.283       22.181       44.301       31.973       36.034     1962.592     1022.300     1298.444        0.697        0.214       95.744       23.005        0.058      345.120       22.423      867.912
10/04/2014  12:47:00        8.118       -0.987        1.271       34.562       18.415       18.965     1194.537      339.130      359.655        0.098        0.095        8.177       12.667        2.400      345.605       23.256      867.897
10/04/2014  12:48:00       -0.638        0.403       12.815       36.801       16.114       21.870     1354.329      259.672      478.309        0.113        0.105        0.755       21.810      835.333      345.549       23.159      867.883
10/04/2014  12:49:00       31.577       -2.103        4.522       31.397       27.135       30.375      985.789      736.307      922.626        0.183        0.132       31.647       18.806        0.353      344.966       22.160      867.870
10/04/2014  12:50:00        4.400       -9.788       -7.201       35.184       34.391       20.359     1237.881     1182.773      414.481        0.150        0.142       10.732       15.672        2.133      344.951       22.134      867.849
10/04/2014  12:51:00       31.544      -61.677       -8.790       38.301       28.796       34.615     1466.938      829.183     1198.192        0.418        0.175       69.276       24.039        0.120      344.727       21.752      867.832
10/04/2014  12:52:00       -2.600      -18.340        9.693       14.410       25.204       12.065      207.651      635.258      145.561        0.071        0.049       18.523        5.347        0.083      345.884       23.733      867.815
10/04/2014  12:53:00        1.342        3.137       28.781       19.408       34.368       27.681      376.667     1181.151      766.216        0.158        0.116        3.412       24.897       53.235      345.818       23.620      867.783
10/04/2014  12:54:00       25.401      -19.578       35.819       31.959       30.906       21.932     1021.373      955.181      481.030        0.238        0.123       32.070       14.948        0.217      345.600       23.247      867.766
10/04/2014  12:55:00       10.805      -13.178       19.336       20.811       29.190       18.079      433.114      852.027      326.861        0.114        0.081       17.041       10.826        0.404      345.400       22.903      867.749
10/04/2014  12:56:00       10.469      -32.879       15.570       14.959       25.904       16.332      223.763      671.034      266.738        0.130        0.058       34.506       15.486        0.201      345.407       22.917      867.733
10/04/2014  12:57:00       14.632      -49.990        0.381       24.749       24.996       21.116      612.534      624.775      445.867        0.220        0.084       52.088       17.940        0.119      345.475       23.032      867.723
10/04/2014  12:58:00       -0.719        8.934       27.531       15.256       28.335       20.228      232.756      802.849      409.158        0.114        0.072        8.963       18.071        4.065      345.996       23.928      867.711
10/04/2014  12:59:00       -2.518        5.412       36.338       23.630       29.127       16.201      558.358      848.386      262.482        0.151        0.083        5.969       16.863        7.981      345.857       23.687      867.701
10/04/2014  13:00:00       10.915       -9.773       19.350       45.704       41.584       34.970     2088.858     1729.188     1222.883        0.281        0.252       14.651       18.317        1.563      345.862       23.695      867.680
10/04/2014  13:01:00       -1.110      -98.469       11.515       42.532       45.511       42.385     1808.956     2071.237     1796.517        0.775        0.284       98.475       26.119        0.070      345.694       23.408      867.669
10/04/2014  13:02:00       11.706        9.361       31.982       32.232       58.352       36.829     1038.900     3404.996     1356.398        0.352        0.290       14.989       45.203        9.095      345.450       22.990      867.668
10/04/2014  13:03:00       70.458      -12.044        0.301       33.123       28.750       24.457     1097.120      826.536      598.123        0.382        0.126       71.480       19.008        0.071      344.967       22.164      867.646
10/04/2014  13:04:00       55.279      -33.906        4.053       26.444       28.041       19.777      699.282      786.324      391.137        0.305        0.094       64.849       14.685        0.051      345.321       22.766      867.641
10/04/2014  13:05:00       43.915       -5.537       14.654       36.003       21.705       24.432     1296.205      471.101      596.900        0.227        0.118       44.262       22.008        0.247      345.265       22.674      867.634
10/04/2014  13:06:00      -21.668      -11.200       19.987       31.205       31.273       22.944      973.773      978.030      526.426        0.174        0.124       24.391       22.098        0.821      345.695       23.410      867.610
10/04/2014  13:07:00       22.849        3.022       28.894       34.786       46.440       32.940     1210.042     2156.633     1085.015        0.291        0.223       23.048       29.046        1.588      345.556       23.170      867.600
10/04/2014  13:08:00       60.089      -85.647       -4.691       56.712       69.807       44.727     3216.213     4873.084     2000.477        1.053        0.504      104.623       13.626        0.017      345.536       23.136      867.565
10/04/2014  13:09:00       42.786      -29.368       29.284       48.288       63.063       35.157     2331.762     3976.961     1235.982        0.555        0.377       51.895       29.866        0.331      346.003       23.939      867.553
10/04/2014  13:10:00       76.444      -33.444       16.418       58.988       52.905       38.024     3479.558     2798.909     1445.834        0.748        0.386       83.440       37.349        0.200      345.679       23.383      867.541
10/04/2014  13:11:00        5.943       23.916       22.653       33.330       22.640       34.286     1110.857      512.563     1175.553        0.196        0.140       24.643       22.139        0.807      345.932       23.818      867.523
10/04/2014  13:12:00       48.708       55.339       25.675       51.287       18.709       30.129     2630.315      350.019      907.757        0.499        0.194       73.721       28.076        0.145      345.665       23.358      867.505
10/04/2014  13:13:00       91.208       12.879       17.175       41.355       32.567       37.466     1710.211     1060.605     1403.729        0.648        0.209       92.112       16.329        0.031      345.384       22.875      867.481
10/04/2014  13:14:00       49.047       18.748        8.070       32.470       20.171       25.180     1054.282      406.868      634.016        0.246        0.105       52.509       13.234        0.064      345.639       23.313      867.475
10/04/2014  13:15:00       32.767       -3.168       19.560       30.070       29.440       22.418      904.203      866.721      502.552        0.187        0.114       32.920       23.750        0.520      345.584       23.219      867.454
10/04/2014  13:16:00       21.641       -4.449       37.074       46.767       50.165       25.987     2187.183     2516.497      675.300        0.362        0.269       22.093       19.370        0.769      346.134       24.164      867.437
10/04/2014  13:17:00       47.831        8.401       51.606       43.538       96.046       50.127     1895.570     9224.842     2512.699        0.933        0.682       48.563       55.716        1.316      346.224       24.318      867.429
10/04/2014  13:18:00       59.438      -56.567       33.168       62.369       92.305       51.142     3889.936     8520.235     2615.458        1.143        0.751       82.053       54.831        0.447      346.278       24.409      867.413
10/04/2014  13:19:00       77.969     -132.774      -16.702       46.949       38.806       33.839     2204.167     1505.899     1145.111        1.442        0.243      153.974       26.221        0.029      345.899       23.759      867.403
10/04/2014  13:20:00       74.629     -128.896       -1.932       63.395       70.978       43.588     4018.877     5037.889     1899.925        1.657        0.548      148.942       50.750        0.116      345.839       23.655      867.399
10/04/2014  13:21:00       39.434       38.024       81.389       47.109       46.995       43.567     2219.288     2208.488     1898.119        0.797        0.316       54.780       33.773        0.380      346.360       24.552      867.388
10/04/2014  13:22:00       57.304      -79.592        5.492       40.289       58.726       46.314     1623.243     3448.712     2145.018        0.843        0.361       98.075       41.376        0.178      346.060       24.036      867.378
10/04/2014  13:23:00       40.055       -8.987       -3.317       52.088       41.693       33.164     2713.121     1738.298     1099.881        0.362        0.278       41.051       29.142        0.504      346.069       24.051      867.372
10/04/2014  13:24:00       32.853      -73.794      -10.025       45.376       67.448       29.483     2058.962     4549.168      869.246        0.705        0.374       80.776       34.341        0.181      346.202       24.281      867.354
10/04/2014  13:25:00       32.905      -78.728       -4.453       45.735       60.588       33.666     2091.733     3670.958     1133.429        0.710        0.345       85.328       38.080        0.199      346.163       24.213      867.346
10/04/2014  13:26:00       13.639       33.189      -31.327       38.631       61.430       21.663     1492.361     3773.587      469.282        0.400        0.287       35.882       23.193        0.418      345.950       23.848      867.336
10/04/2014  13:27:00       16.474       47.186        6.040       36.885       52.348       25.098     1360.523     2740.278      629.929        0.363        0.237       49.979       16.327        0.107      346.407       24.633      867.318
10/04/2014  13:28:00       61.617       41.073       41.954       70.776       39.822       47.202     5009.206     1585.783     2228.005        0.803        0.441       74.052       44.281        0.358      346.364       24.559      867.302
10/04/2014  13:29:00       19.384       25.218       49.944       35.431       29.481       26.256     1255.322      869.116      689.389        0.316        0.141       31.807        2.474        0.006      346.694       25.126      867.284
10/04/2014  13:30:00       47.930        4.851       37.095       43.942       51.674       33.527     1930.916     2670.221     1124.037        0.471        0.286       48.175       34.491        0.513      346.380       24.586      867.275
10/04/2014  13:31:00        9.160        1.903       26.121       22.021       36.109       25.640      484.934     1303.857      657.411        0.161        0.122        9.355       28.402        9.217      346.358       24.551      867.247
10/04/2014  13:32:00        9.162        2.603        8.852       26.644       25.010       24.730      709.906      625.497      611.583        0.106        0.097        9.524       21.301        5.002      346.213       24.298      867.227
10/04/2014  13:33:00      -31.426       -7.491        1.697       27.898       20.715       13.654      778.294      429.122      186.437        0.122        0.070       32.307       11.781        0.133      346.605       24.973      867.206
10/04/2014  13:34:00      -26.903      -33.453        9.002       22.029       30.624       20.080      485.260      937.829      403.215        0.187        0.091       42.928       16.135        0.141      346.592       24.951      867.183
10/04/2014  13:35:00      -29.503      -26.312       -9.648       46.799       34.842       21.015     2190.148     1213.994      441.616        0.275        0.192       39.532       13.648        0.119      346.362       24.554      867.157
10/04/2014  13:36:00       21.689      -18.892       34.649       36.433       46.817       27.987     1327.343     2191.870      783.248        0.316        0.215       28.763       32.561        1.281      346.596       24.957      867.149
10/04/2014  13:37:00       25.949       35.589       22.514       43.205       44.651       28.901     1866.679     1993.708      835.260        0.357        0.235       44.045       14.356        0.106      346.724       25.177      867.118
10/04/2014  13:38:00       74.957       56.017       11.024       54.624       36.652       34.636     2983.823     1343.397     1199.645        0.720        0.276       93.576       11.147        0.014      346.409       24.636      867.099
10/04/2014  13:39:00      109.633       61.930       16.298       54.456       53.435       43.571     2965.415     2855.299     1898.457        1.192        0.386      125.916       27.887        0.049      346.281       24.415      867.075
10/04/2014  13:40:00       59.234      109.992       -6.050       45.497       67.625       40.279     2069.976     4573.106     1622.386        1.195        0.413      124.928       35.046        0.079      346.373       24.573      867.051
10/04/2014  13:41:00       33.433      171.336      -24.550       40.344       54.843       31.618     1627.630     3007.730      999.674        1.835        0.282      174.568       25.124        0.021      346.244       24.351      867.042
10/04/2014  13:42:00        1.110       60.916        6.096       44.505       53.654       36.014     1980.703     2878.737     1297.039        0.495        0.308       60.926       35.154        0.333      346.629       25.015      867.019
10/04/2014  13:43:00        3.251       82.254        3.088       41.386       77.025       36.576     1712.769     5932.860     1337.831        0.788        0.449       82.318       43.656        0.281      346.624       25.004      866.991
10/04/2014  13:44:00      -19.411      146.743      -17.708       50.645       59.350       41.631     2564.884     3522.424     1733.139        1.502        0.391      148.021       36.547        0.061      346.479       24.755      866.968
10/04/2014  13:45:00       25.223      111.526       -0.251       35.577       72.900       45.128     1265.715     5314.470     2036.515        1.084        0.431      114.343       44.864        0.154      346.635       25.025      866.946
10/04/2014  13:46:00       19.824      -15.945        0.024       49.822      109.571       37.947     2482.234    12005.728     1439.961        0.828        0.796       25.441       19.178        0.568      346.762       25.242      866.927
10/04/2014  13:47:00       58.200        9.820       53.791       66.131       85.690       58.040     4373.308     7342.692     3368.632        1.073        0.754       59.023       65.732        1.240      346.845       25.385      866.920
10/04/2014  13:48:00       31.067      -34.241       20.864       62.513       62.802       45.892     3907.852     3944.152     2106.106        0.626        0.498       46.234       47.516        1.056      346.383       24.590      866.904
10/04/2014  13:49:00       44.660      -54.461       32.008       58.969       84.644       56.162     3477.353     7164.559     3154.221        0.989        0.690       70.431       62.701        0.793      346.700       25.137      866.887
10/04/2014  13:50:00        8.272     -107.136      -21.318       34.568       42.030       30.828     1194.951     1766.498      950.352        0.796        0.196      107.455       10.298        0.009      346.574       24.921      866.862
10/04/2014  13:51:00       22.284      -97.623      -12.093       35.813       49.530       42.836     1282.604     2453.225     1834.949        0.787        0.279      100.134       28.705        0.082      346.605       24.972      866.849
10/04/2014  13:52:00       -8.525      -44.606       19.391       61.534       44.906       36.965     3786.420     2016.562     1366.422        0.480        0.358       45.413       38.964        0.736      346.917       25.510      866.835
10/04/2014  13:53:00      -23.137      -67.803       32.201       80.819       91.599       43.918     6531.746     8390.309     1928.754        1.151        0.843       71.642       56.459        0.621      346.657       25.060      866.797
10/04/2014  13:54:00       14.397       18.519        2.753       41.601       44.813       28.948     1730.671     2008.198      838.002        0.257        0.229       23.457       12.938        0.304      346.871       25.430      866.800
10/04/2014  13:55:00       33.137       38.359       12.897       42.553       25.495       29.695     1810.786      649.982      881.765        0.304        0.167       50.690       22.270        0.193      346.970       25.600      866.791
10/04/2014  13:56:00       33.536       52.860        4.404       44.934       38.934       32.650     2019.035     1515.852     1066.016        0.427        0.230       62.600       24.701        0.156      346.780       25.273      866.763
10/04/2014  13:57:00        9.148       45.178       -4.606       43.980       45.467       33.945     1934.221     2067.267     1152.245        0.365        0.258       46.095       26.697        0.335      346.899       25.479      866.746
10/04/2014  13:58:00      -13.958        1.911        3.786       25.884       33.509       21.211      669.994     1122.822      449.911        0.123        0.112       14.089        9.410        0.446      347.201       25.999      866.734
10/04/2014  13:59:00       11.716       26.354       20.089       35.346       26.178       33.393     1249.331      685.293     1115.114        0.214        0.152       28.841       16.444        0.325      347.127       25.871      866.714
10/04/2014  14:00:00       14.730       41.495       15.232       39.527       39.828       35.345     1562.356     1586.287     1249.238        0.328        0.220       44.032       20.053        0.207      347.075       25.783      866.692
10/04/2014  14:01:00       64.301       22.664       18.209       43.926       30.136       29.422     1929.526      908.198      865.658        0.434        0.185       68.178       13.276        0.038      346.988       25.631      866.676
10/04/2014  14:02:00      106.267       60.628       30.244       85.070       49.280       46.021     7236.842     2428.475     2117.945        1.383        0.589      122.346       24.109        0.039      346.916       25.507      866.656
10/04/2014  14:03:00       17.645       51.694       53.212       43.262       32.393       40.903     1871.580     1049.309     1673.031        0.520        0.230       54.622       33.716        0.381      347.037       25.716      866.637
10/04/2014  14:04:00        7.132       29.240      -13.976       39.040       18.979       11.776     1524.126      360.210      138.668        0.156        0.101       30.097       12.186        0.164      346.725       25.178      866.626
10/04/2014  14:05:00       23.723       17.663       20.527       22.042       28.119       17.184      485.839      790.705      295.305        0.143        0.079       29.577        7.857        0.071      347.233       26.055      866.613
10/04/2014  14:06:00        8.647       70.061       -0.677       22.532       49.176       29.604      507.691     2418.236      876.375        0.439        0.190       70.592       29.279        0.172      346.974       25.608      866.590
10/04/2014  14:07:00       34.687      -39.594       -0.048       45.976       70.395       31.342     2113.770     4955.434      982.337        0.541        0.403       52.639       17.173        0.106      346.918       25.510      866.577
10/04/2014  14:08:00       52.402       22.612       63.287       46.682       95.930       61.421     2179.244     9202.524     3772.588        1.121        0.758       57.072       69.971        1.503      346.923       25.518      866.565
10/04/2014  14:09:00      118.009       20.042       21.501       48.382       71.551       32.671     2340.813     5119.598     1067.414        1.166        0.426      119.699       23.775        0.039      346.579       24.928      866.559
10/04/2014  14:10:00      105.520     -118.089        1.851       31.392       46.159       27.633      985.477     2130.607      763.595        1.448        0.194      158.365       28.761        0.033      346.556       24.886      866.543
10/04/2014  14:11:00       94.001      -81.583       -1.784       74.561       89.278       37.102     5559.354     7970.480     1376.569        1.520        0.745      124.467       55.058        0.196      346.835       25.368      866.522
10/04/2014  14:12:00       23.674      -83.752       25.652       53.694       88.619       41.917     2883.059     7853.279     1757.013        1.036        0.625       87.034       29.350        0.114      347.112       25.845      866.508
10/04/2014  14:13:00       71.669       83.204       60.635       82.606       66.551       67.854     6823.770     4429.065     4604.142        1.579        0.793      109.815       51.237        0.218      347.215       26.022      866.497
10/04/2014  14:14:00       86.257       67.574       26.152       80.266       44.189       49.079     6442.663     1952.635     2408.746        1.175        0.540      109.574       37.480        0.117      346.933       25.535      866.514
10/04/2014  14:15:00       51.171       47.471       17.011       48.146       47.201       36.962     2318.053     2227.948     1366.226        0.554        0.296       69.799       18.045        0.067      347.050       25.738      866.500
10/04/2014  14:16:00       64.004      178.778      -25.514       71.285       74.084       44.155     5081.567     5488.478     1949.706        2.461        0.626      189.890       41.862        0.049      346.713       25.157      866.483
10/04/2014  14:17:00       38.019      124.896      -12.192       66.267       84.673       41.240     4391.338     7169.584     1700.717        1.523        0.663      130.554       47.652        0.133      346.919       25.512      866.461
10/04/2014  14:18:00      110.775       89.269       17.724       44.456       45.475       37.674     1976.372     2067.948     1419.356        1.301        0.273      142.267       18.936        0.018      346.830       25.361      866.450
10/04/2014  14:19:00      139.786      107.482       59.790       86.829       72.798       67.203     7539.306     5299.614     4516.219        2.601        0.868      176.331       41.155        0.054      346.980       25.616      866.444
10/04/2014  14:20:00       95.303       68.985       73.969       70.751       73.396       55.828     5005.729     5387.006     3116.811        1.641        0.675      117.650       39.541        0.113      347.017       25.680      866.435
10/04/2014  14:21:00       40.943       34.887       41.272       45.575       60.903       36.094     2077.108     3709.143     1302.792        0.584        0.354       53.791       33.883        0.397      347.316       26.198      866.435
10/04/2014  14:22:00       42.042       74.130       78.758       48.429       71.259       54.728     2345.320     5077.915     2995.164        1.194        0.521       85.222       51.746        0.369      347.155       25.920      866.425
10/04/2014  14:23:00       58.972       59.483       67.298       72.419       52.159       43.116     5244.529     2720.535     1858.990        1.068        0.491       83.761       28.571        0.116      347.114       25.847      866.426
10/04/2014  14:24:00      155.789       72.399       21.386       81.325       79.719       48.738     6613.793     6355.050     2375.430        2.265        0.767      171.791       22.802        0.018      347.054       25.745      866.407
10/04/2014  14:25:00      205.355       93.582       36.820       89.397       60.493       59.807     7991.902     3659.422     3576.921        3.375        0.761      225.672       26.783        0.014      346.927       25.522      866.408
10/04/2014  14:26:00      117.933       94.549       69.059       55.202       50.805       54.300     3047.224     2581.118     2948.534        1.810        0.429      151.154       24.012        0.025      346.952       25.570      866.409
10/04/2014  14:27:00      122.557       72.297        8.672       65.152       56.325       42.574     4244.759     3172.494     1812.525        1.477        0.461      142.292       25.875        0.033      346.884       25.452      866.415
10/04/2014  14:28:00      -33.187       34.382      -22.141       21.650       31.798       14.586      468.708     1011.135      212.763        0.223        0.085       47.786        5.580        0.014      346.858       25.407      866.402
10/04/2014  14:29:00        7.090       31.758       -6.804       35.730       33.493       19.562     1276.608     1121.787      382.669        0.194        0.139       32.539        8.668        0.071      347.128       25.873      866.380
10/04/2014  14:30:00       -6.970       81.497      -17.740       28.631       35.852       21.447      819.714     1285.336      459.954        0.478        0.128       81.794       14.651        0.032      346.812       25.330      866.365
10/04/2014  14:31:00      -23.317       34.366       -4.076       17.708       17.127       16.856      313.568      293.342      284.117        0.132        0.045       41.530        5.431        0.017      347.201       25.999      866.351
10/04/2014  14:32:00       11.470       13.235       -2.936       21.100       35.257        9.806      445.214     1243.067       96.158        0.105        0.089       17.514        7.499        0.183      347.340       26.238      866.349
10/04/2014  14:33:00        0.339       -6.915       12.848       20.582       36.555       25.407      423.610     1336.299      645.519        0.131        0.120        6.923       19.841        8.213      347.626       26.731      866.331
10/04/2014  14:34:00       45.839      -37.888       55.771       57.724      120.245       57.092     3332.049    14458.740     3259.515        1.385        1.053       59.470       74.146        1.554      347.371       26.290      866.313
10/04/2014  14:35:00       88.578     -127.245       -6.808       61.652       83.841       38.050     3800.954     7029.259     1447.777        1.818        0.614      155.040       46.654        0.091      347.225       26.038      866.301
10/04/2014  14:36:00       88.068     -191.400      -13.309       49.925       65.527       41.187     2492.533     4293.812     1696.342        2.652        0.424      210.689       30.277        0.021      347.058       25.750      866.293
10/04/2014  14:37:00      144.627     -194.918      -31.580       51.639       64.901       37.552     2666.635     4212.120     1410.138        3.410        0.414      242.714       26.750        0.012      347.053       25.740      866.280
10/04/2014  14:38:00       59.394     -114.915      -17.311       44.371       60.788       34.267     1968.804     3695.127     1174.240        1.193        0.342      129.356       27.195        0.044      346.997       25.647      866.284
10/04/2014  14:39:00      -23.125       18.498       -4.881       34.461       23.219       25.020     1187.533      539.111      625.982        0.163        0.118       29.613       11.564        0.153      347.523       26.553      866.266
10/04/2014  14:40:00      -40.260      -14.847       -5.558       41.807       27.259       18.833     1747.848      743.056      354.668        0.236        0.142       42.910       12.168        0.080      347.579       26.650      866.252
10/04/2014  14:41:00       31.784       22.344       15.283       48.680       26.363       24.551     2369.742      695.024      602.748        0.270        0.183       38.852       13.080        0.113      347.491       26.500      866.243
10/04/2014  14:42:00      125.476       93.200        3.004       70.830       52.639       44.239     5016.855     2770.844     1957.106        1.709        0.487      156.302       31.828        0.041      347.288       26.147      866.244
10/04/2014  14:43:00       97.795      126.365       -4.178       74.716       69.610       39.166     5582.430     4845.548     1533.985        1.875        0.598      159.788       41.274        0.067      347.280       26.133      866.233
10/04/2014  14:44:00        7.158      145.904        0.801       46.829       71.620       45.220     2192.939     5129.440     2044.804        1.535        0.468      146.079       44.620        0.093      347.338       26.235      866.233
10/04/2014  14:45:00       35.948      114.775       -2.729       58.212       55.032       41.906     3388.641     3028.536     1756.115        1.132        0.409      120.273       34.131        0.081      347.521       26.549      866.217
10/04/2014  14:46:00       81.160       56.909       15.223       54.242       41.908       36.175     2942.159     1756.292     1308.660        0.803        0.300       99.124       22.513        0.052      347.620       26.722      866.197
10/04/2014  14:47:00      122.888      107.501        2.787       70.929       41.798       42.365     5030.931     1747.032     1794.829        1.762        0.429      163.273       26.000        0.025      347.238       26.062      866.188
10/04/2014  14:48:00       60.670       59.989        6.415       42.391       42.026       27.297     1796.961     1766.180      745.103        0.581        0.215       85.321       18.323        0.046      347.207       26.009      866.185
10/04/2014  14:49:00        3.924       27.617       -5.088       28.658       20.930       20.606      821.298      438.052      424.597        0.124        0.084       27.895        9.030        0.105      347.433       26.398      866.170
10/04/2014  14:50:00       77.277       86.113        3.198       57.008       44.292       35.080     3249.895     1961.815     1230.602        0.992        0.322      115.703       29.749        0.066      347.312       26.190      866.162
10/04/2014  14:51:00       25.125      138.607      -26.110       39.831       66.230       34.365     1586.492     4386.471     1180.970        1.384        0.358      140.866       34.579        0.060      347.183       25.966      866.145
10/04/2014  14:52:00      -33.893      103.982      -11.292       43.299       52.109       31.563     1874.773     2715.319      996.230        0.884        0.279      109.367       33.631        0.095      347.449       26.426      866.139
10/04/2014  14:53:00        0.014       47.382      -10.347       38.305       28.241       25.018     1467.244      797.580      625.888        0.262        0.145       47.382       20.240        0.182      347.437       26.405      866.134
10/04/2014  14:54:00       63.700       70.292        6.733       58.808       38.558       37.485     3458.366     1486.691     1405.127        0.770        0.318       94.861       20.502        0.047      347.391       26.326      866.133
10/04/2014  14:55:00       57.312       49.439      -11.838       30.838       40.497       33.741      950.955     1640.003     1138.432        0.480        0.186       75.689       22.594        0.089      347.246       26.077      866.123
10/04/2014  14:56:00       37.258       22.480       22.370       45.258       19.163       25.041     2048.252      367.216      627.039        0.272        0.152       43.515       26.265        0.364      347.432       26.398      866.111
10/04/2014  14:57:00       46.439       60.926       -9.486       28.220       58.852       25.745      796.364     3463.603      662.827        0.544        0.246       76.607       22.016        0.083      347.287       26.146      866.106
10/04/2014  14:58:00       48.015      125.901      -18.503       48.573       64.894       36.565     2359.337     4211.175     1336.990        1.320        0.395      134.746       26.223        0.038      347.442       26.411      866.088
10/04/2014  14:59:00       49.498      143.558       -1.384       72.722      109.701       45.327     5288.521    12034.371     2054.501        2.122        0.969      151.851       62.727        0.171      347.671       26.808      866.071
10/04/2014  15:00:00       61.086      122.200       -6.137       96.347       73.486       63.057     9282.727     5400.237     3976.219        1.868        0.933      136.618       52.416        0.147      347.615       26.711      866.063
10/04/2014  15:01:00       78.702       72.291        4.366       68.296       54.110       36.366     4664.382     2927.902     1322.473        1.018        0.446      106.864       32.446        0.092      347.460       26.445      866.059
10/04/2014  15:02:00       65.016       10.931       -4.185       49.913       43.022       25.886     2491.325     1850.927      670.060        0.469        0.251       65.929        8.697        0.017      347.313       26.192      866.051
10/04/2014  15:03:00        2.796      118.241      -27.146       33.354       73.357       30.701     1112.509     5381.205      942.565        1.108        0.372      118.274       35.592        0.091      347.380       26.307      866.040
10/04/2014  15:04:00       40.655      109.269        2.568       62.213       89.604       58.174     3870.448     8028.864     3384.165        1.444        0.764      116.588       53.180        0.208      347.485       26.486      866.019
10/04/2014  15:05:00       77.714      119.216       -3.988       62.496       71.769       64.596     3905.719     5150.786     4172.633        1.675        0.661      142.309       51.681        0.132      347.384       26.313      866.015
10/04/2014  15:06:00       63.927       66.700        2.532       59.163       56.255       42.147     3500.304     3164.629     1776.372        0.849        0.422       92.388       35.105        0.144      347.469       26.461      866.006
10/04/2014  15:07:00      114.964       67.728        5.682       30.163       34.520       29.996      909.824     1191.619      899.741        1.042        0.150      133.431       15.699        0.014      347.378       26.304      865.989
10/04/2014  15:08:00      124.105       76.811        3.168       31.565       32.756       34.703      996.341     1072.934     1204.320        1.229        0.164      145.952       11.066        0.006      347.487       26.492      865.968
10/04/2014  15:09:00      125.150       89.417       13.043       86.331       51.303       38.801     7453.012     2632.002     1505.532        1.771        0.580      153.811       33.046        0.046      347.614       26.709      865.964
10/04/2014  15:10:00       30.635      220.452      -36.369       49.580       70.487       30.287     2458.194     4968.422      917.287        2.960        0.417      222.570       31.905        0.021      347.517       26.540      865.961
10/04/2014  15:11:00        6.703      128.241      -12.787       48.673       51.597       35.316     2369.104     2662.282     1247.225        1.147        0.314      128.416       33.126        0.067      347.593       26.675      865.940
10/04/2014  15:12:00       16.303      141.227      -12.564       48.410       76.876       44.912     2343.517     5909.977     2017.102        1.532        0.514      142.165       49.013        0.119      347.532       26.567      865.930
10/04/2014  15:13:00       -8.994      183.044      -23.852       50.272       44.220       19.869     2527.267     1955.450      394.796        1.952        0.244      183.265        8.202        0.002      347.463       26.449      865.926
10/04/2014  15:14:00       25.833       83.387       -6.004       26.069       42.427       22.409      679.613     1800.014      502.150        0.532        0.149       87.297       13.716        0.025      347.732       26.915      865.914
10/04/2014  15:15:00        1.096        9.373        3.720       13.262       22.722       20.974      175.888      516.299      439.928        0.062        0.057        9.437       19.007        4.057      348.039       27.444      865.904
10/04/2014  15:16:00       45.589       31.417       26.068       46.564       48.104       31.161     2168.174     2313.960      970.980        0.460        0.273       55.366       28.870        0.272      347.804       27.039      865.901
10/04/2014  15:17:00       36.047       88.340       -3.924       52.380       98.753       38.532     2743.671     9752.062     1484.688        1.155        0.699       95.411       39.536        0.172      347.737       26.923      865.888
10/04/2014  15:18:00       44.987       84.661       -9.557       28.393       51.454       27.996      806.150     2647.510      783.774        0.676        0.212       95.871       31.125        0.105      347.435       26.403      865.896
10/04/2014  15:19:00       51.017       48.659        2.743       13.548       15.664       18.607      183.551      245.357      346.214        0.288        0.039       70.501       10.406        0.022      347.578       26.649      865.889
10/04/2014  15:20:00      116.038      103.621       19.715      134.497       82.076       54.853    18089.512     6736.451     3008.859        2.621        1.392      155.570       18.512        0.014      347.687       26.835      865.874
10/04/2014  15:21:00      208.877       93.308       43.757      127.356       71.993       65.887    16219.678     5183.009     4341.075        3.999        1.287      228.770       29.270        0.016      347.799       27.027      865.849
10/04/2014  15:22:00      137.414       99.785       -2.857       79.653       66.338       59.641     6344.527     4400.780     3557.030        2.157        0.715      169.822       32.975        0.038      347.595       26.674      865.848
10/04/2014  15:23:00       75.619        8.814        8.702       56.089       63.064       43.058     3145.927     3977.064     1854.004        0.742        0.449       76.131       19.257        0.064      347.701       26.861      865.845
10/04/2014  15:24:00       29.072      -35.562       27.577       43.355       70.755       41.434     1879.614     5006.324     1716.761        0.574        0.430       45.933       46.241        1.013      347.807       27.044      865.832
10/04/2014  15:25:00       36.581      -53.059       26.209       36.536       72.077       45.835     1334.880     5195.119     2100.822        0.673        0.432       64.447       49.455        0.589      347.721       26.896      865.827
10/04/2014  15:26:00       67.147     -136.941       -9.247       34.028       28.456       23.764     1157.914      809.736      564.708        1.294        0.127      152.517       18.976        0.015      347.603       26.691      865.804
10/04/2014  15:27:00       62.641      -25.867       -0.833       44.538       36.704       24.952     1983.647     1347.198      622.597        0.427        0.198       67.772       20.784        0.094      347.618       26.717      865.788
10/04/2014  15:28:00        9.281       31.641       -1.137       12.236       19.805       17.266      149.730      392.252      298.121        0.096        0.042       32.974        9.774        0.088      347.803       27.037      865.779
10/04/2014  15:29:00        9.641      -42.513       -8.974       19.499       29.504       18.254      380.193      870.468      333.210        0.178        0.079       43.593       13.585        0.097      347.768       26.976      865.772
10/04/2014  15:30:00      -12.118       12.129       -0.300       18.243       18.704       21.341      332.791      349.836      455.451        0.072        0.057       17.146       15.207        0.787      347.892       27.191      865.764
10/04/2014  15:31:00       38.339       25.533        9.782       23.120       23.828       23.980      534.511      567.758      575.028        0.195        0.084       46.063       17.696        0.148      347.758       26.960      865.758
10/04/2014  15:32:00       -1.739       95.123      -15.336       46.434       44.965       16.683     2156.149     2021.842      278.330        0.687        0.223       95.139       11.944        0.016      347.769       26.979      865.740
10/04/2014  15:33:00        9.029       93.876      -18.824       27.880       41.720       16.563      777.297     1740.555      274.338        0.602        0.140       94.309       10.828        0.013      347.570       26.635      865.724
10/04/2014  15:34:00       -6.826       22.946       -7.181       14.764       33.539       11.745      217.983     1124.849      137.948        0.105        0.074       23.940       10.482        0.192      347.768       26.978      865.705
10/04/2014  15:35:00       44.539       67.757       26.809       49.514       43.857       34.865     2451.667     1923.448     1215.551        0.644        0.280       81.085       23.121        0.081      347.690       26.842      865.700
10/04/2014  15:36:00       23.459      -35.818       -2.068       39.528       53.253       30.623     1562.475     2835.922      937.780        0.359        0.267       42.817       33.767        0.622      347.708       26.872      865.678
10/04/2014  15:37:00       99.749       89.558       17.500       87.502       60.776       46.383     7656.683     3693.693     2151.347        1.589        0.675      134.054       38.538        0.083      347.729       26.910      865.672
10/04/2014  15:38:00      205.650      151.535       26.253      130.921       88.506       97.480    17140.297     7833.271     9502.348        5.020        1.724      255.450       67.516        0.070      347.696       26.849      865.650
10/04/2014  15:39:00      254.593      194.405       16.057      103.479       86.587       74.832    10707.979     7497.302     5599.775        6.333        1.190      320.329       58.572        0.033      347.597       26.678      865.632
10/04/2014  15:40:00      227.122      143.961       47.767      103.461       76.912       68.994    10704.270     5915.433     4760.201        4.798        1.069      268.904       32.197        0.014      347.750       26.940      865.629
10/04/2014  15:41:00      297.317      197.832       59.045       75.554       76.407       67.633     5708.454     5838.019     4574.261        7.357        0.806      357.120       46.833        0.017      347.654       26.774      865.640
10/04/2014  15:42:00      219.592      107.326       24.990       83.731       63.882       56.842     7010.875     4080.853     3231.053        3.734        0.716      244.417       37.986        0.024      347.535       26.573      865.648
10/04/2014  15:43:00      191.329       92.172       26.835      100.277       73.390       55.670    10055.413     5386.161     3099.166        3.218        0.927      212.374       43.888        0.043      347.541       26.581      865.625
10/04/2014  15:44:00      124.780       89.852       27.811       92.051       63.664       54.344     8473.462     4053.083     2953.300        1.995        0.774      153.764       50.939        0.110      347.686       26.833      865.617
10/04/2014  15:45:00      192.531      114.722       29.088       65.999       56.008       50.129     4355.809     3136.911     2512.893        3.054        0.500      224.118       30.900        0.019      347.648       26.766      865.613
10/04/2014  15:46:00      145.265       75.573       14.810       60.374       42.527       30.950     3645.058     1808.533      957.881        1.672        0.321      163.747       14.620        0.008      347.507       26.525      865.610
10/04/2014  15:47:00       95.193       92.245       26.061       46.513       32.441       30.037     2163.482     1052.387      902.214        1.118        0.206      132.555       20.935        0.025      347.479       26.479      865.610
10/04/2014  15:48:00       46.946       35.450       25.656       52.047       37.859       38.235     2708.929     1433.324     1461.950        0.486        0.280       58.828       31.327        0.284      347.534       26.572      865.592
10/04/2014  15:49:00       38.275       65.837       61.654       32.980       28.098       23.023     1087.650      789.496      530.043        0.600        0.120       76.155       15.107        0.039      347.569       26.632      865.582
10/04/2014  15:50:00       18.525      -12.134       -3.357       23.927       41.752       17.545      572.513     1743.244      307.836        0.156        0.131       22.145       15.609        0.497      347.675       26.815      865.560
10/04/2014  15:51:00       31.320      -47.279       -9.096       18.542       26.607       17.374      343.808      707.947      301.848        0.233        0.068       56.712       12.413        0.048      347.502       26.517      865.538
10/04/2014  15:52:00      -18.482       26.458      -12.470       49.875       33.841       28.445     2487.513     1145.227      809.092        0.282        0.222       32.274       19.173        0.353      347.758       26.959      865.523
10/04/2014  15:53:00       30.021       50.962        0.873       31.864       37.255       18.303     1015.320     1387.904      335.000        0.312        0.137       59.148       16.271        0.076      347.709       26.874      865.505
10/04/2014  15:54:00       48.176       50.478       20.686       77.028       63.813       36.057     5933.359     4072.111     1300.142        0.830        0.565       69.778       43.646        0.391      347.673       26.812      865.492
10/04/2014  15:55:00      103.034       30.622       10.825       54.688       60.369       45.137     2990.812     3644.408     2037.377        1.017        0.434      107.488       45.347        0.178      347.665       26.798      865.492
10/04/2014  15:56:00       83.666       65.805        2.560       73.434       40.984       30.581     5392.601     1679.721      935.169        0.967        0.400      106.444       21.186        0.040      347.811       27.050      865.469
10/04/2014  15:57:00       54.857       60.461       64.910       94.460       71.681       51.709     8922.684     5138.176     2673.780        1.380        0.837       81.638       44.410        0.296      347.994       27.365      865.470
10/04/2014  15:58:00      105.148       62.514       39.266       88.069       70.569       56.740     7756.100     4979.914     3219.453        1.623        0.798      122.328       42.823        0.123      347.761       26.963      865.471
10/04/2014  15:59:00      135.389       91.782       36.785      107.697       68.849       40.038    11598.659     4740.120     1603.004        2.302        0.897      163.567       27.657        0.029      347.786       27.006      865.449
10/04/2014  16:00:00       99.424      149.170       -9.930       98.608       91.222       64.713     9723.610     8321.403     4187.822        2.723        1.112      179.267       58.798        0.108      347.800       27.029      865.444
10/04/2014  16:01:00      213.555      152.822       25.979      108.604       72.884       61.256    11794.823     5312.060     3752.298        4.524        1.043      262.603       35.061        0.018      347.750       26.942      865.441
10/04/2014  16:02:00      198.865      139.222       23.782       84.753       77.388       44.866     7183.140     5988.839     2012.956        3.734        0.759      242.755       15.230        0.004      347.659       26.785      865.439
10/04/2014  16:03:00      145.329      120.537        6.820       90.962       65.492       42.832     8274.104     4289.215     1834.596        2.504        0.720      188.811       22.631        0.014      347.567       26.626      865.444
10/04/2014  16:04:00      116.455       66.948       15.890       59.983       49.648       40.983     3597.975     2464.914     1679.627        1.302        0.387      134.327       28.871        0.046      347.778       26.992      865.437
10/04/2014  16:05:00      171.661      103.799       13.493       44.788       32.971       32.330     2005.940     1087.102     1045.230        2.228        0.207      200.604       21.733        0.012      347.622       26.724      865.440
10/04/2014  16:06:00      126.547       52.787        6.001       70.057       53.027       42.280     4907.963     2811.811     1787.582        1.417        0.475      137.116       21.180        0.024      347.743       26.933      865.437
10/04/2014  16:07:00       54.294       14.042       19.446       37.043       28.059       35.004     1372.150      787.320     1225.304        0.345        0.169       56.081       20.936        0.139      347.704       26.866      865.428
10/04/2014  16:08:00       54.328      -36.832       26.286       60.827       49.681       27.537     3699.899     2468.219      758.305        0.596        0.346       65.637       27.262        0.173      347.823       27.071      865.411
10/04/2014  16:09:00       36.149       -7.558       47.014       70.063       93.827       55.638     4908.769     8803.532     3095.611        1.019        0.840       36.931       61.034        2.731      347.704       26.866      865.392
10/04/2014  16:10:00       99.256     -115.322      -23.551       31.207       47.822       28.835      973.852     2286.922      831.474        1.390        0.205      152.154       16.241        0.011      347.624       26.726      865.387
10/04/2014  16:11:00       44.085      -22.203        8.534       35.021       45.056       29.438     1226.462     2030.076      866.604        0.332        0.206       49.360       22.511        0.208      347.643       26.761      865.389
10/04/2014  16:12:00       34.233       70.884      -11.316       32.218       40.557       18.479     1038.022     1644.869      341.462        0.467        0.151       78.718       20.263        0.066      347.665       26.799      865.393
10/04/2014  16:13:00        6.845      139.154      -14.647       61.579       76.739       31.982     3791.941     5888.899     1022.864        1.516        0.535      139.322       46.098        0.109      347.699       26.856      865.382
10/04/2014  16:14:00      -50.971      145.039      -26.125       33.111       35.039       20.360     1096.324     1227.743      414.529        1.353        0.137      153.734       13.967        0.008      347.670       26.807      865.381
10/04/2014  16:15:00      -28.313      149.241      -10.180       44.078       61.506       31.552     1942.876     3783.024      995.539        1.495        0.336      151.903       31.762        0.044      347.778       26.993      865.376
10/04/2014  16:16:00      -14.679       51.268      -21.568       33.713       50.106       25.503     1136.584     2510.611      650.426        0.380        0.215       53.329        8.832        0.027      347.773       26.986      865.372
10/04/2014  16:17:00      -51.505       63.112      -14.793       44.041       31.667       22.787     1939.597     1002.796      519.246        0.516        0.173       81.461       18.990        0.054      347.899       27.201      865.365
10/04/2014  16:18:00       38.700       70.321        0.152       41.149       37.310       35.245     1693.237     1392.054     1242.203        0.538        0.216       80.267       26.409        0.108      347.774       26.988      865.358
10/04/2014  16:19:00       30.385      136.951      -16.948       41.623       66.294       39.755     1732.495     4394.867     1580.473        1.384        0.385      140.281       41.234        0.086      347.718       26.889      865.364
10/04/2014  16:20:00       59.016       69.474      -13.028       35.818       38.468       22.337     1282.899     1479.791      498.919        0.587        0.163       91.157       20.375        0.050      347.585       26.660      865.364
10/04/2014  16:21:00      108.178       36.444       11.420       46.137       28.625       26.214     2128.590      819.415      687.196        0.840        0.182      114.152       20.424        0.032      347.618       26.721      865.352
10/04/2014  16:22:00       76.756       66.109        5.832       76.235       45.418       38.367     5811.727     2062.826     1472.028        0.982        0.467      101.301       24.003        0.056      347.714       26.884      865.349
10/04/2014  16:23:00       51.359       75.621       -1.023       50.188       52.212       38.026     2518.857     2726.061     1445.979        0.752        0.335       91.412       32.784        0.129      347.628       26.736      865.348
10/04/2014  16:24:00      110.590       49.069       16.670       40.129       32.973       37.187     1610.316     1087.225     1382.908        0.950        0.204      120.988       15.274        0.016      347.663       26.794      865.344
10/04/2014  16:25:00       95.705       73.992       25.860       37.781       35.486       33.792     1427.420     1259.269     1141.931        0.957        0.191      120.972       18.795        0.024      347.767       26.975      865.338
10/04/2014  16:26:00       11.110       20.109       10.892       21.301       19.519       18.635      453.730      381.001      347.259        0.091        0.059       22.974       10.469        0.208      347.977       27.338      865.331
10/04/2014  16:27:00        7.221       37.100       37.767       24.923       31.176       26.297      621.144      971.928      691.517        0.257        0.114       37.796       17.362        0.211      347.956       27.301      865.330
10/04/2014  16:28:00       47.669       19.139       22.170       45.277       42.784       25.798     2049.992     1830.476      665.522        0.384        0.227       51.368       21.740        0.179      347.849       27.115      865.343
10/04/2014  16:29:00       57.814       35.152       28.713       57.685       55.931       33.095     3327.596     3128.304     1095.292        0.648        0.378       67.662       23.662        0.122      347.854       27.126      865.348
10/04/2014  16:30:00        9.400      185.615      -25.529       35.444       62.001       34.980     1256.269     3844.159     1223.630        2.076        0.316      185.853       38.530        0.043      347.721       26.893      865.356
10/04/2014  16:31:00       75.201      141.440      -11.783       63.357       80.069       48.164     4014.070     6411.075     2319.805        1.927        0.637      160.189       46.531        0.084      347.686       26.833      865.354
10/04/2014  16:32:00       45.454      109.716       -0.883       64.532       90.236       38.151     4164.417     8142.619     1455.463        1.393        0.688      118.759       41.009        0.119      347.668       26.803      865.354
10/04/2014  16:33:00       18.564      146.136      -16.851       53.244       63.665       35.498     2834.966     4053.222     1260.116        1.506        0.407      147.311       39.232        0.071      347.726       26.902      865.351
10/04/2014  16:34:00       22.433      104.632       -9.132       32.721       38.801       28.502     1070.694     1505.540      812.352        0.746        0.169      107.010       26.971        0.064      347.773       26.985      865.348
10/04/2014  16:35:00       95.551       75.246        8.869       56.078       40.725       35.770     3144.769     1658.531     1279.465        1.048        0.304      121.623       25.829        0.045      347.759       26.961      865.351
10/04/2014  16:36:00      131.082       47.870       43.773       81.100       68.947       56.587     6577.250     4753.661     3202.114        1.796        0.727      139.549       31.458        0.051      347.838       27.096      865.325
10/04/2014  16:37:00      136.666       64.802       22.020       80.535       61.933       45.754     6485.965     3835.738     2093.399        1.789        0.621      151.251       28.970        0.037      347.884       27.174      865.334
10/04/2014  16:38:00       91.455       77.511       21.367       91.412       66.518       47.334     8356.189     4424.626     2240.505        1.492        0.751      119.883       46.308        0.149      347.825       27.073      865.328
10/04/2014  16:39:00      144.555       99.498        9.690       83.270       69.571       42.702     6933.906     4840.161     1823.464        2.224        0.680      175.488       42.693        0.059      347.742       26.929      865.331
10/04/2014  16:40:00      104.253       58.840        8.308       38.781       38.323       34.160     1503.992     1468.654     1166.935        0.927        0.207      119.711       20.442        0.029      347.692       26.845      865.329
10/04/2014  16:41:00       72.401       45.051       19.800       37.699       38.654       27.485     1421.214     1494.114      755.427        0.567        0.184       85.273       14.298        0.028      347.777       26.993      865.319
10/04/2014  16:42:00       69.394       88.762        1.984       50.909       47.217       29.832     2591.707     2229.474      889.964        0.920        0.286      112.669       23.795        0.045      347.782       27.000      865.313
10/04/2014  16:43:00      116.325       54.456       14.397      114.977       68.919       46.009    13219.744     4749.859     2116.840        1.839        1.004      128.441       18.262        0.020      347.777       26.990      865.304
10/04/2014  16:44:00       35.589      175.427      -24.128       39.874       56.816       36.252     1589.938     3228.073     1314.186        1.938        0.307      179.001       37.788        0.045      347.810       27.047      865.295
10/04/2014  16:45:00       67.132       74.098        4.652       48.733       49.436       29.569     2374.946     2443.939      874.349        0.786        0.285       99.986       25.804        0.067      347.734       26.917      865.295
10/04/2014  16:46:00       86.331       52.716       12.435       35.198       35.660       21.746     1238.893     1271.647      472.869        0.668        0.149      101.154       14.693        0.021      347.772       26.984      865.299
10/04/2014  16:47:00       66.308      101.524      107.034       78.338       77.690       68.530     6136.839     6035.721     4696.360        2.151        0.843      121.259       64.362        0.282      347.837       27.092      865.294
10/04/2014  16:48:00      132.373       97.409       52.396       75.473       55.668       51.747     5696.186     3098.899     2677.705        2.061        0.574      164.350       30.184        0.034      347.775       26.987      865.304
10/04/2014  16:49:00      181.595      102.426       21.067       69.726       59.507       45.087     4861.722     3541.085     2032.809        2.717        0.522      208.489       30.933        0.022      347.765       26.968      865.313
10/04/2014  16:50:00      175.599      116.866       45.238       61.303       51.920       45.577     3758.038     2695.737     2077.245        2.753        0.427      210.933       32.621        0.024      347.823       27.069      865.309
10/04/2014  16:51:00      185.730      105.761       33.807      114.289       76.210       59.689    13062.023     5807.999     3562.741        3.462        1.122      213.731       32.960        0.024      347.793       27.018      865.310
10/04/2014  16:52:00      262.289      140.351       29.626      129.161      101.759       78.639    16682.613    10354.982     6184.141        6.129        1.661      297.480       38.183        0.016      347.676       26.813      865.300
10/04/2014  16:53:00      274.118      156.310       33.801      111.550       87.557       69.056    12443.295     7666.251     4768.773        6.279        1.244      315.553       49.936        0.025      347.658       26.784      865.303
10/04/2014  16:54:00      165.082       92.816       33.065       99.867       63.843       57.076     9973.369     4075.869     3257.681        2.713        0.865      189.386       43.869        0.054      347.741       26.926      865.298
10/04/2014  16:55:00      140.664      107.128        3.491       78.214       74.070       61.559     6117.506     5486.356     3789.528        2.333        0.770      176.813       40.292        0.052      347.688       26.837      865.300
10/04/2014  16:56:00      118.554      119.993      -11.043       94.797       73.567       60.188     8986.538     5412.149     3622.568        2.330        0.901      168.681       40.166        0.057      347.672       26.808      865.302
10/04/2014  16:57:00       70.324      135.844       -1.035       76.605       85.306       65.413     5868.312     7277.112     4278.867        2.041        0.871      152.967       55.800        0.133      347.636       26.746      865.308
10/04/2014  16:58:00       47.908       96.239       -4.571       57.712       63.246       42.930     3330.682     4000.021     1843.009        1.037        0.459      107.504       35.401        0.108      347.615       26.714      865.311
10/04/2014  16:59:00      132.300       94.156       15.755       59.593       49.009       45.837     3551.282     2401.881     2101.067        1.733        0.403      162.384       34.715        0.046      347.646       26.764      865.314
10/04/2014  17:00:00      172.744      123.002       30.535       64.191       47.557       47.771     4120.440     2261.704     2282.030        2.728        0.433      212.061       23.925        0.013      347.593       26.670      865.310
10/04/2014  17:01:00      118.799       97.220        5.866       41.335       30.075       30.826     1708.620      904.483      950.272        1.358        0.178      153.509       13.597        0.008      347.652       26.776      865.299
10/04/2014  17:02:00       37.360       44.279        7.016       39.573       38.205       31.255     1565.990     1459.635      976.866        0.370        0.200       57.934       25.583        0.195      347.757       26.956      865.297
10/04/2014  17:03:00       94.411       71.941        5.062       61.244       51.079       42.955     3750.807     2609.025     1845.161        1.116        0.410      118.697       20.006        0.028      347.755       26.954      865.301
10/04/2014  17:04:00      188.374      139.850       20.720       94.234       64.990       53.871     8880.129     4223.672     2902.076        3.574        0.800      234.612       45.127        0.037      347.673       26.807      865.311
10/04/2014  17:05:00      230.768      159.684       28.145       81.005       57.315       55.431     6561.733     3284.980     3072.563        4.623        0.646      280.629       36.174        0.017      347.652       26.772      865.309
10/04/2014  17:06:00      137.317      104.145       15.484      104.413       63.997       47.848    10902.124     4095.657     2289.401        2.361        0.864      172.343       34.415        0.040      347.657       26.782      865.315
10/04/2014  17:07:00       67.487      115.856       -0.005       57.718       75.377       52.337     3331.403     5681.618     2739.120        1.486        0.588      134.079       54.356        0.164      347.616       26.713      865.324
10/04/2014  17:08:00       29.300       77.634       -5.139       44.382       60.746       38.501     1969.740     3690.020     1482.319        0.703        0.357       82.979       33.496        0.163      347.717       26.888      865.327
10/04/2014  17:09:00       67.295       68.362       11.114       66.533       54.173       54.087     4426.682     2934.662     2925.412        0.980        0.514       95.928       36.702        0.146      347.669       26.805      865.334
10/04/2014  17:10:00      178.746      136.151       16.371       99.372       62.704       52.409     9874.862     3931.778     2746.754        3.365        0.828      224.693       37.947        0.029      347.689       26.835      865.335
10/04/2014  17:11:00      159.999       81.298       38.686       81.285       60.614       44.602     6607.194     3674.084     1989.326        2.299        0.614      179.469       26.676        0.022      347.674       26.811      865.350
10/04/2014  17:12:00      164.421       77.622       17.274       84.614       52.222       41.203     7159.494     2727.153     1697.700        2.247        0.579      181.823       25.840        0.020      347.683       26.829      865.356
10/04/2014  17:13:00       42.184       39.138       32.460       48.316       40.274       36.729     2334.395     1622.013     1349.036        0.483        0.265       57.543       25.047        0.189      347.580       26.652      865.356
10/04/2014  17:14:00       83.424       83.195        1.428       52.902       49.394       40.062     2798.654     2439.795     1604.992        1.036        0.342      117.818       35.270        0.090      347.670       26.808      865.353
10/04/2014  17:15:00      123.362       93.727       15.856       56.342       34.703       34.324     3174.470     1204.316     1178.135        1.490        0.278      154.929       17.818        0.013      347.700       26.858      865.353
10/04/2014  17:16:00      111.233       62.043       17.812       69.647       43.525       35.430     4850.690     1894.394     1255.290        1.227        0.400      127.366       11.971        0.009      347.606       26.698      865.341
10/04/2014  17:17:00       79.334       90.986       -4.002       58.525       75.178       50.984     3425.139     5651.671     2599.346        1.313        0.584      120.716       50.992        0.178      347.615       26.712      865.345
10/04/2014  17:18:00       94.624       79.406       10.892       67.106       46.496       40.900     4503.205     2161.862     1672.785        1.186        0.417      123.527       31.007        0.063      347.642       26.759      865.340
10/04/2014  17:19:00      110.464       74.748       16.664       54.567       33.969       35.415     2977.564     1153.882     1254.188        1.173        0.269      133.378       25.712        0.037      347.685       26.834      865.345
10/04/2014  17:20:00      169.034      116.406       28.158       71.891       59.692       48.085     5168.373     3563.086     2312.131        2.698        0.552      205.238       39.495        0.037      347.652       26.773      865.337
10/04/2014  17:21:00      199.809      143.560       26.122       91.801       53.411       49.681     8427.342     2852.711     2468.210        3.748        0.687      246.035       39.778        0.026      347.587       26.661      865.339
10/04/2014  17:22:00       94.401      171.926       -1.902      104.112       65.980       42.286    10839.265     4353.300     1788.070        2.772        0.849      196.138       39.733        0.041      347.581       26.652      865.339
10/04/2014  17:23:00       92.746      105.600       11.712       64.502       63.439       46.771     4160.456     4024.447     2187.569        1.513        0.519      140.546       36.617        0.068      347.553       26.606      865.344
10/04/2014  17:24:00      130.335       77.674       32.071       72.034       52.967       41.486     5188.894     2805.529     1721.054        1.688        0.486      151.725       34.766        0.053      347.530       26.566      865.346
10/04/2014  17:25:00      148.747      112.652       30.688       55.339       54.387       41.960     3062.443     2957.993     1760.626        2.177        0.389      186.591       27.889        0.022      347.587       26.663      865.351
10/04/2014  17:26:00       93.999       93.769       -9.848       65.458       42.640       37.545     4284.685     1818.147     1409.623        1.262        0.376      132.772       32.838        0.061      347.622       26.724      865.348
10/04/2014  17:27:00       98.506       74.247        9.193       54.316       41.719       38.137     2950.194     1740.490     1454.439        1.072        0.307      123.353       30.619        0.062      347.617       26.716      865.340
10/04/2014  17:28:00       51.460       42.708        2.616       53.760       33.846       33.174     2890.135     1145.582     1100.487        0.481        0.257       66.873       24.273        0.132      347.613       26.708      865.329
10/04/2014  17:29:00       84.363       35.036       17.939       51.204       45.731       31.668     2621.799     2091.306     1002.876        0.719        0.286       91.349       13.039        0.020      347.595       26.680      865.328
10/04/2014  17:30:00       77.527       48.082       12.681       43.670       37.393       29.921     1907.032     1398.253      895.248        0.634        0.210       91.226       21.244        0.054      347.612       26.707      865.326
10/04/2014  17:31:00      182.978      103.559       16.116       53.843       48.649       35.707     2899.038     2366.719     1275.015        2.550        0.327      210.251       22.810        0.012      347.634       26.744      865.323
10/04/2014  17:32:00       57.200       18.582       -2.849       42.803       39.508       27.831     1832.087     1560.921      774.590        0.390        0.208       60.143       24.087        0.160      347.563       26.623      865.316
10/04/2014  17:33:00       78.384       38.881       20.593       43.471       35.625       26.102     1889.746     1269.152      681.293        0.596        0.192       87.497        7.780        0.008      347.547       26.594      865.312
10/04/2014  17:34:00       50.730       20.757       28.335       54.668       31.423       20.349     2988.557      987.424      414.072        0.410        0.220       54.812       20.893        0.145      347.622       26.724      865.305
10/04/2014  17:35:00      111.835       75.468       35.288       48.191       31.560       22.293     2322.375      996.018      496.975        1.163        0.191      134.916       20.654        0.023      347.555       26.609      865.306
10/04/2014  17:36:00      125.467       47.673       28.055       55.002       38.169       33.136     3025.182     1456.899     1098.012        1.219        0.279      134.219       27.364        0.042      347.594       26.676      865.303
10/04/2014  17:37:00      122.361       71.158       25.677       39.981       42.850       36.446     1598.498     1836.161     1328.317        1.273        0.238      141.547       17.064        0.015      347.582       26.658      865.298
10/04/2014  17:38:00      134.042      101.309       20.797       83.767       44.975       35.925     7016.992     2022.733     1290.605        1.950        0.517      168.020       24.993        0.022      347.527       26.559      865.289
10/04/2014  17:39:00       95.098       74.727       10.814       66.906       47.522       40.003     4476.398     2258.363     1600.213        1.154        0.417      120.945       24.018        0.039      347.516       26.541      865.289
10/04/2014  17:40:00      164.214      113.060       22.070       42.170       27.776       35.331     1778.269      771.521     1248.303        2.202        0.190      199.371       24.353        0.015      347.558       26.611      865.286
10/04/2014  17:41:00      120.698       70.516       29.646       47.355       39.245       30.762     2242.482     1540.153      946.309        1.257        0.236      139.788       18.199        0.017      347.532       26.569      865.283
10/04/2014  17:42:00       55.404       43.402        4.058       49.130       31.051       26.018     2413.734      964.144      676.961        0.451        0.203       70.381       15.582        0.049      347.570       26.636      865.279
10/04/2014  17:43:00       62.942       46.913       24.528       41.717       26.100       31.850     1740.307      681.205     1014.443        0.510        0.172       78.502       13.494        0.030      347.408       26.357      865.279
10/04/2014  17:44:00       41.676       31.916       26.336       46.949       32.382       33.339     2204.253     1048.591     1111.522        0.391        0.218       52.493       23.320        0.197      347.501       26.516      865.290
10/04/2014  17:45:00       50.316        7.919       39.715       36.921       60.833       34.483     1363.125     3700.714     1189.074        0.521        0.313       50.935       31.325        0.378      347.398       26.340      865.289
10/04/2014  17:46:00       68.347       40.237       38.683       40.690       34.187       24.838     1655.663     1168.771      616.931        0.561        0.172       79.311       15.462        0.038      347.391       26.326      865.292
10/04/2014  17:47:00       74.493       48.858       42.974       32.442       37.674       35.739     1052.467     1419.360     1277.301        0.677        0.187       89.086       20.339        0.052      347.358       26.270      865.298
10/04/2014  17:48:00       95.082       65.816       36.994       27.177       27.521       25.621      738.605      757.388      656.445        0.845        0.108      115.639       13.561        0.014      347.431       26.395      865.295
10/04/2014  17:49:00       63.232       36.842        8.163       26.390       33.720       27.009      696.425     1137.016      729.470        0.399        0.128       73.182       17.667        0.058      347.390       26.323      865.292
10/04/2014  17:50:00       30.317        7.359       19.530       25.873       18.104       16.914      669.433      327.759      286.078        0.132        0.064       31.198       11.482        0.135      347.394       26.331      865.291
10/04/2014  17:51:00       56.651       31.596       41.545       66.350       33.849       30.254     4402.374     1145.739      915.329        0.620        0.323       64.866       30.274        0.218      347.361       26.275      865.288
10/04/2014  17:52:00       75.823       38.469       26.069       54.456       39.651       34.000     2965.442     1572.207     1155.996        0.680        0.285       85.024       30.144        0.126      347.363       26.279      865.280
10/04/2014  17:53:00      124.022       74.301       26.933       57.636       58.787       31.519     3321.938     3455.913      993.476        1.470        0.389      144.576       16.283        0.013      347.328       26.217      865.286
10/04/2014  17:54:00       97.371       52.978       21.017       65.040       49.432       39.119     4230.211     2443.508     1530.270        1.047        0.410      110.850       26.438        0.057      347.315       26.196      865.279
10/04/2014  17:55:00      131.168       64.263       44.104       67.251       65.994       45.277     4522.741     4355.148     2049.996        1.710        0.546      146.064       43.075        0.087      347.232       26.050      865.287
10/04/2014  17:56:00      119.188       62.097       38.623       61.790       51.421       39.384     3817.953     2644.156     1551.139        1.378        0.401      134.394       22.685        0.028      347.238       26.061      865.289
10/04/2014  17:57:00      144.455       74.575       23.143       49.568       45.389       36.536     2456.979     2060.186     1334.870        1.641        0.293      162.569       19.798        0.015      347.246       26.075      865.300
10/04/2014  17:58:00      118.564       57.014       31.330       50.038       47.103       40.916     2503.808     2218.663     1674.079        1.234        0.320      131.560       18.531        0.020      347.214       26.021      865.306
10/04/2014  17:59:00      147.886       80.313       17.068       72.926       42.123       40.455     5318.146     1774.371     1636.629        1.867        0.436      168.287       32.051        0.036      347.254       26.090      865.304
10/04/2014  18:00:00      126.458       28.218       23.371       58.782       56.461       33.233     3455.359     3187.846     1104.451        1.254        0.387      129.568       23.927        0.034      347.033       25.709      865.308
10/04/2014  18:01:00      110.613       64.179       26.829       55.879       38.408       36.507     3122.498     1475.206     1332.764        1.150        0.297      127.884       36.069        0.080      347.066       25.766      865.307
10/04/2014  18:02:00      183.134       90.815       42.697       83.491       65.639       62.146     6970.809     4308.416     3862.120        2.937        0.757      204.415       49.742        0.059      347.126       25.866      865.301
10/04/2014  18:03:00      115.937       71.347       36.034       72.466       42.749       49.204     5251.352     1827.474     2421.055        1.466        0.475      136.131       25.315        0.035      347.055       25.746      865.304
10/04/2014  18:04:00      165.700       84.192       66.343       64.141       60.880       49.634     4114.106     3706.418     2463.538        2.461        0.514      185.862       31.032        0.028      347.117       25.851      865.307
10/04/2014  18:05:00      164.189       88.969       30.697       58.589       53.443       55.073     3432.645     2856.141     3033.018        2.257        0.466      186.744       27.854        0.022      347.085       25.798      865.314
10/04/2014  18:06:00       99.851       68.989       20.117       37.441       30.991       37.418     1401.809      960.430     1400.083        0.945        0.188      121.366       13.340        0.012      347.027       25.699      865.324
10/04/2014  18:07:00       77.265       35.237       10.853       51.712       37.066       30.024     2674.109     1373.877      901.442        0.614        0.247       84.921       10.720        0.016      346.921       25.518      865.322
10/04/2014  18:08:00       42.845       40.407       23.843       59.091       39.670       38.989     3491.770     1573.693     1520.120        0.531        0.329       58.893       18.910        0.103      346.979       25.615      865.321
10/04/2014  18:09:00      136.175       82.856       36.239       42.486       37.145       36.595     1805.032     1379.731     1339.223        1.562        0.226      159.401       10.451        0.004      346.950       25.566      865.321
10/04/2014  18:10:00       88.931       53.847       20.976       49.770       38.583       27.936     2477.082     1488.674      780.430        0.800        0.237      103.963       20.765        0.040      346.929       25.530      865.316
10/04/2014  18:11:00      116.993       54.922       13.559       55.763       40.123       36.282     3109.550     1609.881     1316.401        1.146        0.302      129.244       16.986        0.017      346.931       25.534      865.314
10/04/2014  18:12:00      102.677       73.465       26.515       45.038       34.367       32.494     2028.457     1181.073     1055.834        1.045        0.213      126.253       21.456        0.029      346.885       25.453      865.312
10/04/2014  18:13:00       98.566       69.617       30.651       29.586       24.997       25.297      875.357      624.838      639.960        0.882        0.107      120.672       17.304        0.021      346.919       25.513      865.311
10/04/2014  18:14:00      102.681       59.903       21.508       50.042       36.643       25.247     2504.230     1342.741      637.399        0.954        0.224      118.877       20.829        0.031      346.903       25.485      865.308
10/04/2014  18:15:00       95.565       56.952       14.910       31.487       22.183       23.996      991.406      492.081      575.793        0.733        0.103      111.248       13.851        0.016      346.858       25.407      865.312
10/04/2014  18:16:00       64.250       43.960       15.988       31.632       33.427       23.257     1000.596     1117.342      540.894        0.449        0.133       77.850       10.759        0.019      346.853       25.398      865.324
10/04/2014  18:17:00       65.629       44.697       16.928       43.263       28.791       23.329     1871.688      828.896      544.247        0.492        0.162       79.404       15.665        0.039      346.849       25.393      865.327
10/04/2014  18:18:00       71.511       52.519        7.888       24.803       26.155       23.873      615.196      684.071      569.929        0.490        0.093       88.725       17.105        0.037      346.824       25.349      865.328
10/04/2014  18:19:00       46.596       40.893       -3.540       27.979       20.497       14.030      782.806      420.109      196.846        0.263        0.070       61.995       11.008        0.032      346.741       25.205      865.330
10/04/2014  18:20:00       32.805       32.934        2.776       21.862       21.237       17.139      477.967      450.992      293.732        0.170        0.061       46.484       15.005        0.104      346.703       25.141      865.324
10/04/2014  18:21:00       47.692       54.099        1.488       39.790       24.384       21.437     1583.278      594.577      459.527        0.392        0.132       72.119       14.916        0.043      346.677       25.097      865.325
10/04/2014  18:22:00       39.469       53.725        2.769       33.510       28.050       21.134     1122.931      786.801      446.637        0.340        0.118       66.665       14.988        0.051      346.607       24.976      865.325
10/04/2014  18:23:00       64.074       59.330        0.876       30.369       22.873       25.821      922.306      523.173      666.719        0.487        0.106       87.324       19.027        0.047      346.594       24.955      865.329
10/04/2014  18:24:00       75.573       57.322        8.447       41.124       31.555       28.133     1691.200      995.730      791.494        0.627        0.174       94.853       23.286        0.060      346.581       24.931      865.336
10/04/2014  18:25:00       78.206       69.754        2.514       39.571       36.009       23.086     1565.850     1296.639      532.975        0.719        0.170      104.794       19.941        0.036      346.617       24.995      865.338
10/04/2014  18:26:00       88.264       65.843       12.487       48.463       36.963       28.629     2348.710     1366.279      819.644        0.841        0.227      110.117       21.915        0.040      346.573       24.917      865.336
10/04/2014  18:27:00       88.504       64.166       16.858       34.263       25.780       27.892     1173.950      664.619      777.953        0.743        0.131      109.318       15.282        0.020      346.517       24.822      865.342
10/04/2014  18:28:00       87.834       48.614       24.757       41.515       18.477       25.189     1723.534      341.390      634.499        0.669        0.135      100.390       15.594        0.024      346.471       24.743      865.356
10/04/2014  18:29:00       86.756       60.169       13.803       51.808       33.944       30.978     2684.084     1152.183      959.644        0.807        0.240      105.579       19.732        0.035      346.437       24.683      865.370
10/04/2014  18:30:00       71.504       61.725       11.790       60.213       36.853       30.951     3625.658     1358.127      957.979        0.750        0.297       94.460       21.847        0.053      346.404       24.626      865.374
10/04/2014  18:31:00      107.268       77.268       19.349       48.066       31.911       31.960     2310.323     1018.295     1021.433        1.110        0.218      132.200       20.536        0.024      346.349       24.534      865.387
10/04/2014  18:32:00      106.481       93.447       13.748       59.945       44.952       44.783     3593.418     2020.692     2005.530        1.394        0.381      141.670       30.464        0.046      346.366       24.562      865.403
10/04/2014  18:33:00       81.877       71.507       12.691       67.184       43.264       35.112     4513.689     1871.739     1232.886        0.980        0.381      108.706       25.388        0.055      346.311       24.468      865.415
10/04/2014  18:34:00       67.360       68.618        7.391       56.803       38.672       32.698     3226.599     1495.504     1069.168        0.754        0.290       96.155       21.370        0.049      346.276       24.407      865.411
10/04/2014  18:35:00       61.219       77.405        6.439       66.574       46.680       42.469     4432.142     2178.982     1803.637        0.910        0.421       98.688       32.803        0.110      346.270       24.398      865.419
10/04/2014  18:36:00       66.322       58.435       10.621       38.889       27.634       27.263     1512.344      763.661      743.251        0.547        0.151       88.392       16.480        0.035      346.176       24.235      865.434
10/04/2014  18:37:00      113.709       78.565       12.348       45.175       35.295       33.466     2040.745     1245.755     1119.974        1.183        0.220      138.211       25.798        0.035      346.247       24.358      865.436
10/04/2014  18:38:00       92.369       58.923       13.753       52.703       30.119       38.977     2777.589      907.156     1519.186        0.870        0.260      109.562       18.702        0.029      346.224       24.317      865.451
10/04/2014  18:39:00       53.739       54.875        8.616       56.324       44.942       35.152     3172.417     2019.828     1235.671        0.620        0.321       76.806       26.369        0.118      346.156       24.201      865.468
10/04/2014  18:40:00       54.781       68.693        7.982       47.568       46.642       37.513     2262.707     2175.505     1407.212        0.681        0.292       87.861       33.168        0.143      346.133       24.161      865.467
10/04/2014  18:41:00       68.179       71.133       -4.096       40.017       43.465       32.821     1601.341     1889.190     1077.236        0.715        0.228       98.531       29.017        0.087      346.133       24.160      865.478
10/04/2014  18:42:00       42.544       66.276       -1.489       47.686       39.180       27.562     2273.981     1535.047      759.670        0.539        0.228       78.756       23.105        0.086      346.083       24.075      865.494
10/04/2014  18:43:00       39.902       41.785        8.461       38.328       30.917       32.958     1468.999      955.848     1086.213        0.346        0.176       57.777       20.826        0.130      346.056       24.031      865.492
10/04/2014  18:44:00       29.845       62.469       -1.880       40.098       45.681       29.138     1607.827     2086.781      849.034        0.467        0.227       69.232       24.106        0.121      345.988       23.913      865.510
10/04/2014  18:45:00       32.778       89.247       -7.473       39.059       48.369       30.124     1525.622     2339.570      907.449        0.693        0.239       95.076       29.027        0.093      346.006       23.943      865.504
10/04/2014  18:46:00       26.420      125.891      -11.058       34.018       45.870       28.909     1157.215     2104.068      835.753        1.038        0.205      128.633       27.856        0.047      346.013       23.954      865.512
10/04/2014  18:47:00       29.605       97.070       -7.084       35.152       42.056       30.566     1235.691     1768.673      934.256        0.714        0.197      101.485       25.074        0.061      345.972       23.884      865.525
10/04/2014  18:48:00       21.711       84.446        3.455       35.896       51.541       32.152     1288.503     2656.526     1033.776        0.630        0.249       87.192       33.961        0.152      345.957       23.859      865.523
10/04/2014  18:49:00       22.459      145.559      -16.353       26.779       41.655       27.101      717.135     1735.146      734.482        1.257        0.159      147.282       25.812        0.031      346.025       23.975      865.539
10/04/2014  18:50:00        4.570       96.637      -12.171       24.640       29.769       17.612      607.128      886.166      310.177        0.566        0.090       96.745       15.710        0.026      345.906       23.772      865.542
10/04/2014  18:51:00      -15.996      123.375      -21.059       26.711       23.495       15.292      713.503      552.022      233.856        0.871        0.075      124.407       10.231        0.007      345.963       23.869      865.556
10/04/2014  18:52:00       -6.630      109.252       -8.400       36.089       40.834       26.400     1302.392     1667.438      696.968        0.786        0.183      109.453       24.996        0.052      345.856       23.686      865.561
10/04/2014  18:53:00       16.379      139.140      -23.422       43.295       67.719       29.560     1874.479     4585.837      873.811        1.375        0.367      140.100       33.566        0.057      345.856       23.685      865.574
10/04/2014  18:54:00       17.974      100.516        1.246       49.808       60.555       43.465     2480.881     3666.851     1889.224        0.923        0.402      102.110       36.391        0.127      345.780       23.554      865.577
10/04/2014  18:55:00       23.089      163.174      -13.950       36.518       85.494       34.098     1333.554     7309.219     1162.685        1.858        0.490      164.800       38.981        0.056      345.824       23.629      865.591
10/04/2014  18:56:00       52.306      115.377      -12.402       39.838       88.551       39.080     1587.062     7841.329     1527.280        1.358        0.548      126.680       39.770        0.099      345.763       23.525      865.596
10/04/2014  18:57:00       22.741      122.557       -8.233       43.105       58.164       36.512     1858.043     3383.081     1333.132        1.109        0.329      124.650       34.415        0.076      345.742       23.490      865.604
10/04/2014  18:58:00        0.007      150.702       -4.214       46.278       66.304       35.648     2141.651     4396.217     1270.793        1.527        0.390      150.702       36.511        0.059      345.793       23.578      865.622
10/04/2014  18:59:00       41.724       83.550       -3.193       48.310       60.863       28.074     2333.830     3704.310      788.124        0.778        0.341       93.389       27.572        0.087      345.777       23.550      865.636
10/04/2014  19:00:00       36.038      132.620      -10.149       40.854       62.707       35.245     1669.046     3932.160     1242.181        1.292        0.342      137.429       30.072        0.048      345.755       23.511      865.649
10/04/2014  19:01:00       27.415      129.327      -10.174       47.332       58.990       37.248     2240.356     3479.819     1387.423        1.234        0.355      132.201       35.613        0.073      345.794       23.580      865.647
10/04/2014  19:02:00       10.636      143.363      -21.504       37.171       41.485       23.786     1381.667     1721.006      565.759        1.240        0.183      143.757       22.388        0.024      345.806       23.600      865.656
10/04/2014  19:03:00        6.188      148.184      -19.477       28.686       26.406       16.993      822.867      697.251      288.762        1.209        0.090      148.313       10.473        0.005      345.869       23.707      865.666
10/04/2014  19:04:00       18.640      142.062      -20.782       29.150       30.963       21.585      849.724      958.722      465.924        1.162        0.114      143.279       17.921        0.016      345.895       23.751      865.672
10/04/2014  19:05:00      -30.341       73.118      -15.954       22.329       32.534       18.389      498.587     1058.486      338.172        0.421        0.095       79.164       20.338        0.066      345.800       23.591      865.677
10/04/2014  19:06:00      -38.498       71.335      -14.139       45.240       36.108       15.708     2046.643     1303.797      246.747        0.518        0.180       81.061       14.522        0.032      345.844       23.666      865.680
10/04/2014  19:07:00      -34.772       74.709       -4.907       36.439       43.146       22.441     1327.815     1861.563      503.601        0.525        0.185       82.405       10.262        0.016      345.763       23.526      865.684
10/04/2014  19:08:00      -49.227       27.963       -5.673       21.453       29.639       14.808      460.220      878.493      219.292        0.240        0.078       56.614       14.388        0.065      345.705       23.426      865.693
10/04/2014  19:09:00      -68.436       -6.260      -14.403       20.035       15.619        9.689      401.394      243.958       93.873        0.283        0.037       68.722        8.944        0.017      345.753       23.509      865.703
10/04/2014  19:10:00      -56.041       15.690      -14.463       18.971       15.399       10.692      359.892      237.117      114.314        0.215        0.036       58.196        5.488        0.009      345.592       23.233      865.715
10/04/2014  19:11:00      -82.107       21.130      -14.782       17.384       16.535       10.954      302.192      273.405      119.989        0.405        0.035       84.782        7.934        0.009      345.426       22.946      865.725
10/04/2014  19:12:00      -67.283       41.376       -9.010       40.495       27.566       18.375     1639.871      759.898      337.641        0.453        0.137       78.987       17.329        0.048      345.529       23.124      865.739
10/04/2014  19:13:00      -37.604       44.308       -8.552       33.240       24.641       14.495     1104.926      607.185      210.111        0.269        0.096       58.115       12.708        0.048      345.463       23.011      865.747
10/04/2014  19:14:00      -53.637       65.786      -10.485       45.337       19.947       22.500     2055.402      397.882      506.269        0.514        0.148       84.881       16.472        0.038      345.571       23.196      865.758
10/04/2014  19:15:00        3.139       77.373      -12.963       29.486       24.772       14.926      869.434      613.657      222.786        0.393        0.085       77.437       12.341        0.025      345.526       23.119      865.763
10/04/2014  19:16:00       -3.422       59.120      -10.744       18.476       19.115       13.238      341.366      365.387      175.240        0.225        0.044       59.219       12.233        0.043      345.600       23.245      865.783
10/04/2014  19:17:00       -4.675       71.489      -15.455       15.888       15.839        8.796      252.421      250.863       77.375        0.298        0.029       71.642        7.578        0.011      345.554       23.167      865.779
10/04/2014  19:18:00      -36.877       49.693      -16.189       13.792       32.144        9.087      190.225     1033.252       82.577        0.270        0.065       61.881        9.025        0.021      345.578       23.206      865.791
10/04/2014  19:19:00      -45.602        5.832       -6.968       10.758       13.725        9.983      115.740      188.381       99.653        0.128        0.020       45.974        7.644        0.028      345.525       23.116      865.780
10/04/2014  19:20:00      -56.899       -4.495       -7.554       10.321       10.042        8.594      106.526      100.832       73.849        0.180        0.014       57.076        7.586        0.018      345.361       22.835      865.783
10/04/2014  19:21:00      -58.565      -13.156       -6.943        9.804       15.194        5.584       96.121      230.866       31.183        0.200        0.018       60.025        2.912        0.002      345.397       22.897      865.780
10/04/2014  19:22:00      -57.246        1.986       -9.817       14.458       12.115       10.353      209.030      146.764      107.181        0.192        0.023       57.280        9.631        0.028      345.067       22.332      865.792
10/04/2014  19:23:00      -66.402      -30.301        2.313       38.630       21.977       12.379     1492.261      482.982      153.228        0.373        0.106       72.989       15.475        0.045      345.176       22.520      865.784
10/04/2014  19:24:00      -39.168        0.906       -1.952       17.857       18.956        9.828      318.876      359.315       96.587        0.116        0.039       39.178        7.261        0.034      344.945       22.123      865.800
10/04/2014  19:25:00      -47.891      -30.010        3.246       25.949       28.648       12.514      673.350      820.728      156.598        0.243        0.083       56.517       13.193        0.054      344.879       22.011      865.798
10/04/2014  19:26:00      -60.023      -10.308       -7.934       30.383       28.845       13.613      923.102      832.043      185.321        0.286        0.097       60.902        9.187        0.023      344.846       21.954      865.809
10/04/2014  19:27:00      -82.779      -16.338      -15.661       20.958       23.862       16.192      439.222      569.397      262.170        0.432        0.064       84.375       13.774        0.027      344.898       22.043      865.807
10/04/2014  19:28:00     -103.745       15.472      -13.112       26.552       38.092       14.132      704.985     1450.991      199.718        0.676        0.118      104.892       17.047        0.026      344.968       22.165      865.818
10/04/2014  19:29:00      -86.849       -8.804      -10.048       32.308       15.515       14.972     1043.821      240.726      224.153        0.461        0.075       87.294       12.593        0.021      344.815       21.901      865.824
10/04/2014  19:30:00     -112.095       13.880      -12.513       27.143       32.872       19.465      736.762     1080.562      378.896        0.755        0.110      112.951       15.098        0.018      344.985       22.192      865.832
10/04/2014  19:31:00      -88.534       14.917       -8.194       38.582       32.594       24.323     1488.538     1062.343      591.590        0.563        0.157       89.782       25.180        0.079      344.940       22.116      865.837
10/04/2014  19:32:00     -101.067       24.471      -14.773       30.734       26.394       18.411      944.594      696.664      338.958        0.651        0.099      103.987       10.183        0.010      344.953       22.138      865.837
10/04/2014  19:33:00      -69.522        2.668       -9.322       30.436       27.896       15.329      926.330      778.184      234.969        0.343        0.097       69.573       13.564        0.038      344.993       22.206      865.843
10/04/2014  19:34:00      -61.958       49.083      -15.122       30.211       55.491       16.180      912.690     3079.274      261.795        0.536        0.213       79.044       21.275        0.072      345.047       22.299      865.860
10/04/2014  19:35:00      -82.034       41.953       -9.544       26.343       36.856       18.122      693.964     1358.371      328.411        0.548        0.119       92.140       14.912        0.026      345.015       22.244      865.870
10/04/2014  19:36:00      -67.338       23.346      -14.322       20.962       24.991       16.272      439.420      624.573      264.778        0.331        0.066       71.270        9.595        0.018      344.983       22.189      865.874
10/04/2014  19:37:00      -85.455        5.029      -14.861       14.315       27.549       14.855      204.914      758.921      220.662        0.437        0.059       85.602        5.586        0.004      344.970       22.168      865.882
10/04/2014  19:38:00      -68.510      -15.544       -8.623       24.835       20.847       11.398      616.773      434.599      129.923        0.310        0.059       70.251       10.150        0.021      344.637       21.597      865.882
10/04/2014  19:39:00     -106.657       -2.736      -16.426       22.344       19.868       13.741      499.253      394.741      188.816        0.637        0.054      106.692        6.731        0.004      344.683       21.675      865.895
10/04/2014  19:40:00     -106.272       48.654      -20.291       30.139       38.224       19.023      908.384     1461.061      361.867        0.840        0.137      116.880       14.917        0.016      344.840       21.945      865.903
10/04/2014  19:41:00      -79.299       34.740      -13.501       21.740       25.515       18.640      472.621      651.007      347.458        0.457        0.074       86.574       10.417        0.014      344.920       22.081      865.903
10/04/2014  19:42:00      -79.522        7.333      -12.418       15.261       19.436       12.416      232.886      377.769      154.153        0.365        0.038       79.860        6.991        0.008      344.622       21.572      865.918
10/04/2014  19:43:00      -87.282       -5.786      -10.245       18.942       15.206       10.678      358.799      231.226      114.018        0.423        0.035       87.473        7.298        0.007      344.560       21.467      865.925
10/04/2014  19:44:00      -85.795       11.737      -10.418       29.401       21.372       20.089      864.445      456.778      403.550        0.467        0.086       86.595       17.313        0.040      344.587       21.513      865.931
10/04/2014  19:45:00     -100.912        8.693      -16.994       26.854       18.370       14.706      721.163      337.470      216.270        0.591        0.064      101.286        7.339        0.005      344.708       21.717      865.943
10/04/2014  19:46:00      -94.388       17.205      -16.961       32.984       21.790       13.995     1087.939      474.821      195.850        0.563        0.088       95.943       12.842        0.018      344.631       21.587      865.940
10/04/2014  19:47:00     -120.315       26.750      -14.821       26.827       20.903       15.959      719.670      436.929      254.698        0.841        0.071      123.253       11.536        0.009      344.738       21.769      865.939
10/04/2014  19:48:00     -112.005       21.068      -17.134       20.083       23.056       15.252      403.327      531.556      232.613        0.722        0.058      113.969       10.482        0.008      344.658       21.634      865.936
10/04/2014  19:49:00     -101.280       26.810      -10.702       23.015       21.108       14.938      529.682      445.540      223.152        0.614        0.060      104.768        9.569        0.008      344.715       21.730      865.939
10/04/2014  19:50:00     -100.181        7.296       -8.721       27.974       39.204       21.033      782.553     1536.921      442.374        0.646        0.138      100.446       14.994        0.022      344.635       21.594      865.948
10/04/2014  19:51:00     -128.432       -6.831      -16.472       30.537       32.577       17.044      932.528     1061.288      290.503        0.955        0.114      128.614       16.390        0.016      344.537       21.428      865.951
10/04/2014  19:52:00     -119.842       21.483       -8.066       34.146       33.557       17.335     1165.962     1126.080      300.502        0.874        0.130      121.753       14.334        0.014      344.460       21.295      865.961
10/04/2014  19:53:00     -130.332       22.357      -10.735       41.599       37.180       21.183     1730.481     1382.371      448.712        1.058        0.178      132.236       20.443        0.024      344.511       21.382      865.974
10/04/2014  19:54:00     -108.830       12.913      -16.434       33.762       29.856       23.610     1139.880      891.381      557.442        0.743        0.129      109.594       13.481        0.015      344.533       21.420      865.984
10/04/2014  19:55:00      -86.953       56.265      -17.603       27.339       26.718       20.243      747.443      713.864      409.773        0.645        0.094      103.569       17.101        0.027      344.605       21.543      865.999
10/04/2014  19:56:00      -96.448       40.518       -9.062       32.748       30.522       22.867     1072.426      931.588      522.918        0.678        0.126      104.613       18.025        0.030      344.466       21.306      866.010
10/04/2014  19:57:00      -94.397       42.604       -7.805       36.775       30.977       18.571     1352.394      959.579      344.896        0.672        0.133      103.566       11.861        0.013      344.424       21.232      866.014
10/04/2014  19:58:00     -105.590       44.412      -17.790       27.741       29.629       17.358      769.575      877.901      301.294        0.769        0.097      114.550       14.196        0.015      344.564       21.472      866.026
10/04/2014  19:59:00      -83.466       35.679       -8.689       45.249       20.922       22.461     2047.447      437.733      504.494        0.565        0.149       90.772       21.446        0.056      344.504       21.369      866.043
10/04/2014  20:00:00     -107.062       54.004      -14.617       33.076       21.669       20.674     1094.007      469.546      427.433        0.829        0.100      119.911       16.630        0.019      344.657       21.631      866.051
10/04/2014  20:01:00     -111.607       12.132       -6.031       26.224       34.929       12.177      687.701     1220.023      148.281        0.735        0.103      112.265       10.591        0.009      344.219       20.881      866.066
10/04/2014  20:02:00     -127.682       44.148      -11.562       35.139       26.145       24.408     1234.742      683.565      595.748        1.045        0.126      135.099       20.837        0.024      344.532       21.418      866.080
10/04/2014  20:03:00      -85.640        1.168      -12.111       18.266       21.190       14.606      333.638      449.002      213.333        0.424        0.050       85.648        9.734        0.013      344.343       21.095      866.095
10/04/2014  20:04:00      -92.954       21.440       -9.983       34.242       20.873       16.120     1172.538      435.672      259.854        0.553        0.093       95.395       12.777        0.018      344.331       21.074      866.106
10/04/2014  20:05:00      -84.331       -4.578       -6.674       35.747       41.043       20.599     1277.816     1684.545      424.331        0.528        0.169       84.455       19.926        0.056      344.281       20.988      866.114
10/04/2014  20:06:00      -81.286        9.451       -7.284       44.046       36.123       25.605     1940.087     1304.882      655.606        0.532        0.195       81.834       24.943        0.093      344.206       20.860      866.136
10/04/2014  20:07:00      -95.677       -8.379       -8.236       27.961       27.860       18.064      781.821      776.157      326.324        0.559        0.094       96.044        9.874        0.011      344.247       20.930      866.142
10/04/2014  20:08:00     -128.650        2.704      -13.914       32.860       28.910       18.030     1079.754      835.785      325.073        0.950        0.112      128.678       11.560        0.008      344.258       20.949      866.150
10/04/2014  20:09:00     -129.770       20.483      -11.680       28.862       25.666       12.944      833.022      658.739      167.552        0.953        0.083      131.377        8.218        0.004      344.238       20.916      866.156
10/04/2014  20:10:00     -149.311       31.143      -15.214       33.209       26.553       18.948     1102.838      705.069      359.027        1.283        0.108      152.524       16.621        0.012      344.259       20.951      866.169
10/04/2014  20:11:00     -132.833       39.185      -10.075       32.349       20.717       15.513     1046.426      429.187      240.643        1.050        0.086      138.492        9.476        0.005      344.284       20.994      866.171
10/04/2014  20:12:00     -110.149       -8.842      -11.430       38.950       29.955       19.655     1517.088      897.318      386.323        0.757        0.140      110.503       20.826        0.036      344.162       20.784      866.183
10/04/2014  20:13:00     -106.705       10.718      -12.961       30.575       30.421       18.389      934.804      925.444      338.145        0.693        0.110      107.241       17.587        0.027      344.229       20.900      866.191
10/04/2014  20:14:00     -115.161       22.579      -10.687       36.421       27.751       16.801     1326.508      770.143      282.270        0.813        0.119      117.354       14.884        0.016      344.321       21.057      866.201
10/04/2014  20:15:00     -102.011       20.490      -11.494       39.585       44.991       19.821     1566.958     2024.196      392.866        0.747        0.199      104.049       18.721        0.032      344.236       20.912      866.212
10/04/2014  20:16:00     -111.147      -14.199      -15.617       32.343       22.174       16.199     1046.079      491.668      262.405        0.730        0.090      112.051       10.605        0.009      344.157       20.776      866.211
10/04/2014  20:17:00      -81.937      -22.818       -9.481       14.086       16.175       11.275      198.410      261.628      127.116        0.396        0.029       85.055        6.441        0.006      343.812       20.187      866.225
10/04/2014  20:18:00      -71.840      -16.079       -6.649       25.873       18.550       12.934      669.392      344.119      167.299        0.332        0.059       73.617       13.065        0.031      343.766       20.108      866.223
10/04/2014  20:19:00     -102.948       10.951      -15.689       24.849       23.338       14.158      617.459      544.651      200.451        0.616        0.068      103.529       12.121        0.014      343.839       20.233      866.245
10/04/2014  20:20:00     -113.608        0.879      -17.523       25.611       18.357       13.210      655.942      336.983      174.494        0.719        0.058      113.612       11.526        0.010      343.924       20.379      866.243
10/04/2014  20:21:00     -139.303        4.665      -13.738       39.293       26.094       18.586     1543.914      680.907      345.436        1.109        0.129      139.381       19.105        0.019      343.937       20.401      866.258
10/04/2014  20:22:00     -140.924       10.322      -17.802       43.046       29.945       18.808     1852.928      896.698      353.726        1.169        0.155      141.301       16.586        0.014      343.864       20.275      866.258
10/04/2014  20:23:00     -144.148       31.633      -15.022       35.888       30.625       17.572     1287.924      937.903      308.777        1.227        0.127      147.578       13.282        0.008      343.992       20.495      866.278
10/04/2014  20:24:00     -121.489       -0.811      -13.403       26.099       39.393       17.755      681.179     1551.798      315.242        0.874        0.127      121.491       12.824        0.011      344.013       20.531      866.279
10/04/2014  20:25:00     -113.445      -13.425      -15.057       26.317       33.393       16.490      692.606     1115.072      271.904        0.768        0.104      114.237        8.470        0.005      343.787       20.143      866.289
10/04/2014  20:26:00     -124.117       14.795      -12.401       37.465       33.818       19.477     1403.637     1143.663      379.343        0.935        0.146      124.995       14.881        0.014      343.860       20.269      866.291
10/04/2014  20:27:00     -113.847        7.376      -11.070       31.743       31.191       17.486     1007.647      972.880      305.755        0.771        0.114      114.086       13.334        0.014      343.894       20.327      866.304
10/04/2014  20:28:00     -107.681       19.424       -8.413       29.415       42.064       17.195      865.253     1769.362      295.657        0.749        0.147      109.419       13.524        0.015      343.972       20.461      866.303
10/04/2014  20:29:00      -86.502      -12.541       -4.829       20.599       21.371       16.921      424.320      456.737      286.317        0.442        0.058       87.406       14.161        0.026      343.680       19.961      866.305
10/04/2014  20:30:00      -83.951        3.119       -9.810       19.174       31.559       13.985      367.634      995.981      195.592        0.436        0.078       84.009        4.679        0.003      343.936       20.398      866.312
10/04/2014  20:31:00      -76.987       -0.734       -3.316       30.428       28.404       16.881      925.839      806.790      284.954        0.398        0.101       76.991       18.134        0.055      343.720       20.029      866.313
10/04/2014  20:32:00      -84.886      -20.129       -2.837       47.827       22.902       17.658     2287.441      524.480      311.790        0.537        0.156       87.240       15.462        0.031      343.724       20.038      866.316
10/04/2014  20:33:00      -62.802        5.567       -6.652       26.655       26.427       14.887      710.515      698.393      221.617        0.282        0.082       63.048       13.533        0.046      343.866       20.279      866.318
10/04/2014  20:34:00      -80.074       -2.934       -0.571       28.856       28.744       18.513      832.667      826.235      342.746        0.421        0.100       80.128       14.217        0.031      343.858       20.266      866.317
10/04/2014  20:35:00      -85.338       60.736      -19.711       28.934       42.938       20.457      837.199     1843.662      418.473        0.723        0.155      104.745       19.859        0.036      344.055       20.600      866.321
10/04/2014  20:36:00      -73.327       17.706       -8.770       21.100       40.076       14.523      445.198     1606.117      210.927        0.401        0.113       75.434       11.397        0.023      343.997       20.504      866.323
10/04/2014  20:37:00      -75.601       27.719        0.726       33.640       29.485       19.989     1131.639      869.356      399.563        0.444        0.120       80.522       13.275        0.027      344.057       20.605      866.330
10/04/2014  20:38:00      -56.363       -7.052        2.712       30.925       29.987       20.989      956.330      899.194      440.542        0.276        0.115       56.803       19.095        0.113      343.810       20.183      866.333
10/04/2014  20:39:00      -78.038      -12.705       -9.531       26.065       27.203       13.588      679.402      739.990      184.623        0.397        0.080       79.065        3.753        0.002      343.752       20.086      866.334
10/04/2014  20:40:00      -88.708      -15.443       -8.968       24.563       38.974       14.677      603.344     1518.983      215.419        0.526        0.117       90.042       16.418        0.033      343.577       19.786      866.347
10/04/2014  20:41:00      -86.070       -9.368       -9.443       30.075       19.335       14.467      904.497      373.828      209.297        0.454        0.074       86.578       14.599        0.028      343.410       19.503      866.341
10/04/2014  20:42:00     -122.687       -9.822      -14.537       18.457       16.854       10.271      340.670      284.064      105.492        0.804        0.037      123.079        6.989        0.003      343.459       19.585      866.356
10/04/2014  20:43:00      -94.495       -7.975       -9.519       36.412       22.511       15.455     1325.801      506.733      238.861        0.558        0.104       94.831       15.702        0.027      343.419       19.517      866.354
10/04/2014  20:44:00      -79.170      -17.525       -7.479       24.785       17.028       13.091      614.285      289.956      171.384        0.385        0.054       81.087       11.062        0.019      343.448       19.566      866.363
10/04/2014  20:45:00      -63.918      -14.513       -6.708       22.884       16.928       16.342      523.695      286.562      267.077        0.271        0.054       65.545       14.859        0.051      343.319       19.346      866.374
10/04/2014  20:46:00     -101.799       -6.917      -12.681       21.937       19.144       13.638      481.242      366.499      185.984        0.580        0.052      102.034        7.279        0.005      343.525       19.699      866.377
10/04/2014  20:47:00     -112.774      -19.948      -15.379       19.423       15.300       12.471      377.267      234.099      155.537        0.706        0.038      114.525       10.315        0.008      343.424       19.526      866.391
10/04/2014  20:48:00     -107.706      -19.836       -3.901       32.349       22.779       17.781     1046.444      518.888      316.152        0.695        0.094      109.518       16.732        0.023      343.297       19.311      866.401
10/04/2014  20:49:00      -94.857      -38.138       -0.035       21.905       19.707       11.851      479.831      388.371      140.452        0.573        0.050      102.237        9.221        0.008      343.289       19.296      866.418
10/04/2014  20:50:00      -58.630      -40.886        1.908       47.109       26.905       17.429     2219.230      723.854      303.771        0.418        0.162       71.478       18.244        0.065      343.058       18.904      866.423
10/04/2014  20:51:00      -76.146      -62.975       -5.272       37.522       25.331       18.527     1407.885      641.641      343.259        0.609        0.120       98.813       18.014        0.033      343.048       18.885      866.422
10/04/2014  20:52:00     -107.968      -65.554       -4.681       29.328       24.995       18.342      860.107      624.729      336.428        0.890        0.091      126.311       13.505        0.011      343.143       19.047      866.419
10/04/2014  20:53:00      -95.946      -39.913       -4.153       28.911       24.429       15.218      835.838      596.781      231.587        0.624        0.083      103.917       12.817        0.015      343.183       19.115      866.428
10/04/2014  20:54:00     -107.411      -42.844       -8.463       10.939       11.819       10.036      119.663      139.691      100.730        0.690        0.018      115.640        4.652        0.002      343.206       19.154      866.433
10/04/2014  20:55:00     -105.671      -25.638       -9.655       17.692       16.487       14.535      312.990      271.832      211.258        0.636        0.040      108.737       11.747        0.012      343.117       19.003      866.436
10/04/2014  20:56:00      -90.071      -22.345       -7.393       36.778       17.837       15.788     1352.626      318.169      249.250        0.529        0.096       92.801       17.592        0.036      343.088       18.953      866.442
10/04/2014  20:57:00     -109.069      -21.838      -14.321       31.920       18.701       12.867     1018.914      349.727      165.560        0.706        0.077      111.234       12.977        0.014      343.084       18.946      866.437
10/04/2014  20:58:00     -111.260       -9.244       -9.962       30.138       20.467       19.888      908.283      418.896      395.513        0.714        0.086      111.643       19.652        0.031      342.968       18.749      866.451
10/04/2014  20:59:00      -99.783      -40.825       -8.995       24.404       22.022       13.716      595.557      484.953      188.139        0.649        0.063      107.811        9.566        0.008      342.964       18.744      866.453
10/04/2014  21:00:00      -94.621      -27.210       -5.859       25.824       25.458       15.796      666.856      648.093      249.508        0.565        0.078       98.455       10.078        0.010      342.919       18.667      866.468
10/04/2014  21:01:00      -97.377      -31.356      -10.616       20.258       18.968       13.368      410.374      359.795      178.707        0.576        0.047      102.300        8.250        0.007      342.865       18.574      866.472
10/04/2014  21:02:00      -99.619      -34.508      -10.181       26.885       28.407       17.269      722.799      806.958      298.226        0.652        0.091      105.427       14.587        0.019      342.942       18.705      866.482
10/04/2014  21:03:00     -108.611      -35.709      -15.482       25.804       37.172       17.691      665.821     1381.782      312.982        0.784        0.118      114.330       11.798        0.011      342.935       18.694      866.486
10/04/2014  21:04:00     -104.963      -54.875       -7.399       20.657       26.274       21.143      426.699      690.302      447.027        0.782        0.078      118.442        8.436        0.005      342.835       18.522      866.483
10/04/2014  21:05:00      -83.810      -46.116       -8.931       33.940       34.587       20.383     1151.944     1196.227      415.467        0.600        0.138       95.660       17.579        0.034      342.699       18.290      866.502
10/04/2014  21:06:00      -88.605      -41.975       -9.364       27.220       26.950       16.094      740.928      726.289      259.028        0.571        0.086       98.044       14.623        0.022      342.706       18.302      866.504
10/04/2014  21:07:00     -100.732      -33.710       -5.303       32.889       21.742       14.960     1081.680      472.694      223.802        0.654        0.089      106.223       16.879        0.025      342.694       18.283      866.511
10/04/2014  21:08:00     -121.305      -33.778       -6.804       34.320       26.434       16.667     1177.850      698.777      277.777        0.903        0.108      125.920       17.959        0.020      342.735       18.352      866.505
10/04/2014  21:09:00      -85.989      -56.068       -4.079       38.865       19.261       18.334     1510.510      371.000      336.141        0.639        0.111      102.653        9.494        0.009      342.772       18.415      866.509
10/04/2014  21:10:00      -95.655      -69.434       -7.069       33.422       24.304       19.081     1117.042      590.678      364.094        0.805        0.104      118.199       14.894        0.016      342.768       18.409      866.506
10/04/2014  21:11:00     -122.014      -76.216       -7.122       25.288       16.842       17.173      639.507      283.663      294.928        1.098        0.061      143.862       10.841        0.006      342.717       18.321      866.512
10/04/2014  21:12:00     -113.510      -63.387       -8.776       19.287       19.516       13.910      371.999      380.886      193.489        0.896        0.047      130.009       11.564        0.008      342.679       18.255      866.503
10/04/2014  21:13:00     -128.008      -48.322      -12.554       10.964       12.966       11.133      120.207      168.113      123.947        0.965        0.021      136.825        6.615        0.002      342.708       18.306      866.516
10/04/2014  21:14:00     -144.717      -41.006      -15.202       14.011       12.849        9.792      196.296      165.108       95.875        1.166        0.023      150.415        5.351        0.001      342.807       18.476      866.515
10/04/2014  21:15:00     -133.044      -43.164      -11.391       15.700       12.768       10.160      246.500      163.023      103.230        1.010        0.026      139.871        4.907        0.001      342.731       18.348      866.534
10/04/2014  21:16:00     -123.910      -41.992      -12.128       19.197       18.859       12.609      368.526      355.664      158.991        0.907        0.044      130.832        8.089        0.004      342.672       18.245      866.536
10/04/2014  21:17:00      -97.976      -35.353       -6.871       23.371       25.443       14.228      546.207      647.333      202.427        0.615        0.070      104.159       10.880        0.011      342.631       18.176      866.550
10/04/2014  21:18:00     -127.435      -37.284      -11.071       23.595       21.430       16.280      556.720      459.248      265.024        0.952        0.064      132.777       12.571        0.009      342.586       18.100      866.559
10/04/2014  21:19:00     -143.617      -34.368      -13.772       20.744       15.011       12.487      430.326      225.327      155.929        1.140        0.041      147.672        9.692        0.004      342.620       18.157      866.564
10/04/2014  21:20:00     -135.951      -36.344      -15.525       44.927       29.878       21.595     2018.434      892.702      466.363        1.171        0.169      140.725       23.254        0.027      342.516       17.981      866.580
10/04/2014  21:21:00     -103.616      -44.199       -7.138       30.413       27.086       20.786      924.965      733.624      432.073        0.742        0.105      112.649       17.714        0.025      342.406       17.792      866.584
10/04/2014  21:22:00     -101.877      -38.723       -6.262       36.842       29.020       19.966     1357.334      842.154      398.633        0.726        0.130      108.988       21.454        0.039      342.380       17.748      866.600
10/04/2014  21:23:00     -110.889      -44.885      -15.574       29.458       21.929       15.076      867.786      480.900      227.275        0.806        0.079      119.628       13.566        0.013      342.390       17.766      866.604
10/04/2014  21:24:00      -91.543      -27.157       -5.077       38.405       30.367       21.893     1474.981      922.125      479.298        0.601        0.144       95.486       23.736        0.062      342.360       17.716      866.609
10/04/2014  21:25:00      -88.571      -18.671       -4.262       28.855       27.597       21.818      832.629      761.569      476.022        0.514        0.104       90.517       12.067        0.018      342.438       17.846      866.608
10/04/2014  21:26:00     -120.175      -11.517      -16.166       38.798       33.884       20.341     1505.307     1148.143      413.767        0.895        0.153      120.726       18.682        0.024      342.484       17.926      866.629
10/04/2014  21:27:00      -74.580       -9.988        0.107       40.608       29.843       22.323     1649.012      890.627      498.295        0.435        0.152       75.245       19.677        0.068      342.426       17.829      866.627
10/04/2014  21:28:00     -128.332        2.321      -11.505       43.015       30.065       23.573     1850.278      903.914      555.684        0.996        0.165      128.353       23.586        0.034      342.551       18.040      866.638
10/04/2014  21:29:00     -133.010      -24.898       -8.747       46.349       32.207       20.315     2148.195     1037.274      412.714        1.099        0.180      135.320       22.035        0.027      342.547       18.033      866.637
10/04/2014  21:30:00      -98.524      -30.617       -5.718       37.514       33.230       26.329     1407.307     1104.252      693.235        0.694        0.160      103.171       18.425        0.032      342.430       17.834      866.642
10/04/2014  21:31:00     -112.304      -30.469       -6.600       35.171       28.193       20.030     1237.022      794.844      401.213        0.801        0.122      116.364       19.758        0.029      342.383       17.754      866.639
10/04/2014  21:32:00     -113.921      -40.602      -10.176       31.989       25.337       16.102     1023.320      641.958      259.274        0.833        0.096      120.940       16.291        0.018      342.424       17.824      866.639
10/04/2014  21:33:00      -90.934      -52.603      -10.422       24.745       18.174       16.180      612.331      330.279      261.781        0.617        0.060      105.053       12.140        0.013      342.410       17.801      866.648
10/04/2014  21:34:00      -86.049      -41.394       -9.228       23.997       26.426       16.556      575.834      698.312      274.104        0.538        0.077       95.488       10.712        0.013      342.361       17.716      866.645
10/04/2014  21:35:00      -97.081      -36.773       -3.597       43.237       31.099       20.563     1869.407      967.117      422.829        0.702        0.163      103.812       21.359        0.042      342.351       17.700      866.661
10/04/2014  21:36:00      -90.333       -9.522       -3.829       42.218       33.255       24.087     1782.386     1105.905      580.188        0.587        0.173       90.834       22.683        0.062      342.334       17.672      866.660
10/04/2014  21:37:00     -119.350      -22.172       -4.022       44.308       33.572       25.734     1963.202     1127.103      662.253        0.925        0.188      121.392       27.447        0.051      342.360       17.715      866.675
10/04/2014  21:38:00      -72.431      -14.797        1.172       54.496       34.392       23.311     2969.793     1182.831      543.420        0.508        0.235       73.927       28.518        0.149      342.237       17.506      866.683
10/04/2014  21:39:00     -127.991      -28.512       -6.916       33.103       32.151       19.255     1095.841     1033.718      370.758        0.987        0.125      131.129       16.997        0.017      342.339       17.680      866.697
10/04/2014  21:40:00     -128.516      -35.229       -5.179       41.940       36.847       22.500     1758.945     1357.677      506.247        1.070        0.181      133.257       20.519        0.024      342.316       17.640      866.706
10/04/2014  21:41:00     -132.825      -34.889      -14.348       39.777       25.036       20.940     1582.226      626.789      438.482        1.086        0.132      137.330       13.787        0.010      342.357       17.709      866.709
10/04/2014  21:42:00     -122.832      -57.176      -12.263       41.976       38.020       21.458     1762.015     1445.549      460.430        1.109        0.183      135.487       23.026        0.029      342.334       17.670      866.722
10/04/2014  21:43:00     -109.435      -48.684      -12.007       38.433       33.177       19.789     1477.129     1100.732      391.606        0.873        0.148      119.776       18.520        0.024      342.327       17.658      866.724
10/04/2014  21:44:00     -102.185      -28.947       -4.468       35.966       34.993       22.988     1293.522     1224.519      528.455        0.717        0.152      106.206       19.222        0.033      342.276       17.572      866.735
10/04/2014  21:45:00     -111.913      -28.236      -13.347       22.563       35.936       19.777      509.088     1291.410      391.145        0.785        0.110      115.420       13.719        0.014      342.339       17.679      866.737
10/04/2014  21:46:00     -106.492      -48.415       -7.887       31.345       42.593       19.479      982.483     1814.175      379.439        0.846        0.159      116.981       13.550        0.013      342.381       17.751      866.734
10/04/2014  21:47:00     -106.647      -27.967      -19.234       29.147       22.697       15.785      849.543      515.166      249.169        0.707        0.081      110.253       13.529        0.015      342.308       17.626      866.739
10/04/2014  21:48:00     -114.387      -22.159      -18.580       36.219       20.495       18.549     1311.782      420.039      344.078        0.800        0.104      116.513       20.985        0.032      342.266       17.556      866.726
10/04/2014  21:49:00      -61.159      -40.061      -10.150       30.927       19.205       14.601      956.454      368.846      213.188        0.349        0.077       73.111       10.813        0.022      342.307       17.626      866.725
10/04/2014  21:50:00      -85.620      -35.971      -12.708       33.023       26.342       17.332     1090.543      693.893      300.413        0.544        0.104       92.869        6.078        0.004      342.352       17.702      866.733
10/04/2014  21:51:00      -74.751      -42.111       -9.071       24.416       29.783       14.803      596.155      887.054      219.122        0.457        0.085       85.797        9.653        0.013      342.278       17.577      866.724
10/04/2014  21:52:00      -85.596      -40.889      -15.377       22.352       19.340       12.546      499.606      374.054      157.392        0.513        0.052       94.861        5.276        0.003      342.368       17.726      866.725
10/04/2014  21:53:00      -99.828      -41.414       -6.953       44.513       33.593       17.172     1981.402     1128.482      294.870        0.757        0.170      108.077        9.574        0.008      342.244       17.520      866.717
10/04/2014  21:54:00     -144.700      -54.187      -21.200       14.423       17.787       10.878      208.015      316.368      118.335        1.248        0.032      154.513        8.363        0.003      342.372       17.735      866.706
10/04/2014  21:55:00     -105.023      -74.723      -12.440       27.613       18.902       18.662      762.463      357.290      348.258        0.912        0.073      128.893       10.037        0.006      342.293       17.602      866.702
10/04/2014  21:56:00      -88.735      -49.547       -4.079       47.253       31.347       25.327     2232.885      982.649      641.472        0.710        0.193      101.631       28.895        0.081      342.224       17.484      866.707
10/04/2014  21:57:00      -95.561      -45.460       -9.774       46.189       33.759       20.331     2133.425     1139.663      413.357        0.749        0.184      105.823        8.590        0.007      342.144       17.348      866.702
10/04/2014  21:58:00     -122.651      -59.514      -16.066       31.011       19.886       20.913      961.663      395.438      437.372        1.032        0.090      136.328       14.966        0.012      342.224       17.485      866.694
10/04/2014  21:59:00      -99.679      -56.071       -3.779       19.699       21.021       18.583      388.060      441.874      345.344        0.713        0.059      114.367       11.441        0.010      342.167       17.387      866.711
10/04/2014  22:00:00      -63.383      -45.916       -3.042       25.029       20.476       18.188      626.469      419.249      330.794        0.376        0.069       78.266       13.667        0.030      342.163       17.379      866.719
10/04/2014  22:01:00      -95.106      -49.180      -11.714       29.894       17.131       12.927      893.634      293.486      167.113        0.648        0.068      107.069        9.726        0.008      342.221       17.479      866.725
10/04/2014  22:02:00     -123.736      -40.838      -11.161       31.129       27.378       19.331      969.002      749.538      373.671        0.960        0.105      130.301       20.752        0.025      342.337       17.676      866.732
10/04/2014  22:03:00     -114.952      -61.827       -6.834       24.668       27.117       19.540      608.522      735.355      381.794        0.940        0.086      130.524       16.770        0.017      342.245       17.519      866.734
10/04/2014  22:04:00     -116.867      -79.918      -13.941       18.202       21.794       16.041      331.299      474.967      257.329        1.065        0.053      141.579       10.551        0.006      342.232       17.498      866.750
10/04/2014  22:05:00     -109.124      -60.437      -16.869       21.453       17.728       14.655      460.243      314.296      214.759        0.842        0.049      124.742       12.983        0.011      342.189       17.425      866.759
10/04/2014  22:06:00     -126.122      -51.058      -12.613       24.505       20.475       16.772      600.518      419.232      281.288        0.999        0.065      136.065       13.017        0.009      342.158       17.372      866.776
10/04/2014  22:07:00     -121.835      -49.215      -14.583       21.837       22.705       12.838      476.865      515.495      164.817        0.932        0.058      131.400        8.871        0.005      342.200       17.444      866.790
10/04/2014  22:08:00     -134.641      -61.560      -15.035       22.381       27.427       15.871      500.896      752.222      251.873        1.182        0.075      148.046       16.061        0.012      342.151       17.359      866.793
10/04/2014  22:09:00     -115.134      -54.442       -8.768       23.107       21.746       21.647      533.922      472.895      468.604        0.889        0.074      127.357       15.886        0.016      342.148       17.356      866.810
10/04/2014  22:10:00     -123.074      -47.153      -11.426       26.865       25.025       17.348      721.744      626.267      300.954        0.957        0.082      131.798       15.187        0.013      342.061       17.207      866.814
10/04/2014  22:11:00     -128.050      -64.488      -12.865       25.425       18.897       17.211      646.453      357.078      296.205        1.101        0.065      143.372        8.515        0.004      342.104       17.279      866.821
10/04/2014  22:12:00     -107.536      -48.200       -9.056       24.001       17.639       15.858      576.053      311.125      251.478        0.755        0.057      117.844        8.335        0.005      342.093       17.262      866.840
10/04/2014  22:13:00     -109.470      -53.016      -10.732       28.273       27.880       18.785      799.338      777.293      352.889        0.842        0.096      121.632       11.155        0.008      342.062       17.207      866.840
10/04/2014  22:14:00      -70.934      -58.165       -8.301       33.486       21.719       19.408     1121.312      471.704      376.665        0.523        0.098       91.733       11.808        0.017      342.014       17.128      866.836
10/04/2014  22:15:00     -108.092      -62.734      -11.188       30.921       15.983       13.476      956.129      255.462      181.594        0.857        0.070      124.978       14.461        0.013      342.028       17.150      866.843
10/04/2014  22:16:00     -112.492      -61.566      -14.059       22.671       17.104       13.435      513.971      292.559      180.505        0.881        0.049      128.238       13.106        0.010      342.032       17.159      866.832
10/04/2014  22:17:00     -101.413      -72.193      -10.070       25.455       23.632       17.156      647.941      558.449      294.323        0.855        0.075      124.485       10.204        0.007      342.016       17.131      866.824
10/04/2014  22:18:00      -81.036      -56.564       -6.947       30.965       23.909       14.755      958.858      571.642      217.711        0.578        0.087       98.825        7.940        0.006      341.956       17.028      866.826
10/04/2014  22:19:00      -51.701      -46.744       -2.070       29.095       26.251       22.340      846.534      689.108      499.091        0.345        0.102       69.699       16.818        0.058      341.849       16.849      866.837
10/04/2014  22:20:00      -86.451      -68.795       -8.967       22.243       19.909       16.140      494.736      396.352      260.507        0.672        0.058      110.483       12.046        0.012      341.858       16.862      866.843
10/04/2014  22:21:00     -103.692      -64.968      -11.764       18.182       14.955       10.417      330.602      223.647      108.512        0.789        0.033      122.364        7.559        0.004      341.918       16.963      866.847
10/04/2014  22:22:00     -117.468      -59.254      -11.634       30.620       21.016       17.334      937.614      441.678      300.470        0.956        0.084      131.567       18.637        0.020      341.834       16.823      866.854
10/04/2014  22:23:00     -120.726      -64.661      -13.932       23.335       18.005       17.073      544.545      324.180      291.477        1.005        0.058      136.952       15.335        0.013      341.805       16.773      866.860
10/04/2014  22:24:00     -119.341      -55.333      -19.254       15.793       15.652       10.684      249.405      244.972      114.152        0.914        0.030      131.545        7.121        0.003      341.742       16.665      866.855
10/04/2014  22:25:00      -78.402      -45.397      -15.632       28.080       12.713       13.534      788.479      161.609      183.181        0.479        0.057       90.597       11.940        0.017      341.718       16.625      866.862
10/04/2014  22:26:00      -83.834      -34.718      -13.758       10.017       11.997        8.699      100.347      143.936       75.678        0.437        0.016       90.738        6.905        0.006      341.762       16.701      866.880
10/04/2014  22:27:00      -88.794      -17.593      -18.403       18.368       19.892       11.655      337.401      395.707      135.842        0.470        0.043       90.520       11.337        0.016      341.820       16.797      866.882
10/04/2014  22:28:00      -93.289      -27.705      -10.938       14.603       16.309       10.561      213.234      265.985      111.536        0.509        0.030       97.316        9.428        0.009      341.806       16.772      866.886
10/04/2014  22:29:00      -89.816      -20.778       -9.660       21.970       21.184       13.939      482.695      448.779      194.294        0.486        0.056       92.189       13.802        0.022      341.794       16.754      866.896
10/04/2014  22:30:00      -94.414      -31.514      -12.506       19.415       17.682       14.851      376.940      312.663      220.559        0.549        0.046       99.535       13.463        0.018      341.797       16.759      866.892
10/04/2014  22:31:00     -105.667      -34.907      -19.168       15.975       11.501       10.459      255.206      132.272      109.381        0.662        0.025      111.284        8.099        0.005      341.687       16.575      866.874
10/04/2014  22:32:00     -101.644      -35.461      -14.912       20.412       18.519       14.106      416.657      342.961      198.967        0.638        0.048      107.652       13.602        0.016      341.676       16.557      866.873
10/04/2014  22:33:00     -110.494      -38.851      -18.758       13.978       13.215       11.006      195.389      174.641      121.133        0.728        0.025      117.126        5.908        0.003      341.686       16.572      866.877
10/04/2014  22:34:00     -118.996      -24.536      -17.583       22.050       12.246       13.567      486.200      149.969      184.066        0.795        0.041      121.500       12.697        0.011      341.645       16.500      866.875
10/04/2014  22:35:00     -108.093      -33.971      -15.394        9.749       16.476        8.003       95.039      271.458       64.042        0.675        0.022      113.305        3.868        0.001      341.640       16.491      866.872
10/04/2014  22:36:00     -105.743      -48.311      -11.890       14.727       17.887       13.151      216.890      319.941      172.937        0.718        0.035      116.256        1.747        0.000      341.628       16.472      866.879
10/04/2014  22:37:00     -113.245      -51.321      -19.189       10.453       11.161        9.994      109.256      124.574       99.878        0.808        0.017      124.332        5.351        0.002      341.545       16.335      866.872
10/04/2014  22:38:00     -114.325      -36.194      -15.752        8.778        7.758        8.140       77.058       60.185       66.257        0.742        0.010      119.917        5.283        0.002      341.481       16.222      866.869
10/04/2014  22:39:00     -114.849      -44.034      -16.970        8.308       10.431        7.792       69.029      108.804       60.719        0.783        0.012      123.001        4.274        0.001      341.537       16.318      866.881
10/04/2014  22:40:00     -103.880      -57.295      -15.993       14.292       12.604       11.106      204.260      158.868      123.353        0.741        0.024      118.633        7.789        0.004      341.584       16.397      866.892
10/04/2014  22:41:00      -95.617      -68.457       -3.196       26.838       19.462       16.999      720.294      378.778      288.958        0.761        0.069      117.597       14.507        0.015      341.488       16.236      866.888
10/04/2014  22:42:00      -56.984      -59.277        1.331       37.269       30.628       21.607     1388.981      938.058      466.847        0.478        0.140       82.224       20.225        0.061      341.294       15.907      866.904
10/04/2014  22:43:00      -40.503      -43.335        3.133       37.976       31.366       21.252     1442.204      983.844      451.643        0.320        0.144       59.316       22.017        0.138      341.270       15.867      866.916
10/04/2014  22:44:00      -44.081      -50.825       -3.723       27.319       28.319       19.358      746.353      801.990      374.720        0.323        0.096       67.278       17.787        0.070      341.455       16.179      866.928
10/04/2014  22:45:00      -64.762      -35.231       -0.231       24.667       18.959       15.686      608.471      359.456      246.038        0.332        0.061       73.725        9.532        0.017      341.367       16.028      866.940
10/04/2014  22:46:00      -57.512      -38.175       -6.597       25.366       16.689       11.376      643.417      278.527      129.419        0.293        0.053       69.029        6.970        0.010      341.295       15.908      866.949
10/04/2014  22:47:00      -38.589      -35.136        0.479       24.561       15.741       14.880      603.233      247.779      221.427        0.190        0.054       52.188       11.636        0.050      341.260       15.850      866.957
10/04/2014  22:48:00      -57.850      -33.692       -9.748       14.095       11.930        8.980      198.666      142.333       80.633        0.250        0.021       66.946        4.295        0.004      341.310       15.933      866.976
10/04/2014  22:49:00      -66.763      -38.082       -3.234       15.138       11.760        9.811      229.149      138.305       96.259        0.319        0.023       76.860        6.493        0.007      341.271       15.869      866.970
10/04/2014  22:50:00      -80.932      -50.077       -4.892       14.317       17.740       11.100      204.974      314.721      123.214        0.486        0.032       95.172        5.285        0.003      341.238       15.811      866.965
10/04/2014  22:51:00      -77.502      -49.051       -4.084       21.979       14.363       12.752      483.068      206.298      162.620        0.464        0.043       91.720       11.600        0.016      341.165       15.688      866.970
10/04/2014  22:52:00      -80.420      -62.142      -11.044       20.045       14.489       11.348      401.785      209.944      128.786        0.560        0.037      101.631        9.991        0.010      341.181       15.715      866.967
10/04/2014  22:53:00      -80.869      -58.099       -5.721       19.312       21.259       11.367      372.963      451.958      129.199        0.545        0.048       99.575        7.672        0.006      341.146       15.656      866.961
10/04/2014  22:54:00      -94.595      -62.003       -5.340       21.066       12.479       13.492      443.797      155.738      182.024        0.680        0.039      113.104       11.923        0.011      341.176       15.708      866.965
10/04/2014  22:55:00      -92.701      -53.579       -9.758       18.712       12.744       12.489      350.143      162.418      155.969        0.611        0.033      107.070        7.664        0.005      341.112       15.599      866.966
10/04/2014  22:56:00      -77.949      -48.886       -6.219       20.382       15.590       13.392      415.428      243.049      179.344        0.467        0.042       92.010        5.738        0.004      341.060       15.512      866.955
10/04/2014  22:57:00      -98.944      -61.257       -5.993       14.645       12.472       11.836      214.470      155.545      140.100        0.704        0.026      116.372        8.656        0.006      341.007       15.421      866.961
10/04/2014  22:58:00     -112.516      -41.845      -10.751       10.523       14.194       10.146      110.733      201.460      102.945        0.747        0.021      120.045        3.133        0.001      340.981       15.378      866.958
10/04/2014  22:59:00     -120.471      -54.191       -9.846       11.499       19.268       11.187      132.226      371.272      125.158        0.909        0.031      132.098        7.549        0.003      341.022       15.447      866.948
10/04/2014  23:00:00     -102.814      -57.673       -3.263       23.028       19.681       12.684      530.294      387.360      160.879        0.749        0.054      117.885        9.651        0.007      340.938       15.303      866.960
10/04/2014  23:01:00      -92.214      -52.292       -2.346       23.734       18.501       14.986      563.280      342.305      224.569        0.619        0.057      106.009        9.984        0.009      340.898       15.236      866.958
10/04/2014  23:02:00      -96.699      -45.016       -1.627       26.810       18.573       16.720      718.773      344.950      279.556        0.636        0.067      106.664       16.555        0.024      340.951       15.326      866.951
10/04/2014  23:03:00      -95.157      -57.572       -2.107       31.232       20.195       16.981      975.423      407.837      288.356        0.702        0.084      111.217       15.899        0.020      340.947       15.321      866.947
10/04/2014  23:04:00     -104.347      -45.893       -8.582       13.959       16.084        9.562      194.854      258.697       91.426        0.681        0.027      113.994        6.998        0.004      340.966       15.352      866.948
10/04/2014  23:05:00     -115.377      -42.927      -13.902       11.711       10.818       10.382      137.159      117.035      107.795        0.785        0.018      123.104        3.900        0.001      340.953       15.330      866.935
10/04/2014  23:06:00     -114.550      -22.590      -16.216       11.955       17.778       10.764      142.919      316.067      115.870        0.723        0.029      116.757        5.634        0.002      340.962       15.346      866.932
10/04/2014  23:07:00     -121.961      -28.727      -18.810       14.785       12.790       10.093      218.596      163.574      101.859        0.827        0.024      125.299        6.007        0.002      340.915       15.264      866.944
10/04/2014  23:08:00     -113.787      -33.908      -12.245       17.728       17.848       13.133      314.296      318.552      172.481        0.753        0.040      118.732       11.514        0.009      340.881       15.208      866.941
10/04/2014  23:09:00     -113.383      -34.329      -10.540       16.750       10.666        9.272      280.548      113.767       85.977        0.731        0.024      118.466        8.974        0.006      340.871       15.190      866.941
10/04/2014  23:10:00     -111.311      -35.952      -16.373       10.061        9.972        6.452      101.232       99.446       41.628        0.710        0.012      116.973        3.687        0.001      340.842       15.141      866.945
10/04/2014  23:11:00      -95.789      -43.069      -16.907       10.714       12.661        8.252      114.800      160.303       68.094        0.583        0.017      105.026        6.155        0.003      340.877       15.202      866.939
10/04/2014  23:12:00      -92.563      -39.980      -14.478        9.079       10.105        6.690       82.422      102.102       44.756        0.530        0.011      100.828        2.906        0.001      340.835       15.129      866.934
10/04/2014  23:13:00     -110.781      -45.055      -17.480       10.174        6.907        6.236      103.520       47.711       38.891        0.740        0.010      119.593        4.823        0.002      340.812       15.091      866.934
10/04/2014  23:14:00     -108.954      -36.892      -17.563       21.040       11.409        8.995      442.668      130.156       80.901        0.710        0.033      115.030        7.170        0.004      340.810       15.087      866.926
10/04/2014  23:15:00      -86.874      -55.798      -12.514       28.015       23.909       15.955      784.865      571.662      254.548        0.621        0.081      103.250       10.628        0.011      340.731       14.954      866.913
10/04/2014  23:16:00     -101.425      -68.131       -6.860       27.317       20.830       16.773      746.225      433.899      281.322        0.822        0.073      122.184       11.198        0.008      340.630       14.785      866.915
10/04/2014  23:17:00      -87.929      -65.407      -15.095       44.953       34.702       19.369     2020.789     1204.260      375.150        0.792        0.180      109.589       14.164        0.017      340.768       15.016      866.903
10/04/2014  23:18:00      -87.577      -60.647       -0.942       41.776       31.967       24.116     1745.247     1021.911      581.585        0.735        0.167      106.526       23.811        0.050      340.717       14.931      866.895
10/04/2014  23:19:00      -83.894      -48.462        2.184       48.858       28.870       24.133     2387.125      833.448      582.395        0.660        0.190       96.885       21.087        0.047      340.662       14.838      866.896
10/04/2014  23:20:00      -88.254      -63.495        0.928       47.103       37.385       23.366     2218.687     1397.657      545.989        0.799        0.208      108.722       22.007        0.041      340.653       14.823      866.900
10/04/2014  23:21:00     -105.701      -64.262       -1.625       48.493       30.578       19.462     2351.574      935.038      378.754        0.948        0.183      123.703       17.787        0.021      340.680       14.868      866.894
10/04/2014  23:22:00     -102.051      -61.869       -3.656       40.708       25.502       19.459     1657.110      650.362      378.666        0.847        0.134      119.341       17.797        0.022      340.622       14.770      866.894
10/04/2014  23:23:00     -107.771      -66.159       -7.084       24.784       23.347       19.709      614.240      545.064      388.452        0.879        0.077      126.458       13.261        0.011      340.532       14.617      866.899
10/04/2014  23:24:00      -84.384      -65.634        1.204       36.583       29.848       21.437     1338.292      890.896      459.565        0.706        0.134      106.904       19.081        0.032      340.439       14.460      866.885
10/04/2014  23:25:00     -107.926      -74.708       -6.293       30.055       23.972       17.086      903.295      574.642      291.928        0.952        0.088      131.261       12.028        0.008      340.480       14.529      866.896
10/04/2014  23:26:00     -106.245      -58.641       -7.869       40.126       24.466       17.199     1610.078      598.576      295.803        0.865        0.125      121.354       19.973        0.027      340.515       14.589      866.902
10/04/2014  23:27:00      -63.491      -37.987       -3.142       44.905       25.686       14.769     2016.466      659.760      218.119        0.419        0.145       73.988       19.829        0.072      340.422       14.432      866.903
10/04/2014  23:28:00      -25.946      -33.308       16.444       30.241       18.743       16.277      914.488      351.300      264.938        0.179        0.077       42.221       12.689        0.090      340.400       14.395      866.908
10/04/2014  23:29:00      -48.312      -39.693       11.387       39.259       26.903       19.368     1541.283      723.796      375.112        0.334        0.132       62.526       20.994        0.113      340.393       14.384      866.914
10/04/2014  23:30:00      -70.688      -49.864        3.891       40.680       28.547       22.545     1654.823      814.947      508.279        0.524        0.149       86.506       22.565        0.068      340.392       14.381      866.901
10/04/2014  23:31:00      -93.825      -89.445       -4.965       39.628       31.870       23.499     1570.413     1015.692      552.181        0.998        0.157      129.629       18.833        0.021      340.399       14.391      866.889
10/04/2014  23:32:00      -87.643      -62.806        9.404       60.605       39.871       25.256     3672.940     1589.728      637.865        0.881        0.295      107.823       27.915        0.067      340.314       14.249      866.889
10/04/2014  23:33:00     -136.004      -66.818       -1.106       45.037       36.167       26.545     2028.314     1308.038      704.639        1.350        0.202      151.531       18.522        0.015      340.387       14.374      866.878
10/04/2014  23:34:00     -136.463      -81.353       -8.706       53.106       43.935       28.186     2820.236     1930.306      794.455        1.543        0.277      158.872       29.166        0.034      340.398       14.389      866.862
10/04/2014  23:35:00     -115.199      -71.833        5.869       56.582       42.367       26.758     3201.544     1794.990      715.988        1.209        0.286      135.760       28.579        0.044      340.407       14.407      866.854
10/04/2014  23:36:00      -89.193      -44.482       11.491       64.830       42.662       27.927     4202.922     1820.052      779.897        0.843        0.340       99.670       32.403        0.106      340.439       14.459      866.851
10/04/2014  23:37:00      -89.956      -56.433        7.800       55.186       40.206       26.524     3045.454     1616.534      703.515        0.835        0.268      106.192       27.100        0.065      340.410       14.411      866.843
10/04/2014  23:38:00     -109.087      -67.655        4.467       49.018       38.701       25.677     2402.751     1497.734      659.294        1.053        0.228      128.363       25.366        0.039      340.397       14.389      866.847
10/04/2014  23:39:00      -93.316      -61.404       -0.438       41.553       35.974       27.182     1726.621     1294.124      738.858        0.812        0.188      111.706       26.300        0.055      340.477       14.524      866.848
10/04/2014  23:40:00     -100.122      -71.321       -2.097       34.144       36.621       20.676     1165.845     1341.101      427.486        0.902        0.147      122.927       19.795        0.026      340.563       14.669      866.843
10/04/2014  23:41:00     -128.172      -50.384       -2.656       30.655       24.371       16.995      939.707      593.942      288.814        1.040        0.091      137.719       18.316        0.018      340.537       14.626      866.852
10/04/2014  23:42:00     -125.777      -25.916       -6.563       30.470       20.120       18.907      928.439      404.800      357.492        0.911        0.085      128.419       16.730        0.017      340.470       14.512      866.856
10/04/2014  23:43:00     -111.981      -50.257        4.492       38.378       26.519       20.128     1472.844      703.235      405.129        0.883        0.129      122.741       19.495        0.025      340.434       14.452      866.850
10/04/2014  23:44:00     -139.714      -65.900       -7.620       18.734       17.621       11.824      350.962      310.517      139.811        1.236        0.040      154.476        6.128        0.002      340.458       14.492      866.854
10/04/2014  23:45:00     -117.095      -56.043       -5.523       17.097       18.833       13.343      292.319      354.685      178.039        0.885        0.041      129.815        9.866        0.006      340.453       14.483      866.858
10/04/2014  23:46:00      -79.689      -45.884       -2.532       21.860       23.979       14.565      477.875      574.978      212.151        0.486        0.063       91.954       12.738        0.019      340.378       14.359      866.845
10/04/2014  23:47:00      -75.180      -23.408        1.036       23.193       20.262       11.739      537.904      410.556      137.805        0.364        0.054       78.740       10.176        0.017      340.343       14.298      866.832
10/04/2014  23:48:00      -72.219      -12.670       -0.428       21.094       16.625       13.601      444.957      276.390      184.976        0.314        0.045       73.322       12.712        0.030      340.287       14.203      866.837
10/04/2014  23:49:00      -87.729      -34.247        0.244       22.561       19.663       12.591      508.991      386.651      158.540        0.496        0.053       94.177       13.740        0.021      340.341       14.294      866.829
10/04/2014  23:50:00     -112.693      -40.567       -4.183       12.878       12.953       10.092      165.851      167.782      101.844        0.740        0.022      119.772        4.626        0.001      340.446       14.472      866.819
10/04/2014  23:51:00      -99.137      -39.753        0.899       33.266       24.419       17.346     1106.625      596.285      300.874        0.671        0.100      106.811       15.017        0.020      340.363       14.332      866.823
10/04/2014  23:52:00      -69.623      -43.999       -6.317       26.615       21.098       14.365      708.349      445.125      206.339        0.409        0.068       82.360        9.688        0.014      340.284       14.199      866.818
10/04/2014  23:53:00      -55.133      -36.147       -6.941       22.571       16.070       12.369      509.440      258.246      152.981        0.266        0.046       65.926        5.313        0.006      340.272       14.178      866.829
10/04/2014  23:54:00      -59.792      -33.305       -3.117       25.287       13.813       10.143      639.430      190.806      102.877        0.281        0.047       68.442        6.995        0.010      340.222       14.094      866.841
10/04/2014  23:55:00      -76.386      -54.045       -7.635       12.913       17.235       10.991      166.737      297.059      120.794        0.470        0.029       93.572        6.287        0.005      340.288       14.205      866.841
10/04/2014  23:56:00      -98.608      -39.603      -13.814       15.804       14.337       11.599      249.760      205.537      134.527        0.604        0.029      106.264        5.061        0.002      340.262       14.162      866.831
10/04/2014  23:57:00     -108.336      -55.863      -11.727       12.238        9.969        9.234      149.776       99.378       85.267        0.766        0.017      121.891        6.549        0.003      340.242       14.128      866.836
10/04/2014  23:58:00     -112.302      -54.773      -14.276       10.271        9.941        8.411      105.485       98.814       70.742        0.805        0.014      124.947        3.926        0.001      340.269       14.174      866.827
10/04/2014  23:59:00     -114.165      -71.299      -16.648       11.321       17.974       14.790      128.156      323.081      218.747        0.953        0.033      134.600        4.590        0.001      340.345       14.301      866.817
